GFSSE_con_mlcape_000.txt.gz
CAPE
389 474 441 501 401 327 273 240 218 259 282 304 332 353 343 321 286 189 138 174 222 336 334 201 170 161 175 197 276 337 428 448 581 703 522 403 439 823 744 435 362 440 773
547 617 583 504 459 398 364 312 322 379 442 445 447 452 399 311 196 166 109 63 62 75 71 81 88 86 94 88 156 241 281 318 370 427 512 465 182 309 753 406 133 464 760
689 789 578 481 481 523 491 395 490 545 558 501 534 544 378 190 91 31 12 0 37 33 15 9 19 16 5 4 11 28 66 121 126 216 272 118 154 390 713 592 382 414 628
854 877 681 540 604 611 546 557 648 696 598 558 597 443 199 93 15 0 0 0 2 0 0 0 0 0 0 0 0 0 0 0 0 15 1 37 107 305 680 888 439 640 391
831 779 798 700 688 652 631 680 746 729 653 645 550 320 151 50 1 0 0 0 0 0 0 0 0 0 0 0 0 0 0 0 0 0 0 2 283 417 731 1077 744 373 405
808 715 705 729 783 791 799 829 790 701 672 621 428 204 136 22 0 0 0 0 0 0 0 0 0 0 0 0 0 0 0 0 0 0 0 0 171 478 640 529 832 387 385
656 727 807 931 926 867 839 790 713 726 510 328 198 142 48 0 0 0 0 0 0 0 0 0 0 0 0 0 0 0 0 0 0 0 0 0 83 441 737 909 591 344 199
834 974 958 938 889 818 727 760 815 668 321 222 144 40 0 0 0 0 0 0 0 0 0 0 0 0 0 0 0 0 0 0 0 0 0 0 1 379 546 460 633 240 120
1019 1066 971 937 835 813 867 866 752 575 275 129 52 15 10 0 0 0 0 0 0 0 0 0 0 0 0 0 0 0 0 0 0 0 0 0 0 141 611 384 147 115 1
788 981 1038 1061 1068 1020 883 731 532 318 138 103 40 49 5 0 0 0 0 0 0 0 0 0 0 0 0 0 0 0 0 0 0 0 0 0 0 9 373 365 397 56 5
786 882 956 994 1040 892 657 486 332 174 56 7 19 77 96 12 1 14 55 74 29 39 19 8 11 5 0 0 0 0 0 0 0 0 0 0 0 0 7 195 60 0 0
498 692 772 787 688 534 411 224 72 17 0 13 110 130 117 78 96 144 110 128 144 112 153 132 102 89 80 20 1 0 0 0 0 0 0 0 0 0 0 10 30 0 0
6 293 284 224 188 108 49 15 0 8 25 75 154 164 163 206 193 129 77 44 17 27 5 1 2 2 0 1 0 0 0 0 0 0 0 0 0 0 0 0 0 0 0
1 80 70 8 0 0 0 0 0 26 55 128 276 284 233 185 76 2 3 0 0 0 0 0 0 0 0 0 0 0 0 0 0 0 0 0 0 0 0 0 0 0 0
5 85 35 1 0 0 0 0 6 77 179 260 342 396 217 92 3 0 0 0 0 0 0 0 0 0 0 0 0 0 0 0 0 0 0 0 0 0 0 0 0 0 0
48 56 69 30 0 0 0 4 3 69 249 441 496 342 151 4 1 0 0 0 0 0 0 0 0 0 0 0 0 0 0 0 0 0 0 0 0 0 0 0 0 0 0
60 71 79 16 1 0 0 0 0 3 16 122 110 11 1 0 0 0 0 0 0 0 0 0 0 0 0 0 0 0 0 0 0 0 0 0 0 0 0 0 0 0 0
0 90 58 41 26 2 15 17 27 0 0 0 0 0 0 0 0 0 0 0 0 0 0 0 0 0 0 0 0 0 0 0 0 0 0 0 0 0 0 0 0 0 0
14 123 57 15 0 0 0 0 0 0 0 0 0 0 0 0 0 0 0 0 0 0 0 0 0 0 0 0 0 0 0 0 0 0 0 0 0 0 0 0 0 0 0
26 82 17 0 0 0 0 0 0 0 0 0 0 0 0 0 0 0 0 0 0 0 0 0 0 0 0 0 0 0 0 0 0 0 0 0 0 0 0 0 0 0 0
1 11 12 0 0 0 0 0 0 0 0 0 0 0 0 0 0 0 0 0 0 0 0 0 0 0 0 0 0 0 0 0 0 0 0 0 0 0 0 0 0 0 0
0 0 0 0 0 0 0 0 0 0 0 0 0 0 0 0 0 0 0 0 0 0 0 0 0 0 0 0 0 0 0 0 0 0 0 0 0 0 0 0 0 0 0
0 0 0 0 0 0 0 0 0 0 0 0 0 0 0 0 0 0 0 0 0 0 0 0 0 0 0 0 0 0 0 0 0 0 0 0 0 0 0 0 0 0 0
0 0 0 0 0 0 0 0 0 0 0 0 0 0 0 0 0 0 0 0 0 0 0 0 0 0 0 0 0 0 0 0 0 0 0 0 0 0 0 0 0 0 0
0 0 0 0 0 0 0 0 0 0 0 0 0 0 0 0 0 0 0 0 0 0 0 0 0 0 0 0 0 0 0 0 0 0 0 0 0 0 0 0 0 0 0
0 0 0 0 0 0 0 0 0 0 0 0 0 0 0 0 0 0 0 0 0 0 0 0 0 0 0 0 0 0 0 0 0 0 0 0 0 0 0 0 0 0 0

GFSSE_con_mlcape_003.txt.gz
CAPE
417 568 350 178 186 224 226 213 209 206 204 207 225 257 292 263 200 158 137 100 95 117 71 96 115 115 162 154 173 213 254 273 282 378 399 493 456 660 834 162 227 382 651
668 710 411 253 232 277 248 237 258 308 321 310 338 336 295 195 137 36 0 38 70 17 11 23 35 8 2 2 6 15 16 23 44 109 147 150 139 311 451 210 148 195 494
839 857 537 286 316 354 328 321 409 426 392 396 440 380 203 104 29 0 18 90 63 15 2 0 0 0 0 0 0 0 0 0 0 0 3 109 169 206 537 409 406 664 395
961 888 579 344 411 459 409 488 523 540 517 544 539 317 149 80 22 0 23 17 8 0 0 0 0 0 0 0 0 0 0 0 0 0 0 5 336 400 292 324 355 481 251
985 892 616 453 495 507 499 539 686 669 610 663 423 230 168 44 0 0 0 0 0 0 0 0 0 0 0 0 0 0 0 0 0 0 0 79 500 453 244 305 352 320 263
735 680 608 567 581 535 598 839 780 688 706 604 369 243 162 20 0 0 0 0 0 0 0 0 0 0 0 0 0 0 0 0 0 0 0 0 214 610 437 395 149 217 203
661 856 738 637 611 662 846 919 818 740 728 534 315 291 102 2 0 0 0 0 0 0 0 0 0 0 0 0 0 0 0 0 0 0 0 0 1 337 603 623 227 111 64
826 897 812 725 770 895 954 863 827 721 482 306 301 172 9 0 0 0 0 0 0 0 0 0 0 0 0 0 0 0 0 0 0 0 0 0 0 38 614 628 253 0 0
1161 1181 1126 1150 1095 954 834 870 895 632 391 276 191 67 0 0 0 0 0 0 0 0 0 0 0 0 0 0 0 0 0 0 0 0 0 0 0 7 348 568 452 60 0
1185 1201 1190 1255 1168 1054 1140 1068 913 631 351 230 61 35 0 0 0 0 1 0 7 0 0 0 0 0 0 0 0 0 0 0 0 0 0 0 0 0 8 185 258 115 19
920 962 939 1108 1194 1310 1241 1054 802 485 227 114 29 45 66 91 83 120 87 72 73 49 38 24 24 39 34 13 0 0 0 0 0 0 0 0 0 0 0 5 62 12 0
796 796 813 847 1081 1066 1015 852 642 407 240 147 120 154 202 211 238 264 289 180 136 92 69 40 19 35 79 133 57 0 0 0 0 0 0 0 0 0 0 0 0 0 4
750 749 774 890 962 873 706 513 261 109 69 74 149 210 295 342 482 456 310 179 104 43 34 0 0 1 12 4 0 0 0 0 0 0 0 0 0 0 0 0 0 20 15
429 516 688 586 429 312 182 81 21 24 54 150 292 367 469 459 280 42 11 0 0 0 0 0 0 0 0 0 0 0 0 0 0 0 0 0 0 0 0 0 2 3 1
102 256 202 113 66 45 21 6 1 55 151 257 375 560 579 380 118 1 0 0 0 0 0 0 0 0 0 0 0 0 0 0 0 0 0 0 0 0 0 0 0 6 46
39 143 50 16 6 17 15 51 47 0 7 143 215 55 54 10 5 0 0 0 0 0 0 0 0 0 0 0 0 0 0 0 0 0 0 0 0 0 0 0 0 0 0
59 87 36 0 6 31 18 10 0 0 5 0 0 0 0 0 0 0 0 0 0 0 0 0 0 0 0 0 0 0 0 0 0 0 0 0 0 0 0 0 0 0 0
80 92 32 11 2 0 0 0 0 0 0 0 0 0 0 0 0 0 0 0 0 0 0 0 0 0 0 0 0 0 0 0 0 0 0 0 0 0 0 0 0 0 0
164 154 38 0 0 0 0 0 0 0 0 0 0 0 0 0 0 0 0 0 0 0 0 0 0 0 0 0 0 0 0 0 0 0 0 0 0 0 0 0 0 0 0
215 52 0 0 0 0 0 0 0 0 0 0 0 0 0 0 0 0 0 0 0 0 0 0 0 0 0 0 0 0 0 0 0 0 0 0 0 0 0 0 0 0 0
74 11 0 0 0 0 0 0 0 0 0 0 0 0 0 0 0 0 0 0 0 0 0 0 0 0 0 0 0 0 0 0 0 0 0 0 0 0 0 0 0 0 0
314 221 43 1 0 0 0 0 0 0 0 0 0 0 0 0 0 0 0 0 0 0 0 0 0 0 0 0 0 0 0 0 0 0 0 0 0 0 0 0 0 0 0
39 3 0 0 0 0 0 0 0 0 0 0 0 0 0 0 0 0 0 0 0 0 0 0 0 0 0 0 0 0 0 0 0 0 0 0 0 0 0 0 0 0 0
0 0 0 0 0 0 0 0 0 0 0 0 0 0 0 0 0 0 0 0 0 0 0 0 0 0 0 0 0 0 0 0 0 0 0 0 0 0 0 0 0 0 0
0 0 0 0 0 0 0 0 0 0 0 0 0 0 0 0 0 0 0 0 0 0 0 0 0 0 0 0 0 0 0 0 0 0 0 0 0 0 0 0 0 0 0
0 0 0 0 0 0 0 0 0 0 0 0 0 0 0 0 0 0 0 0 0 0 0 0 0 0 0 0 0 0 0 0 0 0 0 0 0 0 0 0 0 0 0

GFSSE_con_mlcape_006.txt.gz
CAPE
549 468 289 187 234 286 254 225 173 167 151 170 217 267 253 198 142 77 0 4 15 18 24 45 46 37 19 10 4 2 0 0 6 23 28 112 144 425 489 25 62 198 310
690 567 295 219 262 329 272 256 246 223 221 289 338 312 220 167 51 0 0 0 8 1 0 0 0 0 0 0 0 0 0 0 0 0 0 73 213 159 605 123 141 163 355
820 765 354 250 313 355 328 324 329 340 404 467 419 259 162 50 0 0 0 0 0 0 0 0 0 0 0 0 0 0 0 0 0 0 0 26 155 329 444 306 410 419 185
978 921 537 257 314 363 379 400 417 489 566 552 382 193 50 0 0 0 0 0 0 0 0 0 0 0 0 0 0 0 0 0 0 0 0 14 284 283 155 52 269 266 156
984 872 657 350 350 298 395 430 495 576 621 551 319 157 88 0 0 0 0 0 0 0 0 0 0 0 0 0 0 0 0 0 0 0 0 0 84 407 213 23 139 386 153
909 1024 466 401 336 313 455 540 637 655 676 497 304 226 118 13 0 0 0 0 0 0 0 0 0 0 0 0 0 0 0 0 0 0 0 0 20 644 677 291 121 54 49
576 982 670 542 418 439 596 734 744 671 702 483 323 225 91 0 0 0 0 0 0 0 0 0 0 0 0 0 0 0 0 0 0 0 0 0 0 346 660 388 32 50 0
960 973 745 603 571 636 754 836 729 739 653 390 268 150 29 0 0 0 0 0 0 0 0 0 0 0 0 0 0 0 0 0 0 0 0 0 0 64 385 604 78 0 0
1158 1086 793 768 761 857 861 800 767 571 459 307 153 40 0 0 0 0 0 0 0 0 0 0 0 0 0 0 0 0 0 0 0 0 0 0 0 0 16 287 373 113 0
1107 1155 1120 950 963 914 921 833 796 524 346 241 60 14 0 1 0 0 4 8 12 0 0 0 0 5 0 0 0 0 0 0 0 0 0 0 0 0 23 29 216 146 1
1036 1030 889 850 868 865 910 863 597 380 190 45 48 42 111 140 185 125 68 56 49 35 39 51 22 8 0 39 8 0 0 0 0 0 0 0 0 0 0 17 27 30 60
924 994 1000 1001 846 851 716 607 384 204 105 83 220 441 276 603 565 369 206 108 54 39 45 0 0 0 10 0 0 0 0 0 0 0 0 0 0 0 0 0 6 67 47
698 799 783 701 683 707 460 240 26 7 93 290 563 697 696 799 759 488 245 181 212 8 42 0 0 0 0 0 0 0 0 0 0 0 0 0 0 0 0 0 21 99 125
556 709 689 483 540 484 85 45 97 150 418 537 736 909 851 721 597 275 157 114 117 24 0 0 0 0 0 0 0 0 0 0 0 0 0 0 0 0 0 0 5 21 49
345 467 435 321 258 163 174 266 401 567 689 802 972 1016 557 109 74 193 149 22 0 0 0 0 0 0 0 0 0 0 0 0 0 0 0 0 0 0 0 0 0 0 0
352 353 246 86 185 412 492 621 222 90 115 355 779 393 122 6 0 15 4 0 0 0 0 0 0 0 0 0 0 0 0 0 0 0 0 0 0 0 0 0 0 0 0
404 315 195 252 456 257 113 75 22 23 33 67 257 262 138 45 4 0 0 0 0 0 0 0 0 0 0 0 0 0 0 0 0 0 0 0 0 0 0 0 0 0 0
444 371 179 246 212 11 0 0 0 1 2 5 0 0 0 0 0 0 0 0 0 0 0 0 0 0 0 0 0 0 0 0 0 0 0 0 0 0 0 0 0 0 0
444 415 369 176 1 0 0 0 0 0 0 0 0 0 0 0 0 0 0 0 0 0 0 0 0 0 0 0 0 0 0 0 0 0 6 2 0 0 0 0 0 0 0
583 569 373 123 21 112 50 0 0 0 0 0 0 0 0 0 0 0 0 0 0 0 0 0 0 0 0 0 0 0 0 0 0 0 10 12 3 2 0 0 0 0 0
674 572 386 194 119 173 16 0 0 0 0 0 0 0 0 0 0 0 0 0 0 0 0 0 0 0 0 0 0 0 0 0 0 2 14 1 0 1 0 0 0 0 0
446 391 347 240 182 5 0 0 0 0 0 0 0 0 0 0 0 0 0 0 0 0 0 0 0 0 0 0 1 0 0 0 0 0 0 0 0 4 0 0 0 0 0
643 614 353 73 0 0 0 0 0 0 0 0 0 0 0 0 0 0 0 0 0 0 0 0 0 0 0 0 2 0 0 0 0 0 0 0 0 0 0 0 0 0 0
654 266 3 0 0 0 0 0 0 0 0 0 0 0 0 0 0 0 0 0 0 0 0 0 0 0 0 0 0 0 0 0 0 0 0 0 0 0 0 0 0 0 0
0 0 0 0 0 0 0 0 0 0 0 0 0 0 0 0 0 0 0 0 0 0 0 1 0 0 0 0 0 0 0 0 0 0 0 0 0 0 0 0 0 0 0
0 0 0 0 0 0 0 0 0 0 0 0 0 0 0 0 0 0 0 0 0 2 11 1 0 0 0 0 0 0 0 0 0 0 0 0 0 0 0 0 0 0 0

GFSSE_con_mlcape_009.txt.gz
CAPE
474 154 140 169 143 114 74 66 52 57 131 226 288 308 285 215 76 20 8 12 15 4 0 0 0 0 0 0 0 0 0 0 0 0 0 10 143 410 259 82 32 52 222
597 208 138 180 186 168 160 111 129 247 311 351 340 305 223 87 37 31 0 0 0 0 0 0 0 0 0 0 0 0 0 0 0 0 0 84 327 456 436 322 33 70 225
668 341 179 221 234 283 278 229 273 390 401 417 318 214 81 0 0 0 0 0 0 0 0 0 0 0 0 0 0 0 0 0 0 0 0 101 456 235 268 164 189 171 172
752 362 231 289 313 343 300 267 329 479 529 416 239 128 21 0 0 0 0 0 0 0 0 0 0 0 0 0 0 0 0 0 0 0 0 0 387 228 207 125 139 194 161
694 446 334 332 227 252 272 338 400 461 496 335 216 141 4 0 0 0 0 0 0 0 0 0 0 0 0 0 0 0 0 0 0 0 0 0 21 491 560 41 253 160 21
717 598 203 289 254 283 315 397 440 527 414 307 239 86 14 0 0 0 0 0 0 0 0 0 0 0 0 0 0 0 0 0 0 0 0 0 1 479 595 117 107 64 14
443 348 302 280 253 335 404 438 516 606 429 296 206 61 0 0 0 0 0 0 0 0 0 0 0 0 0 0 0 0 0 0 0 0 0 0 0 80 669 213 0 0 0
241 402 370 338 393 446 474 573 599 585 354 210 67 0 0 0 0 0 0 0 0 0 0 0 0 0 0 0 0 0 0 0 0 0 0 0 0 0 89 436 71 0 0
36 514 500 606 529 499 542 622 543 417 208 94 1 0 0 0 0 0 0 0 9 0 2 11 0 0 0 0 0 0 0 0 0 0 0 0 0 15 11 42 208 96 0
133 679 861 852 815 751 772 651 470 264 81 5 1 0 0 0 0 0 2 1 11 20 35 29 2 0 0 0 1 0 0 0 0 0 8 0 0 0 10 21 27 52 6
685 864 869 795 695 596 693 565 273 87 0 0 5 0 77 242 120 69 3 3 12 8 2 1 0 0 0 10 48 0 0 0 0 0 0 0 0 0 51 3 0 49 54
716 648 709 750 731 727 510 400 230 31 22 61 300 250 270 365 179 0 27 0 0 0 4 0 0 0 8 0 6 0 0 0 0 0 0 0 0 0 0 29 69 57 146
671 676 682 768 667 523 305 85 8 1 57 334 522 442 586 400 464 283 188 213 232 107 94 9 21 14 2 0 0 0 0 0 0 0 0 0 0 0 0 2 34 52 56
597 687 542 423 440 313 46 6 12 279 372 398 665 684 652 479 440 310 245 183 130 117 22 20 35 1 0 0 0 0 0 0 0 0 0 0 0 0 0 0 0 0 0
384 359 328 305 273 261 161 355 532 640 753 914 946 771 695 416 168 74 29 0 52 16 12 13 13 0 0 0 0 0 0 0 0 0 0 0 0 0 0 0 0 0 0
334 374 259 113 238 468 656 595 309 278 368 332 661 953 609 320 161 64 46 31 9 6 2 0 0 0 0 0 0 0 0 0 0 0 0 0 0 0 0 0 0 0 0
338 263 243 497 587 530 388 150 74 50 37 131 401 774 896 563 316 76 2 0 9 0 0 0 0 0 0 0 0 0 0 0 0 0 2 9 2 0 0 0 0 0 0
425 296 427 589 473 265 98 0 6 47 32 17 0 3 0 0 0 0 0 0 0 0 0 0 0 0 0 0 0 0 0 0 0 0 0 5 20 20 3 0 0 0 0
637 495 434 513 350 272 9 57 2 0 0 0 0 0 0 0 0 0 0 0 0 0 0 0 0 0 0 0 0 0 0 0 0 0 0 0 22 17 18 1 6 0 0
709 627 615 478 245 180 377 23 0 0 0 0 0 0 0 0 0 0 0 0 0 0 0 0 0 0 0 1 0 0 0 0 0 0 1 12 9 3 5 8 5 7 6
832 812 743 521 425 503 156 19 0 0 0 0 0 0 0 0 0 0 0 0 0 0 0 1 5 6 0 0 0 0 0 0 0 0 0 3 0 0 0 6 1 1 0
990 964 740 622 533 141 23 0 3 0 0 0 0 0 0 0 0 0 0 0 0 0 0 0 5 4 0 0 0 0 0 0 0 0 0 0 0 0 2 0 0 0 1
929 775 689 482 138 4 0 0 0 0 0 0 0 0 0 0 0 0 0 0 0 0 0 0 0 3 0 0 0 0 0 0 0 0 0 0 0 0 0 0 0 0 0
888 679 308 50 0 0 0 0 0 0 0 0 0 0 0 0 0 0 0 0 0 0 0 0 0 1 0 0 0 0 0 0 0 0 0 0 0 0 0 0 0 0 0
586 271 6 0 0 0 0 0 0 0 0 0 0 0 0 0 0 0 0 0 0 0 0 1 10 11 7 9 6 0 0 0 0 0 0 0 0 3 0 0 0 0 0
21 0 0 0 0 0 0 0 0 0 0 0 0 0 0 0 0 0 0 0 0 0 0 11 17 14 12 4 0 0 2 1 2 4 7 4 6 0 0 0 5 7 5

GFSSE_con_mlcape_012.txt.gz
CAPE
97 111 98 109 185 181 93 14 30 57 119 264 290 216 107 64 19 18 0 0 0 0 0 0 0 0 0 0 0 0 0 0 0 0 0 235 436 266 53 0 31 27 79
102 124 81 85 78 67 36 48 89 195 365 356 249 124 59 28 27 14 0 0 0 0 0 0 0 0 0 0 0 0 0 0 0 0 1 195 265 402 111 32 27 63 117
107 137 105 89 110 99 96 127 252 405 428 303 159 74 47 0 0 0 0 0 0 0 0 0 0 0 0 0 0 0 0 0 0 0 4 234 218 209 48 174 77 149 278
187 125 181 172 140 126 169 248 344 501 338 206 119 47 0 0 0 0 0 0 0 0 0 0 0 0 0 0 0 0 0 0 0 0 0 104 263 403 131 295 274 101 264
161 121 311 185 119 159 211 312 363 410 254 173 75 2 0 0 0 0 0 0 0 0 0 0 0 0 0 0 0 0 0 0 0 1 0 0 2 470 194 50 41 18 7
427 249 200 142 127 214 249 333 364 280 210 132 51 0 0 0 0 0 0 0 0 0 0 0 0 0 0 0 0 0 0 0 0 0 0 0 1 405 385 37 1 0 0
162 95 138 118 202 279 282 398 364 282 178 58 0 0 0 0 0 0 0 0 0 0 0 0 0 0 0 0 0 0 0 0 0 2 0 0 0 27 293 295 59 5 0
93 81 81 124 226 112 344 427 363 194 103 12 0 0 0 0 0 0 0 0 0 0 0 0 0 0 0 0 0 0 0 0 0 1 0 0 0 0 0 72 159 66 0
39 154 5 178 420 436 395 351 244 90 22 5 0 0 0 0 0 0 0 0 0 0 0 0 0 0 0 0 0 0 0 0 0 8 8 0 0 0 0 2 17 24 0
69 101 127 230 133 555 403 224 89 45 17 0 0 0 0 0 0 1 19 0 0 0 0 0 0 0 0 0 0 0 0 0 0 0 0 0 0 29 84 7 35 48 40
14 103 217 269 449 555 397 170 64 4 0 0 0 1 3 78 51 116 13 0 0 0 0 0 0 0 0 12 1 0 0 0 0 0 0 0 0 0 0 53 24 25 99
130 264 389 484 476 477 289 177 5 0 18 123 102 120 313 389 22 15 77 0 0 20 0 16 0 0 0 0 0 0 0 0 0 0 0 0 0 0 0 0 15 53 49
323 508 554 508 624 517 320 194 46 99 205 455 400 548 408 524 342 282 225 426 174 139 110 44 30 26 2 0 0 0 0 0 0 0 0 0 0 0 0 0 0 0 0
550 627 663 560 173 95 32 11 26 235 409 481 605 510 510 596 441 240 121 2 0 43 40 54 35 0 0 0 0 0 0 0 0 0 0 0 0 0 0 0 0 0 0
377 266 296 305 147 105 84 502 586 681 743 788 901 690 645 380 100 19 9 23 61 14 1 0 0 0 0 0 0 0 0 0 0 0 0 0 0 0 0 0 0 0 0
232 274 290 215 267 389 632 404 285 310 282 232 646 858 697 397 161 57 40 0 0 0 0 0 0 0 0 0 0 0 0 0 0 0 0 0 0 0 0 0 0 0 0
327 254 106 234 725 633 392 244 149 0 76 294 489 625 606 114 11 0 0 0 0 0 0 0 0 0 0 0 0 0 0 0 0 0 0 0 10 11 6 0 0 0 0
238 200 336 589 566 373 128 3 7 91 49 0 0 0 0 0 0 0 0 0 0 0 0 0 0 0 0 0 0 0 0 0 0 0 0 0 0 12 4 0 0 0 0
240 373 602 550 359 16 14 44 95 3 0 0 0 0 0 0 0 0 0 0 0 0 0 0 0 0 0 0 0 0 0 0 0 0 0 0 0 7 2 2 0 0 0
386 390 612 552 410 40 227 2 0 0 0 0 0 0 0 0 0 0 0 0 0 0 0 0 0 0 0 0 0 0 0 0 0 0 0 0 0 0 0 0 0 0 0
595 493 588 467 341 252 167 0 0 0 0 0 0 0 0 0 0 0 0 0 0 0 0 0 0 0 0 0 0 0 0 0 0 0 0 0 0 0 0 0 0 0 0
787 740 687 497 456 525 66 5 2 0 0 0 0 0 0 0 0 0 0 0 0 0 0 0 0 0 0 0 0 0 0 0 0 0 0 0 0 0 0 0 0 0 0
942 951 783 600 536 31 0 0 0 0 0 0 0 0 0 0 0 0 0 0 0 0 0 0 0 0 0 0 0 0 0 0 0 0 0 0 0 0 0 0 0 0 0
948 852 737 492 2 0 0 0 0 0 0 0 0 0 0 0 0 0 0 0 0 0 0 0 0 0 0 0 0 0 0 0 0 0 0 0 0 0 0 0 0 0 0
730 801 358 0 0 0 0 0 0 0 0 0 0 0 0 0 0 0 0 0 0 0 0 0 0 1 0 0 0 0 0 0 0 0 0 0 0 0 0 3 0 0 0
742 269 0 0 0 0 0 0 0 0 0 0 0 0 0 0 0 0 0 0 0 0 0 1 0 0 0 0 0 0 0 0 0 0 0 0 0 0 0 0 0 0 0

GFSSE_con_mlcape_015.txt.gz
CAPE
85 391 512 524 362 156 57 31 48 117 150 139 48 0 0 0 0 0 0 0 0 0 0 0 0 0 0 0 0 0 0 0 0 0 35 131 72 145 77 17 33 77 280
136 331 456 380 276 93 51 66 170 203 172 100 27 0 0 0 0 0 0 0 0 0 0 0 0 0 0 0 0 0 0 0 0 0 23 195 187 88 244 103 125 222 231
25 177 276 241 139 74 107 225 275 256 132 32 0 0 0 0 0 0 0 0 0 0 0 0 0 0 0 0 0 0 0 0 0 0 62 146 137 129 381 127 82 143 330
91 178 169 76 72 92 168 367 346 227 102 40 0 0 0 0 0 0 0 0 0 0 0 0 0 0 0 0 0 0 0 0 0 36 4 0 121 138 139 178 61 43 131
93 173 180 95 62 116 398 503 304 162 70 36 6 0 0 0 0 0 4 1 0 0 0 0 0 0 0 0 0 0 0 0 0 0 0 0 78 166 73 27 0 0 0
185 125 57 38 45 241 339 334 248 89 47 24 9 0 0 0 0 0 2 1 0 0 0 0 0 0 0 0 0 0 0 0 0 0 0 0 25 155 143 77 14 0 0
57 72 75 95 130 205 253 296 178 68 35 8 0 0 0 0 0 0 0 0 0 0 0 0 0 0 0 0 0 0 0 0 0 0 0 0 0 0 16 126 85 0 0
6 41 68 153 126 165 230 187 89 41 9 0 0 0 0 0 0 0 0 0 0 0 0 0 0 0 0 0 0 0 0 0 0 0 0 0 0 0 0 25 0 0 0
2 1 23 104 2 132 235 90 39 20 0 0 0 0 0 0 0 0 0 0 0 0 0 0 0 0 0 0 0 0 0 0 0 0 0 0 1 22 27 42 72 62 14
0 0 21 73 90 251 231 81 22 1 0 0 0 0 0 0 0 0 0 0 0 0 0 0 0 0 0 0 0 0 0 0 0 0 0 0 0 0 0 0 80 130 130
27 0 1 0 137 202 145 32 1 0 0 0 0 0 0 0 13 20 0 0 0 0 0 0 0 0 0 0 0 0 0 0 0 0 0 0 0 0 0 0 2 0 0
17 0 0 20 266 202 95 9 0 0 0 0 6 29 24 76 16 11 1 0 0 0 0 5 18 0 0 0 0 0 0 0 0 0 0 0 0 0 0 0 0 0 0
114 116 44 223 264 212 26 0 0 2 33 85 114 113 214 117 76 27 4 4 1 28 10 3 0 0 0 0 0 0 0 0 0 0 0 0 0 0 0 0 0 0 0
141 196 215 375 306 162 82 47 17 105 237 234 334 219 253 151 29 0 0 0 0 0 0 0 0 0 0 0 0 0 0 0 0 0 0 0 0 0 0 3 1 0 0
389 337 294 223 213 87 99 112 335 400 454 566 455 314 212 47 0 1 0 0 0 0 0 0 0 0 0 0 0 0 0 0 0 0 0 0 0 0 6 21 14 0 0
319 233 84 2 61 246 157 154 95 51 77 259 442 314 108 15 0 0 0 0 0 0 0 0 0 0 0 0 0 0 0 0 0 0 0 0 0 5 10 9 4 0 0
98 75 41 83 220 166 119 28 0 3 57 153 36 2 10 0 0 0 0 0 0 0 0 0 0 0 0 0 0 0 0 0 0 0 0 0 0 0 2 0 0 0 0
57 7 34 387 234 113 13 0 0 0 0 0 0 0 0 0 0 0 0 0 0 0 0 0 0 0 0 0 0 0 0 0 0 0 0 0 0 1 0 0 0 0 0
40 23 353 309 158 17 0 8 3 0 0 0 0 0 0 0 0 0 0 0 0 0 0 0 0 0 0 0 0 0 0 0 0 0 0 0 0 0 0 2 0 0 0
47 238 403 194 10 0 13 0 0 0 0 0 0 0 0 0 0 0 0 0 0 0 0 0 0 0 0 0 0 0 0 0 0 0 0 0 0 0 0 0 0 0 0
246 484 418 187 0 43 0 0 0 0 0 0 0 0 0 0 0 0 0 0 0 0 0 0 0 0 0 0 0 0 0 0 0 0 0 0 0 0 0 0 0 0 0
342 495 440 318 149 101 0 0 0 0 0 0 0 0 0 0 0 0 0 0 0 0 0 0 0 0 0 0 0 0 0 0 0 0 0 0 0 0 0 0 0 0 0
419 442 432 326 121 29 0 0 0 0 0 0 0 0 0 0 0 0 0 0 0 0 0 0 0 0 0 0 0 0 0 0 0 0 0 0 0 0 0 0 0 0 0
412 482 474 376 152 1 0 0 0 0 0 0 0 0 0 0 0 0 0 0 0 0 0 0 0 0 0 0 0 0 0 0 0 0 0 0 0 0 0 0 0 0 0
756 689 555 32 0 0 0 0 0 0 0 0 0 0 0 0 0 0 0 0 0 0 0 0 0 0 0 0 0 0 0 0 0 0 0 0 0 0 0 0 0 0 0
776 443 7 0 0 0 0 0 0 0 0 0 0 0 0 0 0 0 0 0 0 0 0 0 0 0 0 0 0 0 0 0 0 0 0 0 0 0 0 0 0 0 0

GFSSE_con_mlcape_018.txt.gz
CAPE
565 559 389 280 167 48 61 124 152 124 58 5 2 0 0 0 0 0 0 0 0 0 0 0 0 0 0 0 0 0 0 0 0 0 87 109 115 214 99 83 89 142 339
520 538 351 260 139 45 131 181 196 126 68 19 14 1 0 0 0 0 0 0 0 0 0 0 0 0 0 0 0 0 0 0 0 66 46 62 124 319 126 96 118 188 214
531 557 400 220 96 105 220 224 164 98 58 37 12 0 0 0 0 0 0 1 0 0 0 0 0 0 0 0 0 0 0 0 9 79 44 0 4 181 107 39 134 185 267
446 477 346 186 97 250 320 262 115 97 73 31 8 0 0 0 0 8 13 8 10 0 0 0 0 0 0 0 0 0 0 10 58 44 0 0 0 0 0 0 0 0 0
213 258 253 129 210 405 385 247 108 76 37 27 3 0 0 13 28 35 25 30 18 3 0 0 0 0 0 0 0 0 0 0 0 0 0 12 49 42 36 2 0 0 0
146 253 97 67 289 350 315 140 60 43 40 29 15 6 40 50 47 38 23 18 3 0 0 0 0 0 0 0 0 0 0 0 0 0 0 1 40 60 0 0 0 0 0
158 51 29 54 134 202 173 95 66 42 39 12 6 16 26 23 16 2 0 0 0 0 0 0 0 0 0 0 0 0 0 0 0 0 0 0 27 26 0 0 0 0 0
89 50 79 105 81 87 66 121 80 25 0 0 0 9 0 0 0 0 0 0 0 0 0 0 0 0 0 0 0 0 0 0 0 0 0 0 16 44 52 76 75 73 90
34 32 6 0 1 36 73 50 15 0 0 0 0 0 0 0 0 0 0 0 0 0 0 0 0 0 0 0 0 0 0 0 0 0 0 0 12 9 56 107 151 187 170
20 5 0 0 0 38 123 55 0 0 0 0 0 0 0 0 0 0 0 0 0 0 0 0 0 0 0 0 0 0 0 0 0 0 0 0 0 0 0 0 0 0 0
0 1 0 4 42 114 142 17 0 0 0 0 0 0 0 3 1 0 0 0 0 0 0 0 0 0 0 0 0 0 0 0 0 0 0 0 0 0 0 0 0 0 0
0 1 6 0 35 148 70 4 0 0 0 0 0 0 0 0 6 2 0 0 0 6 0 0 0 0 0 0 0 0 0 0 0 0 0 0 0 0 0 0 0 0 0
0 0 0 21 76 126 21 0 0 0 0 0 5 8 42 3 10 1 1 0 0 0 0 0 0 0 0 0 0 0 0 0 0 0 0 0 0 0 0 0 8 5 0
0 0 0 48 168 60 0 0 0 2 19 116 111 98 21 0 0 0 0 0 0 0 0 0 0 0 0 0 0 0 0 0 0 0 0 0 0 0 3 6 25 9 0
82 10 3 122 176 22 0 0 6 104 261 284 250 119 7 0 0 0 0 0 0 0 0 0 0 0 0 0 0 0 0 0 0 0 0 0 0 0 20 49 16 0 0
161 156 163 173 127 18 16 20 71 250 295 242 159 31 0 0 0 0 0 0 0 0 0 0 0 0 0 0 0 0 0 0 0 0 0 0 0 0 7 9 0 0 0
265 209 166 157 147 55 52 5 81 253 103 62 29 1 0 0 0 0 0 0 0 0 0 0 0 0 0 0 0 0 0 0 0 0 0 0 0 0 0 0 0 0 0
277 116 33 157 78 40 0 0 0 7 0 0 0 0 0 0 0 0 0 0 0 0 0 0 0 0 0 0 0 0 0 0 0 0 0 0 0 0 0 0 0 0 0
231 106 202 163 75 8 0 0 0 0 0 0 0 0 0 0 0 0 0 0 0 0 0 0 0 0 0 0 0 0 0 0 0 0 0 0 0 0 0 0 0 0 0
114 82 257 89 1 0 0 0 0 0 0 0 0 0 0 0 0 0 0 0 0 0 0 0 0 0 0 0 0 0 0 0 0 0 0 0 0 0 0 0 0 0 0
39 148 313 131 0 0 0 0 0 0 0 0 0 0 0 0 0 0 0 0 0 0 0 0 0 0 0 0 0 0 0 0 0 0 0 0 0 0 0 0 0 0 0
88 285 332 106 7 0 0 0 0 0 0 0 0 0 0 0 0 0 0 0 0 0 0 0 0 0 0 0 0 0 0 0 0 0 0 0 0 0 0 0 0 0 0
239 415 351 63 0 0 0 0 0 0 0 0 0 0 0 0 0 0 0 0 0 0 0 0 0 0 0 0 0 0 0 0 0 0 0 0 0 0 0 0 0 0 0
416 483 425 203 7 29 0 0 0 0 0 0 0 0 0 0 0 0 0 0 0 0 0 0 0 0 0 0 0 0 0 0 0 0 0 0 0 0 0 0 0 0 0
428 471 418 291 158 0 0 0 0 0 0 0 0 0 0 0 0 0 0 0 0 0 0 0 0 0 0 0 0 0 0 0 0 0 0 0 0 0 0 0 0 0 0
316 419 357 76 10 0 0 0 0 0 0 0 0 0 0 0 0 0 0 0 0 0 0 0 0 0 0 0 0 0 0 0 0 0 0 0 0 0 0 0 0 0 0

GFSSE_con_mlcape_024.txt.gz
CAPE
553 594 295 214 150 83 40 39 28 17 0 0 1 0 0 0 0 0 0 0 0 0 0 0 0 0 0 0 0 0 0 0 0 184 13 1 2 21 14 33 23 89 110
650 636 314 181 58 57 29 7 13 2 2 0 0 0 0 0 0 0 0 0 0 0 0 0 0 18 23 0 0 0 0 0 0 0 0 0 0 0 0 0 0 0 8
679 636 277 169 191 149 103 57 7 1 4 0 0 0 1 0 1 1 0 0 2 0 0 0 0 35 48 9 27 40 0 0 0 0 0 0 0 0 0 0 0 0 0
701 596 346 444 366 144 104 80 26 7 6 7 7 13 22 9 12 19 0 0 0 0 0 0 0 0 0 9 26 0 0 0 0 0 0 0 0 0 0 0 0 0 0
672 533 421 455 370 220 106 24 58 30 7 29 34 45 44 48 30 4 2 9 10 4 0 0 0 0 0 0 0 0 0 0 0 0 0 0 0 0 0 0 0 0 0
648 453 311 262 265 194 98 90 81 42 23 47 75 86 117 92 80 8 8 16 16 13 0 0 0 0 0 0 0 0 0 0 0 0 0 0 0 0 0 0 0 0 0
449 264 179 68 131 152 166 136 100 12 28 86 160 173 162 164 67 5 4 10 2 0 0 0 0 0 0 0 0 0 0 0 0 0 0 0 0 3 2 1 1 0 0
40 25 121 77 55 27 125 135 39 109 100 208 252 259 222 89 24 5 5 1 0 0 0 0 0 0 0 0 0 0 0 0 0 0 0 0 0 2 2 1 19 16 5
0 0 1 0 8 19 80 97 108 78 184 218 272 184 59 18 1 0 0 0 0 0 0 0 0 0 0 0 0 0 0 0 0 0 0 0 0 0 0 0 0 3 18
1 3 3 0 1 56 96 123 65 75 119 149 55 20 10 4 4 0 0 0 0 0 0 0 0 0 0 0 0 0 0 0 0 0 0 0 0 9 0 0 0 0 0
0 0 3 0 0 0 55 34 34 73 72 27 23 25 7 2 0 0 0 0 0 0 0 0 0 0 0 0 0 0 0 0 0 0 0 0 0 14 8 0 0 0 0
2 0 0 0 0 0 2 71 3 4 6 12 6 5 0 0 0 0 0 0 0 0 0 0 0 0 0 0 0 0 0 0 0 0 0 0 0 0 17 3 6 11 9
1 1 3 0 0 0 26 58 1 0 0 0 0 0 2 1 0 0 0 0 0 0 0 0 0 0 0 0 0 0 0 0 0 0 0 0 0 0 15 45 29 11 7
0 0 0 0 13 45 61 4 0 0 0 0 0 1 8 0 0 0 0 0 0 0 0 0 0 0 0 0 0 0 0 0 0 0 0 0 0 0 2 62 39 18 0
0 0 0 0 24 133 35 0 0 0 0 0 0 2 0 0 0 0 0 0 0 0 0 0 0 0 0 0 0 0 0 0 0 0 0 0 0 1 13 61 18 7 8
2 0 0 0 76 189 0 0 0 0 0 0 16 6 0 0 0 0 0 0 0 0 0 0 0 0 0 0 0 0 0 0 0 0 0 0 0 0 0 2 0 2 9
0 0 0 0 139 179 0 0 0 0 100 115 37 0 0 0 0 0 0 0 0 0 0 0 0 0 0 0 0 0 0 0 0 0 0 0 0 0 0 0 0 0 0
5 5 0 56 142 167 0 0 0 77 95 61 20 0 0 0 0 0 0 0 0 0 0 0 0 0 0 0 0 0 0 0 0 0 0 0 0 0 0 0 0 0 0
26 59 63 91 146 88 0 0 0 68 46 7 0 0 0 0 0 0 0 0 0 0 0 0 0 0 0 0 0 0 0 0 0 0 0 0 0 0 0 0 0 0 0
153 106 125 145 118 48 5 0 0 8 0 0 0 0 0 0 0 0 0 0 0 0 0 0 0 0 0 0 0 0 0 0 0 0 0 0 0 0 0 0 0 0 0
240 144 138 144 63 65 9 7 6 34 0 0 0 0 0 0 0 0 0 0 0 0 0 0 0 0 0 0 0 0 0 0 0 0 0 0 0 0 0 0 0 0 0
287 210 148 179 91 56 16 0 0 0 0 0 0 0 0 0 0 0 0 0 0 0 0 0 0 0 0 0 0 0 0 0 0 0 0 0 0 0 0 0 0 0 0
308 232 222 138 44 12 0 0 0 0 0 0 0 0 0 0 0 0 0 0 0 0 0 0 0 0 0 0 0 0 0 0 0 0 0 0 0 0 0 0 0 0 0
291 217 212 56 19 0 0 0 0 0 0 0 0 0 0 0 0 0 0 0 0 0 0 0 0 0 0 0 0 0 0 0 0 0 0 0 0 0 0 0 0 0 0
258 236 245 99 25 1 0 0 0 0 0 0 0 0 0 0 0 0 0 0 0 0 0 0 0 0 0 0 0 0 0 0 0 0 0 0 0 0 0 0 0 0 0
167 191 203 143 70 1 0 0 0 0 0 0 0 0 0 0 0 0 0 0 0 0 0 0 0 0 0 0 0 0 0 0 0 0 0 0 0 0 0 0 0 0 0

GFSSE_con_mlcape_027.txt.gz
CAPE
494 296 340 133 65 88 114 99 36 11 4 0 0 0 0 0 0 0 0 0 0 0 0 28 26 36 12 95 23 0 2 83 54 0 0 0 0 0 0 0 0 9 95
618 345 453 216 62 27 25 11 6 0 3 10 6 7 0 1 0 0 0 0 0 10 67 117 97 42 64 97 0 0 0 0 0 0 0 0 0 0 0 0 0 0 0
651 433 432 407 252 143 65 35 24 12 23 10 37 29 24 32 7 9 8 0 0 17 190 265 171 121 151 55 0 0 0 0 0 0 0 0 0 0 0 0 0 0 0
699 439 316 475 316 268 191 159 127 67 13 20 50 45 66 63 40 27 13 4 0 0 90 138 246 238 175 5 0 0 0 0 0 0 0 0 0 0 0 0 0 0 0
683 493 429 434 345 256 173 92 58 44 54 50 66 54 82 68 72 73 53 25 3 0 0 2 6 17 0 0 0 0 0 0 0 0 0 0 0 1 2 1 0 0 0
743 599 419 273 160 261 154 103 63 51 36 79 66 64 110 80 88 107 81 55 27 0 0 0 0 0 0 0 0 0 0 0 0 0 0 0 0 5 9 7 8 7 10
658 489 270 169 86 171 277 117 55 26 52 86 107 126 125 102 95 82 81 83 44 0 0 0 0 0 0 0 0 0 0 0 0 0 0 0 5 6 5 5 4 6 8
355 294 296 66 26 23 199 75 67 87 120 146 144 151 121 83 30 12 9 1 0 0 0 0 0 0 0 0 0 0 0 0 0 0 0 0 0 2 1 2 13 33 30
101 51 0 6 0 9 55 99 148 233 216 203 205 149 83 41 18 5 0 0 0 0 0 0 0 0 0 0 0 0 0 0 0 0 0 0 0 1 0 0 0 0 1
3 3 3 0 0 0 47 224 271 244 253 202 187 100 24 21 9 0 0 0 0 0 0 0 0 0 0 0 0 0 0 0 0 0 0 1 7 3 0 0 0 0 0
3 3 2 2 0 5 65 212 251 221 224 225 98 17 14 58 17 0 0 0 0 0 0 0 0 0 0 0 0 0 0 0 0 0 0 0 0 16 9 3 4 10 13
4 3 0 0 0 0 1 52 121 151 44 30 45 27 10 6 0 0 0 0 0 0 0 0 0 0 0 0 0 0 0 0 0 0 0 0 0 6 28 23 21 17 12
3 2 0 0 0 0 0 0 1 0 18 26 18 16 4 0 0 0 0 0 0 0 0 0 0 0 0 0 0 0 0 0 0 0 0 0 0 0 40 29 11 0 0
5 5 0 0 0 0 0 75 9 8 16 7 0 0 1 0 0 0 0 0 0 0 0 0 0 0 0 0 0 0 0 0 0 0 0 0 0 0 14 38 3 3 0
5 4 2 0 0 10 51 75 0 0 0 0 16 59 28 0 0 0 0 0 0 0 0 0 0 0 0 0 0 0 0 0 0 0 0 0 0 1 34 30 5 8 5
2 4 2 11 57 39 136 0 0 0 0 0 0 10 0 0 0 0 0 0 0 0 0 0 0 0 0 0 0 0 0 0 0 0 0 0 0 0 1 0 0 7 14
0 3 2 0 102 248 142 0 0 0 0 1 33 14 0 0 0 0 0 0 0 0 0 0 0 0 0 0 0 0 0 0 0 0 0 0 0 0 0 0 0 0 0
0 0 0 0 45 315 140 0 0 0 52 147 35 1 0 0 0 0 0 0 0 0 0 0 0 0 0 0 0 0 0 0 0 0 0 0 0 0 0 0 0 0 0
51 20 0 1 51 305 144 0 0 27 202 108 23 0 0 0 0 0 0 0 0 0 0 0 0 0 0 0 0 0 0 0 0 0 0 0 0 0 0 0 0 0 0
66 82 64 36 135 218 80 0 1 48 37 24 13 0 0 0 0 0 0 0 0 0 0 0 0 0 0 0 0 0 0 0 0 0 0 0 0 0 0 0 0 0 0
48 90 117 124 152 164 35 4 26 95 47 0 0 0 0 0 0 0 0 0 0 0 0 0 0 0 0 0 0 0 0 0 0 0 0 0 0 0 0 0 0 0 0
152 172 200 188 188 170 94 45 54 12 0 0 0 0 0 0 0 0 0 0 0 0 0 0 0 0 0 0 0 0 0 0 0 0 0 0 0 0 0 0 0 0 0
235 300 306 256 218 178 124 5 0 0 0 0 0 0 0 0 0 0 0 0 0 0 0 0 0 0 0 0 0 0 0 0 0 0 0 0 0 0 0 0 0 0 0
207 302 340 212 136 125 29 19 13 39 0 0 0 0 0 0 0 0 0 0 0 0 0 0 0 0 0 0 0 0 0 0 0 0 0 0 0 0 0 0 0 0 0
255 290 384 252 135 82 4 1 0 0 0 0 0 0 0 0 0 0 0 0 0 0 0 0 0 0 0 0 0 0 0 0 0 0 0 0 0 0 0 0 0 0 0
367 334 410 334 196 76 0 0 0 0 0 0 0 0 0 0 0 0 0 0 0 0 0 0 0 0 0 0 0 0 0 0 0 0 0 0 0 0 0 0 0 0 0

GFSSE_con_mlcape_030.txt.gz
CAPE
474 252 644 736 820 773 605 410 259 83 14 0 0 0 0 0 0 0 0 0 0 31 58 76 105 218 2 0 80 41 26 58 0 0 0 0 0 0 0 0 3 10 79
541 156 636 699 777 728 546 333 150 43 0 0 8 0 0 2 6 0 7 0 98 133 138 112 227 94 0 0 0 0 0 0 0 0 0 0 0 0 0 0 0 0 0
545 131 389 625 655 557 379 153 40 1 0 15 3 1 24 46 23 31 0 112 290 334 196 147 183 40 0 0 0 0 0 0 0 0 0 0 0 0 0 0 0 0 0
639 267 69 529 434 320 174 77 52 16 55 46 27 58 81 73 45 13 5 116 392 406 266 242 199 0 0 0 0 0 0 0 0 0 0 0 0 0 1 0 0 0 0
848 418 365 395 270 155 55 68 51 66 114 80 125 123 119 74 57 38 41 54 198 252 325 293 36 0 0 0 0 0 0 0 0 1 1 9 12 9 7 3 14 7 0
850 642 463 365 269 170 112 125 80 124 133 152 179 161 138 118 128 82 85 60 32 89 98 50 0 0 0 0 0 0 0 0 0 0 3 4 9 13 12 12 17 12 17
842 774 480 336 362 258 179 111 163 135 120 181 198 174 169 196 199 169 122 61 0 0 7 0 0 0 0 0 0 0 0 0 0 0 4 7 11 7 6 5 18 27 17
827 589 421 212 165 190 167 101 106 100 167 214 189 204 211 223 182 121 89 14 0 0 0 0 0 0 0 0 0 0 0 0 0 0 0 2 0 1 2 1 3 5 9
352 156 36 1 3 30 56 71 162 200 210 237 217 208 144 130 75 55 8 0 0 0 0 0 0 0 0 0 0 0 0 0 0 0 0 2 0 0 0 0 0 2 2
2 2 1 0 0 0 33 192 282 262 262 216 180 97 86 23 12 7 0 0 0 0 0 0 0 0 0 0 0 0 0 0 0 0 0 2 11 0 0 0 1 1 1
2 3 3 0 6 3 16 90 291 342 251 174 109 72 29 18 2 0 0 0 0 0 0 0 0 0 0 0 0 0 0 0 0 0 0 0 15 14 3 0 7 1 2
3 3 0 0 0 0 8 27 263 295 171 181 133 83 72 73 12 0 0 0 0 0 0 0 0 0 0 0 0 0 0 0 0 0 0 0 0 31 24 23 20 7 0
4 3 2 1 5 0 6 109 196 159 155 164 98 65 89 98 38 54 13 0 0 0 0 0 0 0 0 0 0 0 0 0 0 0 0 0 0 2 39 21 14 17 13
3 4 4 0 0 0 0 3 32 46 59 81 59 92 117 54 45 7 4 0 0 0 0 0 0 0 0 0 0 0 0 0 0 0 0 0 0 0 71 27 5 11 11
3 2 0 0 0 0 0 1 36 99 72 31 20 40 24 0 13 3 0 0 0 0 0 0 0 0 0 0 0 0 0 0 0 0 0 0 0 6 59 42 27 16 8
6 2 0 0 0 4 16 65 17 26 0 8 100 215 176 14 8 0 0 0 0 0 0 0 0 0 0 0 0 0 0 0 0 0 0 0 0 0 0 0 13 23 6
11 2 0 11 28 0 65 150 0 1 2 48 252 367 247 36 0 0 0 0 0 0 0 0 0 0 0 0 0 0 0 0 0 0 0 0 0 0 0 0 0 0 0
12 8 9 29 40 48 127 89 0 0 21 170 354 402 188 23 0 0 0 0 0 0 0 0 0 0 0 0 0 0 0 0 0 0 0 0 0 0 0 0 0 0 0
0 1 7 16 83 242 369 75 0 31 247 530 560 426 144 8 0 0 0 0 0 0 0 0 0 0 0 0 0 0 0 0 0 0 0 0 0 0 0 0 0 0 0
17 31 54 127 281 475 401 76 1 128 446 654 591 374 59 0 0 0 0 0 0 0 0 0 0 0 0 0 0 0 0 0 0 0 0 0 0 0 0 0 0 0 0
220 137 133 132 216 470 365 49 14 186 443 591 576 302 25 0 0 0 0 0 0 0 0 0 0 0 0 0 0 0 0 0 0 0 0 0 0 0 0 0 0 0 0
218 299 301 316 392 486 282 45 61 170 396 593 407 203 7 0 0 0 0 0 0 0 0 0 0 0 0 0 0 0 0 0 0 0 0 0 0 0 0 0 0 0 0
178 241 308 379 453 460 275 82 251 362 177 289 76 22 9 0 0 0 0 0 0 0 0 0 0 0 0 0 0 0 0 0 0 0 0 0 0 0 0 0 0 0 0
360 306 381 369 450 548 465 293 192 219 294 208 41 13 0 0 0 0 0 0 0 0 0 0 0 0 0 0 0 0 0 0 0 0 0 0 0 0 0 0 0 0 0
633 514 635 644 598 572 589 411 303 360 417 425 14 0 0 0 0 0 0 0 0 0 0 0 0 0 0 0 0 0 0 0 0 0 0 0 0 0 0 0 0 0 0
902 762 679 814 741 596 637 555 473 478 546 185 0 0 0 0 0 0 0 0 0 0 0 0 0 0 0 0 0 0 0 0 0 0 0 0 0 0 0 0 0 0 0

GFSSE_con_mlcape_033.txt.gz
CAPE
648 697 1085 1199 1034 868 739 569 365 102 0 0 0 0 0 0 0 0 0 37 68 54 147 169 0 0 16 0 4 18 0 0 0 0 0 0 0 0 0 0 1 19 33
761 736 1102 1213 1106 948 786 511 236 27 0 0 0 4 5 7 5 17 34 103 167 149 310 54 0 0 0 0 0 0 0 0 0 0 0 0 0 0 0 0 0 2 3
720 825 1189 1170 1085 904 650 358 115 0 0 6 16 22 24 31 62 76 148 233 245 234 239 2 0 0 0 0 0 0 0 0 0 6 3 0 0 2 1 4 7 0 1
578 771 1229 1084 939 712 522 222 27 1 20 29 59 78 90 99 95 189 451 560 372 321 202 16 0 0 0 0 0 0 0 0 0 21 13 5 0 8 11 2 0 7 2
418 560 1097 933 816 633 350 137 40 88 34 68 138 150 166 132 110 250 526 593 485 440 192 3 0 0 0 0 0 0 0 0 0 1 1 3 3 11 1 4 16 10 11
214 426 779 821 665 439 235 99 105 61 83 176 208 201 219 153 139 145 264 399 501 421 72 17 0 0 0 0 0 0 0 0 8 18 7 0 2 8 9 12 18 34 21
193 826 645 586 461 308 116 125 122 86 200 290 241 246 238 176 150 109 109 171 197 150 7 0 0 0 0 0 0 0 0 0 0 7 4 2 4 2 4 4 6 1 0
674 656 571 445 353 261 142 137 122 138 262 302 291 370 316 242 196 93 20 34 84 12 0 0 0 0 0 0 0 0 0 0 0 5 6 0 1 2 2 3 2 3 3
427 283 304 156 195 244 151 151 144 207 271 329 409 307 154 125 92 36 0 0 0 0 0 0 0 0 0 0 0 0 0 0 0 0 4 0 0 0 1 3 5 3 2
101 17 0 16 51 115 126 204 232 221 333 345 297 182 122 85 43 14 0 0 0 0 0 0 0 0 0 0 0 0 0 0 0 0 0 1 3 0 1 2 4 4 4
2 2 0 0 5 43 65 207 280 340 287 265 177 48 50 44 48 84 73 0 0 0 0 0 0 0 0 0 0 0 0 0 0 0 0 0 11 9 5 8 10 6 4
2 2 2 0 0 0 0 5 19 21 12 149 75 127 95 84 157 97 55 1 0 0 0 0 0 0 0 0 0 0 0 0 0 0 0 0 11 30 25 20 14 8 7
3 2 2 0 0 0 0 0 0 64 155 173 218 207 234 196 135 139 28 0 0 0 0 0 0 0 0 0 0 0 0 0 0 0 0 0 0 23 26 18 10 12 6
4 3 5 5 0 0 0 0 37 36 131 193 214 254 210 200 232 226 87 6 0 0 0 0 0 0 0 0 0 0 0 0 0 0 0 0 0 0 37 14 12 11 2
1 1 1 0 0 0 2 1 42 60 99 107 158 175 155 214 199 146 94 13 0 0 0 0 0 0 0 0 0 0 0 0 0 0 0 0 0 1 43 26 12 9 3
2 0 0 0 0 0 0 0 39 100 26 72 86 107 143 110 176 140 77 0 0 0 0 0 0 0 0 0 0 0 0 0 0 0 0 0 0 0 0 5 15 15 4
0 0 0 0 0 0 0 0 7 0 23 71 65 224 242 87 172 119 65 0 0 0 0 0 0 0 0 0 0 0 0 0 0 0 0 0 0 0 0 0 0 0 0
0 0 0 0 2 0 1 19 71 50 60 49 212 458 415 296 222 130 34 0 0 0 0 0 0 0 0 0 0 0 0 0 0 0 0 0 0 0 0 0 0 0 0
0 0 2 6 0 21 69 145 59 34 117 112 322 494 513 359 190 144 59 0 0 0 0 0 0 0 0 0 0 0 0 0 0 0 0 0 0 0 0 0 0 0 0
26 2 21 46 44 40 169 189 16 0 21 147 546 613 602 381 162 126 47 0 0 0 0 0 0 0 0 0 0 0 0 0 0 0 0 0 0 0 0 0 0 0 0
13 1 4 22 48 143 179 96 2 0 43 356 575 652 545 330 143 80 17 0 0 0 0 0 0 0 0 0 0 0 0 0 0 0 0 0 0 0 0 0 0 0 0
113 118 74 53 125 186 80 89 0 0 45 330 569 596 559 417 120 47 6 0 0 0 0 0 0 0 0 0 0 0 0 0 0 0 0 0 0 0 0 0 0 0 0
236 187 183 191 224 302 232 141 1 0 124 295 493 578 572 401 142 24 1 0 0 0 0 0 0 0 0 0 0 0 0 1 0 0 0 0 0 0 0 0 0 0 0
208 323 308 286 278 328 311 158 8 66 118 342 455 514 478 380 145 22 0 0 0 0 0 0 0 0 0 0 0 0 0 0 0 0 0 0 0 0 0 0 0 0 0
238 253 355 368 398 423 495 347 131 225 267 319 432 507 369 343 117 6 0 0 0 0 0 0 0 0 0 0 0 0 0 0 0 0 0 0 0 0 0 0 0 0 0
441 452 444 417 381 446 559 610 531 466 417 397 652 481 351 104 1 0 0 0 0 0 0 0 0 0 0 0 0 0 0 0 0 0 0 0 0 0 0 0 0 0 0

GFSSE_con_mlcape_036.txt.gz
CAPE
941 1128 1193 959 854 758 628 469 257 41 0 0 0 0 0 0 0 57 74 87 204 38 0 0 0 0 0 0 0 0 0 0 0 0 0 0 0 0 0 0 1 5 59
1147 1406 1301 1103 984 871 681 463 171 9 0 0 0 0 0 9 26 62 114 126 304 0 0 0 0 0 0 0 0 0 0 0 0 0 0 1 3 9 6 0 0 1 3
1206 1611 1419 1206 1050 943 658 363 122 32 8 0 0 0 2 48 96 155 177 238 262 0 0 0 0 0 0 0 0 0 0 4 28 28 0 0 15 8 4 14 8 4 4
1324 1645 1495 1168 974 848 549 280 138 98 32 0 0 16 95 156 196 220 276 300 178 0 0 0 0 0 0 0 0 0 0 0 20 21 0 0 3 23 21 7 11 11 8
1103 1318 1366 1123 938 735 424 216 197 156 30 18 101 179 165 380 571 539 379 413 236 76 0 0 0 0 0 0 0 0 0 0 0 0 0 0 3 10 2 13 12 14 17
341 1046 1056 978 766 524 339 307 237 88 140 145 247 226 203 545 694 609 586 510 242 93 0 0 0 0 0 0 0 0 0 1 0 0 0 0 0 8 9 7 6 9 7
3 870 802 752 604 437 362 259 143 188 183 309 356 248 221 318 468 598 677 465 137 81 0 0 0 0 0 0 0 0 0 0 0 0 0 0 0 4 7 4 2 1 1
50 491 580 591 478 297 231 224 269 342 383 395 294 338 266 195 253 317 367 225 89 11 0 0 0 0 0 0 0 0 0 0 4 0 0 0 0 1 2 3 2 1 1
0 124 216 277 347 259 282 280 276 311 320 434 446 263 158 113 120 199 210 100 14 0 0 0 0 0 0 0 0 0 0 0 0 0 0 0 0 4 8 6 6 3 3
1 56 20 45 138 228 235 293 386 413 409 285 239 155 112 74 30 47 91 36 1 0 0 0 0 0 0 0 0 0 0 0 0 0 0 0 0 4 2 3 5 5 4
2 8 8 8 40 73 124 201 223 274 253 199 141 81 42 34 11 33 25 27 8 0 0 0 0 0 0 0 0 0 0 0 0 0 0 5 8 8 3 2 1 2 6
2 4 0 0 2 4 23 75 60 191 162 76 23 53 104 124 147 71 34 34 8 0 0 0 0 0 0 0 0 0 0 0 0 0 0 0 10 18 14 11 1 1 2
2 2 1 0 0 0 0 0 6 58 80 76 154 143 170 195 145 109 24 0 0 0 0 0 0 0 0 0 0 0 0 0 0 0 0 0 0 19 15 9 11 12 3
2 4 3 0 0 0 0 0 0 0 100 178 214 243 277 276 166 40 27 12 0 0 0 0 0 0 0 0 0 0 0 0 0 0 0 0 0 9 24 15 17 10 4
3 2 0 0 0 0 0 0 0 1 104 137 262 283 265 233 257 96 114 31 0 0 0 0 0 0 0 0 0 0 0 0 0 0 0 0 0 48 40 26 25 10 2
0 0 0 0 0 0 2 11 0 45 55 105 166 210 165 266 236 223 259 125 37 0 0 0 0 0 0 0 0 0 0 0 0 0 0 0 0 0 6 21 30 17 6
0 0 0 0 0 6 0 6 20 22 0 12 101 116 205 96 139 239 111 58 47 0 0 0 0 0 0 0 0 0 0 0 0 0 0 0 0 0 0 0 0 0 0
0 0 0 0 0 0 0 0 0 0 8 32 52 149 126 178 176 271 150 70 6 0 0 0 0 0 0 0 0 0 0 0 0 0 0 0 0 0 0 0 0 0 0
0 0 0 0 0 0 0 0 0 4 55 106 83 367 323 422 265 230 205 70 7 0 0 0 0 0 0 0 0 0 0 0 0 0 0 0 0 0 0 0 0 0 0
0 0 0 0 0 0 0 0 0 13 8 1 23 362 257 361 345 230 271 62 0 0 0 0 0 0 0 0 0 0 0 0 0 0 0 0 0 0 0 0 0 0 0
0 0 0 0 0 2 0 0 65 0 0 0 59 384 401 395 308 234 241 15 0 0 0 0 0 0 0 0 0 0 0 0 0 0 0 0 0 0 0 0 0 0 0
0 0 0 0 0 2 3 58 63 0 0 0 258 380 287 248 232 220 176 24 2 0 0 0 0 0 0 0 0 0 0 0 0 0 0 0 0 0 0 0 0 0 0
3 0 14 50 20 9 48 58 95 4 0 0 362 357 406 449 399 151 106 66 13 0 0 0 0 0 0 0 0 0 0 0 0 0 0 0 0 0 0 0 0 0 0
129 37 14 0 0 37 112 65 113 0 0 26 439 525 454 493 470 239 118 62 6 1 0 0 0 0 0 0 0 0 0 0 0 0 0 0 0 0 0 0 0 0 0
270 235 170 160 161 192 245 272 207 2 0 7 343 454 583 555 494 239 186 19 4 0 0 0 0 0 0 0 0 0 0 0 0 0 0 0 0 0 0 0 0 0 0
301 375 431 293 314 280 349 278 314 41 49 217 368 399 476 368 319 300 63 0 0 0 0 0 0 0 0 0 0 0 0 0 0 0 0 0 0 0 0 0 0 0 0

GFSSE_con_mlcape_039.txt.gz
CAPE
480 1263 1075 758 847 588 424 225 123 24 1 0 0 0 29 115 98 183 190 0 0 0 0 0 0 0 0 0 0 0 0 0 0 0 0 1 0 0 0 0 0 7 28
117 732 994 1072 938 737 435 227 74 46 21 3 4 49 168 192 79 347 22 0 0 0 0 0 0 0 0 0 0 5 0 0 0 0 0 2 9 12 3 1 0 1 4
0 0 947 1098 1075 734 386 136 111 73 7 11 56 140 247 253 170 442 9 0 0 0 0 0 0 0 0 0 0 0 9 13 4 0 0 10 8 16 23 6 4 5 6
0 61 795 968 1063 644 316 259 191 53 31 94 135 207 276 269 368 458 0 0 0 0 0 0 0 0 0 0 0 0 0 0 0 0 0 0 14 20 17 23 22 19 10
147 809 982 835 1022 519 284 298 153 48 63 133 225 321 343 371 506 328 35 44 0 0 0 0 0 0 0 0 0 0 0 0 0 0 0 0 7 8 18 16 16 23 22
601 706 813 843 771 504 391 316 107 128 165 234 332 539 724 732 549 348 122 109 5 0 0 0 0 0 0 0 0 0 0 0 0 0 0 0 0 7 7 11 10 9 6
443 570 557 735 520 382 425 363 263 146 220 243 530 788 891 803 711 530 181 99 5 0 0 0 0 0 0 0 0 0 0 0 0 0 0 0 0 3 5 5 5 6 6
60 38 0 307 376 278 112 86 469 511 330 294 481 709 863 885 829 403 134 66 1 0 0 0 0 0 0 0 0 0 0 0 0 0 0 0 2 6 4 4 5 3 3
282 340 228 214 236 46 1 5 295 461 326 330 302 379 492 587 581 232 105 8 0 0 0 0 0 0 0 0 0 0 0 0 0 0 0 0 5 8 8 4 5 5 5
131 87 163 99 104 202 126 285 419 380 162 72 38 81 143 235 273 178 75 16 0 0 0 0 0 0 0 0 0 0 0 0 0 0 0 0 5 11 16 12 12 8 7
35 66 51 59 70 66 33 255 415 250 111 72 17 0 6 43 96 81 42 13 0 0 0 0 0 0 0 0 0 0 0 0 0 0 0 0 6 9 14 8 6 8 10
41 25 1 0 1 0 0 76 199 98 36 11 1 0 0 4 22 54 55 24 3 0 0 0 0 0 0 0 0 0 0 0 0 0 0 0 11 15 15 11 10 10 6
3 0 0 0 0 2 2 3 48 47 7 17 30 20 63 59 13 32 50 24 0 0 0 0 0 0 0 0 0 0 0 0 0 0 0 0 13 15 12 6 11 11 8
1 2 1 0 0 0 0 0 17 10 19 36 52 97 96 80 18 8 2 0 0 0 0 0 0 0 0 0 0 0 0 0 0 0 0 0 0 5 9 8 8 6 3
4 4 3 0 0 0 0 1 3 5 55 85 138 126 145 58 35 29 1 0 0 0 0 0 0 0 0 0 0 0 0 0 0 0 0 0 0 8 21 23 8 8 2
2 0 3 0 0 0 0 0 0 10 35 12 117 115 147 142 37 20 40 0 0 0 0 0 0 0 0 0 0 0 0 0 0 0 0 0 0 16 22 32 15 6 1
2 1 2 0 0 0 0 0 0 2 5 13 42 101 108 126 145 165 112 38 2 0 0 0 0 0 0 0 0 0 0 0 0 0 0 0 0 0 0 1 0 0 0
1 0 0 0 0 0 0 0 0 0 0 0 0 48 76 101 118 124 61 31 0 0 0 0 0 0 0 0 0 0 0 0 0 0 0 0 0 0 0 0 0 0 0
0 0 0 0 0 0 0 0 0 0 0 0 0 0 26 114 71 82 73 26 0 0 0 0 0 0 0 0 0 0 0 0 0 0 0 0 0 0 0 0 0 0 0
0 0 0 0 0 0 0 0 0 0 0 0 1 12 12 89 189 137 98 63 0 0 0 0 0 0 0 0 0 0 0 0 0 0 0 0 0 0 0 0 0 0 0
0 0 0 0 0 0 0 0 0 0 0 0 4 37 130 148 237 188 116 100 0 0 0 0 0 0 0 0 0 0 0 0 0 0 0 0 0 0 0 0 0 0 0
0 0 0 0 0 0 0 0 0 0 0 0 0 0 111 206 206 194 82 19 0 0 0 0 0 0 0 0 0 0 0 0 0 0 0 0 0 0 0 0 0 0 0
0 0 0 0 0 0 0 0 0 0 0 0 0 0 96 170 102 87 71 7 0 0 0 0 0 0 0 0 0 0 0 0 0 0 0 0 0 0 0 0 0 0 0
0 0 0 0 0 0 0 0 0 0 0 0 0 18 109 171 55 57 114 50 0 0 0 0 0 0 0 0 0 0 0 0 0 0 0 0 0 0 0 0 0 0 0
0 0 0 0 0 0 0 0 0 0 0 0 0 0 73 122 176 182 59 24 0 0 0 0 0 0 0 0 0 0 0 0 0 0 0 0 0 0 0 0 0 0 0
0 0 0 0 0 0 0 0 4 5 0 0 0 77 181 235 235 167 90 30 5 0 0 0 0 0 0 0 0 0 0 0 0 0 0 0 0 0 0 0 0 0 0

GFSSE_con_mlcape_042.txt.gz
CAPE
1016 837 853 544 296 569 141 20 8 29 40 112 244 289 405 324 115 89 56 5 0 0 0 0 0 0 0 0 0 0 0 0 0 0 1 2 2 6 8 8 14 31 30
786 868 611 645 789 434 44 2 4 12 24 202 242 359 514 259 123 94 24 2 0 0 0 0 0 0 0 0 0 0 0 0 0 0 7 11 4 4 4 1 4 18 30
606 870 432 312 736 426 92 14 5 46 228 309 251 399 559 194 68 39 9 0 0 0 0 0 0 0 0 12 16 6 1 0 0 0 0 0 6 10 14 6 9 5 16
434 496 112 295 691 353 237 116 76 147 276 403 338 463 615 187 94 37 0 0 0 0 0 0 0 0 0 0 0 0 0 0 0 0 0 3 16 22 22 22 20 9 6
11 62 309 53 215 419 410 109 177 297 392 440 421 599 663 186 97 19 0 0 0 0 0 0 0 0 0 0 0 0 0 0 0 0 0 0 1 5 20 16 14 18 14
96 228 553 164 404 198 33 285 352 408 363 437 502 717 669 136 81 22 0 0 0 0 0 0 0 0 0 0 0 0 0 0 0 0 0 0 0 8 10 9 4 8 6
725 650 681 436 162 28 0 158 355 409 425 513 581 717 596 203 141 41 0 0 0 0 0 0 0 0 0 0 0 0 0 0 0 0 0 0 5 12 9 7 8 7 8
423 596 664 448 302 77 4 264 261 415 545 648 669 752 601 329 237 17 0 0 0 0 0 0 0 0 0 0 0 0 0 0 0 0 0 0 6 7 8 6 7 11 9
301 210 319 44 0 189 55 275 149 392 484 657 716 743 699 226 123 0 0 0 0 0 0 0 0 0 0 0 0 0 0 0 0 0 0 0 7 10 11 9 9 7 5
310 218 59 131 17 0 1 318 170 220 368 486 511 506 368 104 46 0 0 0 0 0 0 0 0 0 0 0 0 0 0 0 0 0 0 2 10 13 10 11 10 5 5
233 93 20 1 6 0 83 61 73 89 158 253 307 313 175 54 2 0 0 0 0 0 0 0 0 0 0 0 0 0 0 0 0 0 0 0 6 6 7 5 10 6 5
85 49 1 0 34 53 50 62 55 24 34 59 53 62 28 0 0 0 0 0 0 0 0 0 0 0 0 0 0 0 0 0 0 0 0 0 10 9 13 18 3 13 8
4 5 1 2 1 0 12 34 11 0 0 0 1 36 4 0 1 9 0 0 0 0 0 0 0 0 0 0 0 0 0 0 0 0 0 0 11 23 19 12 11 6 5
1 1 3 4 4 3 4 0 0 0 0 0 2 12 0 0 8 2 0 0 0 0 0 0 0 0 0 0 0 0 0 0 0 0 0 0 10 22 18 13 6 6 3
0 0 0 0 0 0 0 0 0 0 0 2 9 0 3 1 0 0 0 0 0 0 0 0 0 0 0 0 0 0 0 0 0 0 0 0 0 10 17 13 9 3 13
2 1 0 0 0 0 0 0 0 6 15 35 19 21 24 6 0 0 0 0 0 0 0 0 0 0 0 0 0 0 0 0 0 0 0 0 0 0 4 17 11 5 5
2 3 1 0 0 0 0 0 0 0 16 23 40 37 39 23 17 3 0 0 0 0 0 0 0 0 0 0 0 0 0 0 0 0 0 0 0 0 0 6 0 1 0
2 2 1 0 0 0 0 0 1 0 0 1 19 34 92 105 54 32 53 1 0 0 0 0 0 0 0 0 0 0 0 0 0 0 0 0 0 0 0 0 0 0 0
1 1 1 1 0 0 0 0 0 0 0 0 3 4 59 75 93 107 52 48 0 0 0 0 0 0 0 0 0 0 0 0 0 0 0 0 0 0 0 0 0 0 0
0 0 0 0 0 0 0 0 0 0 0 0 0 0 1 27 36 30 9 1 0 0 0 0 0 0 0 0 0 0 0 0 0 0 0 0 0 0 0 0 0 0 0
0 0 0 0 0 0 0 0 0 0 0 0 0 0 0 0 45 28 0 15 0 0 0 0 0 0 0 0 0 0 0 0 0 0 0 0 0 0 0 0 0 0 0
0 0 0 0 0 0 0 0 0 0 0 0 0 0 0 33 4 84 16 12 0 0 0 0 0 0 0 0 0 0 0 0 0 0 0 0 0 0 0 0 0 0 0
0 0 0 0 0 0 0 0 0 0 0 0 0 0 0 9 94 71 79 17 0 0 0 0 0 0 0 0 0 0 0 0 0 0 0 0 0 0 0 0 0 0 0
0 0 0 0 0 0 0 0 0 0 0 0 0 0 0 0 30 64 84 37 1 0 0 0 0 0 0 0 0 0 0 0 0 0 0 0 0 0 0 0 0 0 0
0 0 0 0 0 0 0 0 0 0 0 0 0 0 0 0 0 27 43 12 5 0 0 0 0 0 0 0 0 0 0 0 0 0 0 0 0 0 0 0 0 0 0
0 0 0 0 0 0 0 0 0 0 0 0 0 0 0 0 0 28 47 0 0 0 0 0 0 0 0 0 0 0 0 0 0 0 0 0 0 0 0 0 0 0 0

GFSSE_con_mlcape_045.txt.gz
CAPE
889 570 641 581 295 133 43 147 98 170 258 109 122 265 184 142 117 83 53 10 4 6 0 0 0 0 0 2 7 8 6 3 2 4 7 11 13 6 20 27 24 32 42
1049 789 443 185 259 419 311 224 46 174 340 368 428 254 227 199 145 54 21 12 38 11 8 2 3 1 0 0 0 0 0 0 3 7 6 9 12 12 6 1 20 36 32
1049 671 349 181 181 162 392 398 190 282 522 583 413 331 330 169 106 31 8 67 86 62 12 3 4 5 2 0 0 2 0 0 0 3 5 5 1 8 10 8 5 8 16
1161 876 669 383 197 50 45 373 590 157 420 667 490 388 280 143 15 0 8 77 102 52 16 2 2 2 1 0 0 0 0 0 0 0 3 6 21 25 17 17 10 9 11
827 842 535 457 207 96 38 99 545 475 493 781 486 347 185 42 0 0 0 23 42 12 0 0 0 0 0 0 0 0 0 0 0 0 0 0 3 8 19 18 6 4 9
604 654 649 394 104 46 11 61 450 423 511 825 431 286 84 3 0 0 0 0 3 0 0 0 0 0 0 0 0 0 0 0 0 0 0 0 3 14 10 9 10 9 11
342 253 456 531 138 47 54 58 591 162 521 644 417 280 60 3 0 0 0 0 0 0 0 0 0 0 0 0 0 0 0 0 0 0 0 0 7 11 12 12 2 1 3
617 295 246 283 153 50 18 10 554 297 441 639 445 273 67 1 0 0 0 0 0 0 0 0 0 0 0 0 0 0 0 0 0 0 0 0 11 12 11 11 12 11 14
633 667 389 202 165 0 0 3 138 385 349 484 389 341 180 0 0 0 0 0 0 0 0 0 0 0 0 0 0 0 0 0 0 0 0 2 13 12 4 10 13 9 7
334 374 267 216 69 1 0 26 151 195 451 571 437 298 71 0 0 0 0 0 0 0 0 0 0 0 0 0 0 0 0 0 0 0 0 2 11 9 8 10 6 7 6
241 127 142 118 29 0 0 0 98 298 507 500 313 198 21 0 0 0 0 0 0 0 0 0 0 0 0 0 0 0 0 0 0 0 0 2 5 8 4 6 6 7 6
73 1 3 0 7 8 1 0 69 333 227 229 229 65 0 0 0 0 0 0 0 0 0 0 0 0 0 0 0 0 0 0 0 0 0 0 7 10 12 12 5 7 8
18 0 2 0 1 0 18 29 44 38 53 125 118 2 0 0 0 0 0 0 0 0 0 0 0 0 0 0 0 0 0 0 0 0 0 0 9 12 14 17 4 4 5
3 0 0 6 4 0 0 0 0 48 80 114 37 0 0 0 0 0 0 0 0 0 0 0 0 0 0 0 0 0 0 0 0 0 0 0 13 20 23 15 10 2 4
1 1 0 0 0 7 3 12 1 32 69 35 16 0 0 0 0 0 0 0 0 0 0 0 0 0 0 0 0 0 0 0 0 0 0 0 8 17 19 8 8 6 1
2 2 1 1 0 0 9 0 0 8 3 4 0 0 0 0 0 0 0 0 0 0 0 0 0 0 0 0 0 0 0 0 0 0 0 0 0 3 18 13 10 2 3
2 1 1 0 2 0 4 0 0 0 5 0 0 0 0 0 0 0 0 0 0 0 0 0 0 0 0 0 0 0 0 0 0 0 0 0 0 0 0 0 2 2 0
0 0 0 1 0 0 0 0 0 16 18 26 2 0 0 0 1 1 0 0 0 0 0 0 0 0 0 0 0 0 0 0 0 0 0 0 0 0 0 0 0 0 0
1 0 1 0 0 0 0 0 1 2 13 32 26 14 6 4 16 17 9 0 0 0 0 0 0 0 0 0 0 0 0 0 0 0 0 0 0 0 0 0 0 0 0
1 1 0 0 0 0 0 0 0 3 0 1 20 59 61 42 61 58 37 44 1 0 0 0 0 0 0 0 0 0 0 0 0 0 0 0 0 0 0 0 0 0 0
1 1 1 1 0 0 1 1 5 1 0 0 0 1 22 34 72 61 34 41 13 0 0 0 0 0 0 0 0 0 0 0 0 0 0 0 0 0 0 0 0 0 0
0 0 0 0 0 0 0 0 0 0 0 0 0 0 0 3 8 21 25 14 9 0 0 0 0 0 0 0 0 0 0 0 0 0 0 0 0 0 0 0 0 0 0
0 0 0 0 0 0 0 0 0 0 0 0 0 0 0 0 0 8 26 27 0 0 0 0 0 0 0 0 0 0 0 0 0 0 0 0 0 0 0 0 0 0 0
0 0 0 0 0 0 0 0 0 0 0 0 0 0 0 0 0 5 87 62 20 0 0 0 0 0 0 0 0 0 0 0 0 0 0 0 0 0 0 0 0 0 0
0 0 0 0 0 0 0 0 0 0 0 0 0 0 0 0 0 0 45 95 34 2 0 0 0 0 0 0 0 0 0 0 0 0 0 0 0 0 0 0 0 0 0
0 0 0 0 0 0 0 0 0 0 0 0 0 0 0 0 0 0 0 0 13 1 0 0 0 0 0 0 0 0 0 0 0 0 0 0 0 0 0 0 0 0 0

GFSSE_con_mlcape_048.txt.gz
CAPE
248 1 561 230 147 177 371 510 622 661 768 765 575 590 377 358 391 313 137 49 13 0 1 2 4 7 11 11 5 4 2 2 6 14 28 33 39 33 31 31 29 41 53
815 648 795 696 445 74 224 500 469 369 454 557 607 483 382 304 260 77 26 47 26 1 1 2 4 2 1 4 8 12 8 7 7 9 11 13 19 8 23 16 14 22 30
1087 906 739 781 653 357 96 591 393 527 641 708 513 407 297 222 98 50 88 59 43 17 13 12 9 6 4 2 1 0 0 1 7 6 4 4 8 7 4 1 1 0 2
1217 947 785 746 691 531 515 773 627 766 816 583 453 340 274 155 74 143 92 57 56 42 34 50 71 15 2 3 2 2 0 2 4 7 14 31 34 32 23 14 5 4 8
1125 896 845 581 416 441 714 823 768 885 486 502 464 321 241 119 138 141 75 81 72 46 37 47 38 5 0 0 0 0 0 0 0 0 0 1 7 15 5 6 7 2 5
1042 997 987 585 354 174 136 390 701 927 684 459 434 283 184 94 145 111 49 41 8 0 0 0 0 0 0 0 0 0 0 0 0 0 1 5 0 10 6 4 6 5 4
883 935 933 493 249 75 10 177 264 591 649 339 386 235 153 56 72 84 30 1 0 0 0 1 0 0 0 0 0 0 0 0 0 0 0 0 7 12 3 7 10 5 4
641 625 608 514 234 63 0 0 3 142 455 191 301 254 135 60 50 66 0 0 0 1 0 0 0 0 0 0 0 0 0 0 0 0 0 1 11 9 10 6 8 5 6
488 327 356 411 203 88 0 0 0 66 340 323 304 279 180 81 16 0 0 0 0 0 0 0 0 0 0 0 0 0 0 0 0 0 0 2 13 7 7 6 5 5 5
520 586 106 352 117 2 0 0 0 19 74 241 302 302 189 79 0 0 0 0 0 0 0 0 0 0 0 0 0 0 0 0 0 0 0 4 5 4 5 5 3 2 3
267 335 293 207 2 0 0 0 0 15 170 269 358 288 117 5 0 0 0 0 0 0 0 0 0 0 0 0 0 0 0 0 0 0 0 7 6 5 4 4 4 1 1
118 182 123 45 3 3 4 0 0 0 69 270 295 204 24 0 0 0 0 0 0 0 0 0 0 0 0 0 0 0 0 0 0 0 0 5 10 5 3 2 2 1 1
23 27 24 1 0 1 1 0 0 43 45 148 176 124 2 0 0 0 0 0 0 0 0 0 0 0 0 0 0 0 0 0 0 0 1 3 8 8 4 3 2 4 2
1 0 4 1 0 0 2 37 0 0 0 91 134 47 7 0 0 0 0 0 0 0 0 0 0 0 0 0 0 0 0 0 0 0 0 0 3 9 8 8 8 4 3
0 2 4 2 0 0 0 14 8 8 35 61 77 38 28 2 0 0 0 0 0 0 0 0 0 0 0 0 0 0 0 0 0 0 0 0 0 5 13 11 11 5 4
1 0 3 4 1 4 2 1 0 4 40 27 51 38 6 0 0 0 0 0 0 0 0 0 0 0 0 0 0 0 0 0 0 0 0 0 0 14 21 17 11 5 4
0 1 1 0 4 4 8 7 0 3 1 5 35 35 12 2 0 0 0 0 0 0 0 0 0 0 0 0 0 0 0 0 0 0 0 0 0 1 19 16 8 3 7
0 0 1 3 1 6 1 0 0 0 0 10 33 44 16 2 0 0 0 0 0 0 0 0 0 0 0 0 0 0 0 0 0 0 0 0 0 0 0 8 3 0 0
0 0 1 2 2 1 6 0 0 1 12 32 53 39 21 9 0 0 0 0 0 0 0 0 0 0 0 0 0 0 0 0 0 0 0 0 0 0 0 0 0 0 0
0 0 1 1 0 0 3 0 0 1 12 27 46 39 32 25 10 2 0 0 0 0 0 0 0 0 0 0 0 0 0 0 0 0 0 0 0 0 0 0 0 0 0
0 1 1 1 2 0 0 0 14 12 11 0 12 60 64 41 39 27 23 0 0 0 0 0 0 0 0 0 0 0 0 0 0 0 0 0 0 0 0 0 0 0 0
0 0 0 0 0 1 0 0 1 11 9 18 7 3 81 90 92 78 54 20 56 5 0 0 0 0 0 0 0 0 0 0 0 0 0 0 0 0 0 0 0 0 0
0 0 0 0 0 0 0 0 0 0 4 5 0 0 0 17 20 24 48 45 69 14 11 0 0 0 0 0 0 0 0 0 0 0 0 0 0 0 0 0 0 0 0
1 0 0 0 0 0 0 0 0 0 0 1 0 0 0 0 0 0 1 18 45 4 2 0 0 0 0 0 0 0 0 0 0 0 0 0 0 0 0 0 0 0 0
1 1 0 0 0 0 0 0 0 0 0 0 0 0 0 0 0 0 0 0 8 16 7 0 0 0 0 0 0 0 0 0 0 0 0 0 0 0 0 0 0 0 0
0 0 0 0 0 0 0 0 0 0 0 0 0 0 0 0 0 0 0 0 0 0 16 22 0 0 0 0 0 0 0 0 0 0 0 0 0 0 0 0 0 0 0

GFSSE_con_mlcape_051.txt.gz
CAPE
257 339 659 423 620 1093 862 1306 1100 919 671 772 558 534 578 631 553 532 559 436 301 194 37 13 19 22 8 12 19 13 9 13 18 19 25 40 36 31 12 23 19 35 39
170 573 778 407 691 994 1308 1501 1298 1119 1090 941 632 539 579 631 537 356 210 141 91 19 17 18 9 9 15 11 7 0 0 0 4 14 14 26 21 17 11 8 13 15 14
167 697 438 485 769 1048 1287 1389 1363 1259 1115 967 707 565 617 491 240 120 52 20 11 7 6 11 10 11 17 14 9 2 0 0 0 0 4 8 8 6 1 0 2 1 8
662 1097 946 511 654 1125 1199 1213 1207 1250 1154 907 701 521 479 251 199 123 64 35 9 7 10 10 8 8 12 9 0 0 0 2 4 2 2 3 8 12 9 5 8 7 7
1144 1115 1176 956 645 1065 1222 1178 1270 1207 1017 882 703 424 296 235 212 130 98 80 12 14 20 7 12 8 5 0 0 0 0 1 0 5 16 18 11 7 11 6 8 10 10
1105 1214 1356 1222 852 802 1076 1230 1318 1066 872 649 563 279 229 286 235 128 122 63 18 126 154 10 3 3 0 0 0 0 0 0 0 0 2 5 8 8 6 8 7 12 10
990 1293 1059 934 697 1041 1307 1311 1282 1015 778 472 473 285 302 311 145 126 117 111 65 54 26 15 0 0 0 0 0 0 0 0 0 0 1 6 8 14 10 9 12 10 4
730 1060 903 607 526 789 959 1037 1103 783 632 642 370 218 257 250 154 102 14 0 0 7 104 3 0 0 0 0 0 0 0 0 0 0 3 10 15 6 7 6 3 3 2
469 512 606 493 250 119 201 476 457 577 427 380 214 116 196 180 130 5 0 0 21 138 17 0 0 0 0 0 0 0 0 0 0 0 0 1 6 6 6 3 4 2 2
492 407 231 94 144 1 0 29 166 113 133 103 199 108 130 134 37 0 0 157 145 58 2 0 0 0 0 0 0 0 0 0 0 0 0 2 7 9 6 6 3 4 2
304 425 337 365 247 2 0 0 44 82 54 54 202 113 103 58 0 0 6 72 44 10 0 0 0 0 0 0 0 0 0 0 0 1 1 8 11 9 9 4 5 3 1
199 317 250 210 94 2 0 0 8 69 70 61 200 107 44 0 0 0 0 10 13 5 2 0 0 0 0 0 0 0 0 0 0 1 3 7 10 11 8 4 2 2 0
73 83 137 60 19 1 1 0 0 16 27 51 228 83 0 0 0 0 0 5 7 11 17 1 0 0 0 0 0 0 0 0 0 3 5 8 4 7 9 5 2 2 2
0 1 5 2 3 3 3 0 1 25 21 52 185 3 0 0 0 0 0 0 0 3 21 2 0 0 0 0 0 0 0 0 0 2 4 9 7 4 4 3 4 3 2
0 1 0 0 1 1 1 9 2 0 27 57 114 5 0 0 0 0 0 0 0 0 0 0 0 0 0 0 0 0 0 0 0 2 7 3 7 6 9 8 5 6 2
3 2 2 2 1 0 5 3 14 6 33 90 89 14 13 0 0 0 0 0 0 0 0 0 0 0 0 0 0 0 0 0 0 0 2 4 0 7 11 10 10 7 4
1 2 2 3 1 0 4 3 4 4 4 36 76 36 10 0 0 0 0 0 0 0 0 0 0 0 0 0 0 0 0 0 0 0 0 0 0 0 10 3 7 8 5
0 2 1 1 1 0 6 6 10 0 4 15 43 67 18 0 0 0 0 0 0 0 0 0 0 0 0 0 0 0 0 0 0 0 0 0 0 0 0 0 0 1 7
0 0 2 2 0 0 0 5 9 2 8 5 17 63 36 2 0 0 0 0 0 0 0 0 0 0 0 0 0 0 0 0 0 0 0 0 0 0 0 0 0 0 0
1 2 1 2 5 6 2 0 2 11 0 5 18 45 37 14 1 0 0 0 0 0 0 0 0 0 0 0 0 0 0 0 0 0 0 0 0 0 0 0 6 3 0
4 3 1 1 1 2 1 1 1 8 0 1 43 53 55 41 21 4 2 0 0 0 0 0 0 0 0 0 0 0 0 0 0 0 0 0 0 0 0 0 3 0 0
2 2 1 1 1 2 1 1 0 0 0 2 14 44 46 41 26 23 22 3 0 0 0 0 0 0 0 0 0 0 0 0 0 0 0 0 0 0 0 0 0 0 0
1 2 2 1 1 1 2 0 0 0 0 0 7 21 19 33 34 59 62 54 39 17 2 0 0 0 0 0 0 0 0 0 0 0 0 0 0 0 0 0 0 0 0
0 0 0 5 1 1 0 0 0 0 0 0 0 2 18 25 51 91 117 90 56 77 74 48 16 0 0 0 0 0 0 0 0 0 0 0 0 0 0 0 0 0 0
0 0 0 3 5 2 0 0 0 0 0 0 0 0 4 1 6 22 20 33 44 44 43 40 13 0 0 0 0 0 0 0 0 0 0 0 0 0 0 0 0 0 0
0 0 0 1 3 2 1 0 0 0 0 0 0 0 0 0 0 0 0 4 8 5 1 12 20 1 0 0 0 0 0 0 0 0 0 0 0 0 0 0 0 0 0

GFSSE_con_mlcape_054.txt.gz
CAPE
792 714 736 1191 1357 1242 995 954 917 1097 782 834 761 504 367 477 564 401 265 274 192 145 73 35 21 9 51 26 35 38 24 23 25 22 28 32 32 47 29 28 36 38 37
916 671 861 1215 1693 1548 1002 488 1034 1136 1169 1069 770 732 530 480 623 714 568 273 230 81 29 12 8 9 16 5 1 15 18 14 21 21 21 38 41 31 16 7 13 16 11
871 968 924 1033 1160 1653 1535 1408 1262 1394 1263 1064 909 885 805 675 765 660 380 239 132 57 17 7 10 13 16 7 0 0 0 0 0 0 3 16 8 10 5 0 3 4 5
720 1031 793 986 1155 1844 1795 1667 1512 1511 1353 1077 1032 951 843 605 453 308 132 62 8 4 9 14 19 10 12 0 0 0 0 0 0 0 4 22 17 10 6 4 4 2 4
898 893 744 949 1280 1449 1860 1776 1655 1518 1349 1113 1034 907 696 479 263 135 39 10 0 5 9 11 21 18 7 0 0 0 0 0 0 1 2 3 9 7 5 3 6 4 3
1346 1172 1124 957 1299 1300 1735 1717 1641 1490 1262 992 891 723 649 531 262 138 40 23 36 16 12 7 14 13 0 0 0 0 0 0 0 0 0 1 0 5 2 1 2 3 2
1125 1396 1260 955 1065 716 564 1660 1575 1387 1157 999 741 639 669 556 273 154 98 116 83 57 4 8 8 0 0 0 0 0 0 0 0 0 0 1 11 10 7 9 2 4 1
1025 1476 1175 1122 601 564 676 939 1372 1178 815 875 711 655 693 574 223 137 176 152 116 23 0 3 1 0 0 0 0 0 0 0 0 0 0 2 8 8 6 3 2 2 1
690 845 1062 840 616 305 339 776 1045 953 664 632 786 805 581 415 223 190 111 129 105 62 0 0 0 0 0 0 0 0 0 0 0 0 0 1 7 8 7 4 4 5 4
823 437 565 379 396 455 330 175 533 596 462 288 491 342 351 241 116 51 37 125 131 72 0 0 0 0 0 0 0 0 0 0 0 0 0 2 10 10 11 8 7 5 5
417 428 289 107 49 140 93 52 244 232 240 235 302 200 212 202 101 23 3 127 148 0 0 0 0 0 0 0 0 0 0 0 0 0 0 7 14 11 11 9 6 5 6
212 361 301 12 29 73 33 26 62 111 126 109 67 72 253 189 49 8 199 148 77 0 0 0 0 0 0 0 0 0 0 0 1 0 1 8 11 12 13 9 5 5 5
195 82 365 144 116 8 0 0 0 65 16 9 22 52 190 126 15 114 197 124 51 0 0 0 0 0 0 0 0 0 0 0 2 1 1 7 6 6 8 9 4 2 1
30 65 137 180 76 58 9 9 7 46 11 38 3 12 247 79 35 46 50 52 23 2 3 1 0 0 0 0 0 0 0 1 9 4 4 7 9 9 9 6 6 3 1
1 15 21 16 24 2 2 2 6 18 7 28 42 94 126 49 35 28 31 45 43 44 25 6 0 0 0 0 0 0 0 0 7 5 2 2 0 5 7 7 6 3 1
2 1 3 5 4 3 2 6 7 4 15 38 41 106 52 43 27 5 8 0 8 33 26 2 0 0 0 0 0 0 0 0 0 3 4 6 0 3 7 9 6 4 2
12 2 4 2 2 1 2 7 4 18 14 42 77 68 34 31 22 8 0 0 0 0 1 0 0 0 0 0 0 0 0 0 0 0 1 6 1 7 7 6 7 4 0
3 2 4 4 3 2 5 3 2 36 28 57 96 71 35 1 1 0 0 0 0 0 0 0 0 0 0 0 0 0 0 0 0 0 0 0 12 13 10 13 10 9 0
2 1 1 2 4 4 8 8 2 1 7 34 61 57 16 1 0 0 0 1 6 0 0 0 0 0 0 0 0 0 0 0 0 0 0 0 0 0 28 4 5 3 2
2 2 3 4 6 4 8 6 9 3 2 18 34 91 62 7 3 2 0 7 19 2 0 0 0 0 0 0 0 0 0 0 0 0 0 0 0 0 0 4 9 11 0
5 3 1 2 2 1 4 4 3 2 0 0 0 54 129 18 14 24 5 18 12 25 25 3 0 0 0 0 0 0 0 0 0 0 0 0 0 0 0 0 1 20 5
6 4 4 2 2 1 4 8 9 1 0 0 0 27 93 83 29 47 17 10 6 45 62 47 32 2 1 0 0 1 0 0 0 0 0 0 0 0 0 0 0 0 1
6 7 2 4 2 2 1 3 2 1 3 0 0 23 70 131 74 60 59 45 29 33 54 100 99 81 82 5 0 30 18 0 15 0 0 0 0 0 0 0 0 0 0
0 6 9 3 2 3 3 2 1 0 0 0 0 9 49 114 107 73 83 96 108 69 49 108 129 113 135 75 0 0 8 50 63 30 0 0 0 0 0 0 0 0 0
0 2 4 5 5 2 3 1 0 1 0 0 0 7 50 87 100 67 81 121 151 213 183 215 181 188 168 146 34 43 0 0 0 0 12 4 0 0 0 0 0 0 0
0 0 1 8 8 3 2 2 0 0 0 0 0 0 7 19 62 83 115 171 153 178 223 220 241 244 220 145 126 119 72 47 14 1 0 2 0 0 0 0 0 0 0

GFSSE_con_mlcape_057.txt.gz
CAPE
1027 1106 544 1199 1623 1234 1169 908 816 826 771 780 641 528 716 716 552 319 103 112 284 329 352 257 173 106 99 64 27 1 0 5 18 30 41 62 78 57 14 21 10 15 9
1128 1202 708 1444 1784 1485 1156 915 856 888 1064 1030 782 638 778 700 445 287 406 333 357 247 94 63 95 55 28 27 7 18 16 15 11 19 32 29 11 16 9 2 8 6 1
1195 1276 846 1310 1823 1764 1568 1397 1276 928 983 1061 837 847 795 754 707 699 436 336 285 94 18 12 34 25 25 2 0 0 0 0 0 0 4 17 13 7 3 0 1 2 7
1156 1419 967 1012 1569 1799 1575 1412 1310 1359 1260 1066 905 893 763 621 691 613 406 343 143 24 5 4 16 16 2 0 0 0 0 0 0 3 11 9 14 11 4 5 4 4 2
1342 1329 1271 1012 1253 1365 1560 1462 1436 1401 1254 1175 1015 1025 830 680 703 467 205 139 57 19 7 4 11 9 1 0 0 0 0 0 0 7 4 12 7 10 5 2 3 4 2
1487 1125 1216 789 1023 1362 1506 1558 1434 1385 1100 915 888 1128 989 793 498 231 119 47 28 13 19 19 11 4 0 0 0 0 0 0 0 0 1 4 9 13 5 0 2 2 4
1532 1354 1196 838 593 1343 1309 1376 1203 1204 986 941 1091 992 823 556 318 132 69 29 28 3 10 10 2 0 0 0 0 0 0 0 0 0 1 3 10 11 7 8 5 5 5
1457 1609 1165 1053 714 574 658 592 378 776 775 936 981 877 687 419 169 153 191 138 23 5 0 3 0 0 0 0 0 0 0 0 0 1 3 5 12 11 9 7 7 7 6
1271 1522 1357 1163 974 416 422 411 71 772 893 909 843 705 489 261 147 248 252 179 2 0 0 0 0 0 0 0 0 0 0 0 1 0 0 2 14 7 9 6 6 6 5
1160 870 1126 1056 760 480 341 221 142 301 435 715 720 739 671 232 197 278 205 140 4 0 0 0 0 0 0 0 0 0 0 0 2 0 0 3 10 7 5 4 5 5 5
845 674 403 605 656 495 391 206 270 169 209 434 663 424 390 279 250 170 190 172 1 0 0 0 0 0 0 0 0 0 0 7 10 2 1 7 10 8 5 4 4 5 6
546 493 272 104 154 196 184 39 88 54 108 206 358 217 149 168 194 179 195 148 3 0 0 0 0 0 0 0 0 0 4 18 11 1 3 9 10 10 8 5 3 3 3
380 384 196 84 46 87 6 76 123 253 178 138 62 0 0 64 173 153 228 150 0 0 0 0 0 0 0 0 0 1 2 14 11 2 1 6 11 7 7 3 2 2 2
372 166 166 18 3 2 0 17 50 31 48 4 15 13 14 55 157 262 213 116 0 0 0 0 0 0 0 0 0 5 10 21 10 2 3 9 10 11 8 5 2 1 1
177 235 53 61 69 4 1 0 0 52 7 15 0 11 23 97 137 257 200 118 3 3 0 0 3 1 0 0 3 9 17 26 9 2 3 5 7 10 8 10 3 1 1
3 1 1 2 7 1 0 3 3 33 8 9 0 0 10 102 111 182 175 161 47 51 13 0 8 0 0 0 1 7 14 17 29 3 3 4 4 2 5 2 3 2 0
57 4 1 2 2 1 2 2 6 23 9 0 0 7 64 112 164 217 240 155 99 102 53 20 1 0 0 0 0 0 3 6 8 19 4 4 1 1 1 1 0 0 0
3 3 4 3 2 2 2 2 5 3 7 5 0 61 104 103 118 115 70 39 28 69 38 8 0 0 0 0 0 0 0 0 1 2 16 19 1 11 0 1 0 0 0
3 0 2 4 3 3 3 2 4 7 12 15 44 102 106 74 52 22 0 2 9 11 3 1 0 0 0 0 0 0 0 0 0 0 0 0 17 9 4 0 0 0 0
6 1 2 3 2 4 3 1 4 3 12 30 47 84 51 34 29 12 0 0 3 0 0 0 0 0 0 0 0 0 0 0 0 0 0 0 0 0 21 25 0 0 2
5 8 8 1 1 3 3 2 5 2 5 16 64 52 53 27 29 4 1 24 55 23 7 9 0 0 0 0 0 0 0 0 0 0 0 0 0 0 0 0 23 0 0
4 9 4 2 2 2 3 6 0 1 2 1 19 78 48 64 40 7 16 9 76 64 69 53 13 2 0 0 0 0 0 0 0 0 0 0 0 0 0 0 0 19 36
2 9 3 2 2 2 6 21 6 3 5 15 0 36 84 130 45 31 32 51 63 106 152 135 111 82 44 8 0 13 28 14 24 0 0 0 0 0 0 0 0 0 3
0 3 7 2 1 6 3 4 1 1 2 0 0 0 14 102 79 23 57 103 116 96 167 195 177 152 141 106 67 21 119 139 140 31 0 0 0 0 0 0 0 0 1
0 2 7 3 2 2 6 2 4 4 1 0 0 0 15 58 44 66 90 106 135 133 128 160 177 215 192 156 154 106 64 84 113 141 85 25 2 0 0 0 0 0 2
0 0 7 10 3 2 3 5 2 1 2 0 0 0 7 28 56 48 92 84 137 197 205 181 165 216 241 181 132 156 101 83 63 70 47 49 49 9 0 0 0 0 0

GFSSE_con_mlcape_060.txt.gz
CAPE
1454 1052 706 1130 1326 1030 1041 959 787 698 581 450 469 427 529 413 153 29 10 29 22 226 330 262 130 117 126 122 97 47 26 25 0 44 73 72 57 36 5 4 4 7 21
1466 1058 876 1044 1508 1231 1192 1111 887 890 830 641 689 716 746 537 231 159 286 437 485 399 314 248 186 105 76 61 30 0 0 0 0 12 33 62 21 19 10 4 5 4 6
1175 1303 1058 1316 1666 1528 1294 1253 1090 994 972 762 753 797 795 569 483 641 638 477 359 336 282 176 86 24 44 6 0 0 0 2 9 5 11 8 10 9 5 4 0 1 5
1104 1376 1248 1408 1829 1714 1412 1239 1227 1259 1216 1129 1041 814 672 620 746 606 556 363 243 141 192 120 66 19 5 0 0 2 14 12 7 0 9 12 13 12 8 8 7 6 4
1180 1529 1224 1167 1560 1819 1545 1271 1118 1118 1151 1030 1047 1036 681 827 626 454 446 292 98 41 54 75 32 3 0 0 0 0 2 4 19 0 2 5 14 19 5 2 1 7 8
1368 1486 1304 1051 1193 1634 1688 1326 1136 1029 999 976 932 995 734 838 665 554 357 153 34 16 14 46 18 0 0 0 0 0 0 8 17 4 3 6 8 12 2 5 5 9 7
1299 1596 1298 1122 911 1141 1233 1124 1188 1061 1056 881 823 976 790 778 665 425 264 157 95 42 24 14 0 0 0 0 0 0 0 0 0 0 0 1 4 5 13 9 9 7 7
1216 1502 1401 941 825 599 1019 889 684 548 563 788 838 866 907 601 371 194 126 116 128 85 9 4 0 0 0 0 0 0 0 2 0 0 0 6 13 14 9 8 4 4 4
989 1326 1518 1173 914 377 377 408 279 15 16 469 894 818 642 432 220 114 174 110 59 41 6 0 0 0 0 0 0 0 0 5 0 0 0 6 14 9 10 6 5 4 4
1006 1214 1240 1056 999 611 278 258 14 0 0 0 641 655 435 276 195 237 170 106 39 0 0 0 0 0 0 0 0 0 0 0 0 0 0 8 12 10 8 5 5 4 4
419 972 622 853 865 489 131 174 12 0 0 43 415 409 213 213 258 252 139 72 23 11 0 0 0 0 0 0 0 0 0 2 0 0 0 10 9 7 5 5 4 3 2
429 609 360 500 499 254 144 136 8 0 0 69 268 213 261 285 222 156 123 61 0 0 0 0 0 0 0 0 0 0 0 8 0 0 0 9 8 5 5 3 2 1 1
407 426 379 188 266 140 104 92 52 0 94 71 92 111 211 220 194 152 84 7 0 0 0 0 0 0 0 0 0 0 8 6 0 0 4 10 8 4 5 3 2 2 0
268 272 194 168 134 47 98 90 17 6 32 46 11 13 27 0 86 130 82 0 0 0 0 0 0 0 0 0 0 0 7 1 0 0 0 3 5 8 5 3 1 0 0
138 266 63 3 0 55 17 108 51 17 0 0 0 0 0 7 21 57 65 0 0 0 0 0 0 0 0 0 10 7 21 2 0 0 0 0 3 6 4 2 2 1 0
34 20 2 9 30 0 26 17 69 31 2 0 0 0 0 12 8 45 117 9 0 0 0 0 1 0 0 0 0 0 17 6 0 0 0 0 0 2 5 4 1 1 1
14 0 1 0 6 2 4 15 43 19 1 0 0 0 0 5 1 110 135 55 23 5 0 0 3 0 1 0 0 2 0 19 0 0 0 0 0 0 0 0 0 0 0
8 0 0 1 7 2 2 4 3 34 7 2 0 0 1 15 69 116 131 105 53 38 21 19 0 0 0 0 0 0 0 0 13 0 0 0 0 0 0 0 0 0 0
0 1 1 1 0 0 1 3 3 13 2 2 0 0 0 1 78 65 61 82 99 58 31 12 0 0 0 3 0 0 0 0 0 1 5 0 0 0 0 0 0 0 0
0 2 1 1 2 3 3 3 9 7 2 2 0 0 0 17 15 1 11 0 4 15 13 1 0 0 0 1 0 0 0 0 0 0 0 2 0 0 0 0 0 0 0
0 2 0 1 3 2 1 2 2 2 7 5 1 5 37 28 5 8 3 4 3 2 0 2 3 0 0 0 3 0 0 0 0 0 0 0 0 0 5 5 0 0 0
0 1 8 1 2 4 1 1 2 3 3 10 25 0 0 12 6 1 12 4 10 55 18 14 0 5 0 0 0 0 0 0 0 0 0 0 0 0 0 0 0 0 0
0 3 2 3 3 1 4 2 2 2 1 0 8 1 7 6 0 0 16 43 43 70 5 26 17 11 0 0 0 0 0 0 0 0 0 0 0 0 0 0 0 1 0
5 0 2 3 1 2 3 5 0 1 2 0 0 0 19 45 14 18 51 36 4 24 81 86 64 59 26 0 0 0 0 55 51 6 0 0 0 0 0 0 0 0 0
4 0 0 1 2 1 3 3 2 2 1 0 0 0 2 23 73 30 31 85 25 0 30 77 113 97 102 98 22 25 1 33 85 56 4 0 0 0 0 0 0 0 0
0 7 0 3 4 2 0 4 2 3 0 0 0 0 0 7 72 75 25 40 85 93 26 62 117 136 120 156 132 120 84 77 43 62 60 44 5 0 0 0 0 0 0

GFSSE_con_mlcape_063.txt.gz
CAPE
1040 1071 1293 975 832 871 864 734 590 452 505 512 525 507 472 348 234 85 22 4 0 53 166 363 244 168 262 318 230 133 119 98 90 82 52 32 26 13 6 1 9 36 66
1185 923 1432 1242 1025 973 1051 893 805 733 719 620 569 508 392 277 199 122 54 236 265 214 212 168 53 47 95 181 93 41 40 27 32 5 32 30 23 16 12 7 8 15 17
1189 905 1164 1570 1250 1180 1146 1109 1075 958 821 794 785 526 350 362 269 442 688 641 595 555 377 117 140 44 88 51 23 0 0 0 0 2 9 12 26 21 12 8 10 15 10
1269 1015 1041 1574 1572 1333 1265 1194 1177 1137 1052 1048 993 678 518 599 615 737 676 641 657 478 347 224 77 116 42 14 18 29 2 0 0 9 8 18 30 18 5 3 2 3 4
1185 1233 1155 1453 1753 1567 1356 1276 1207 1196 1026 1059 974 820 811 820 780 671 606 646 473 475 363 195 56 36 8 7 0 0 0 3 0 2 8 11 8 16 8 5 4 4 7
1031 1326 1300 1273 1660 1756 1518 1311 1169 1274 1026 1097 923 844 973 1007 825 596 452 357 383 473 206 69 42 5 0 0 0 0 4 2 0 0 9 11 13 15 2 7 3 8 5
836 1191 1258 1174 1289 1606 1688 1374 1162 1072 889 937 930 1033 973 904 641 474 331 260 290 250 68 31 3 0 0 0 0 0 0 0 0 0 0 6 11 5 4 2 5 7 1
1096 1307 1221 1000 1165 1084 1318 1266 1229 1071 639 523 827 816 830 695 530 359 244 107 107 77 17 3 0 0 0 0 0 0 0 0 0 0 0 7 10 3 7 6 8 9 5
887 981 1330 860 760 805 743 676 399 440 42 105 300 747 658 468 475 337 327 190 73 29 3 0 0 0 0 0 0 0 0 0 0 0 0 7 3 12 10 8 8 6 5
732 863 975 1009 897 435 290 272 102 56 0 4 2 56 254 280 338 315 313 202 82 28 7 0 0 0 0 0 0 0 0 0 0 0 0 5 9 13 9 7 5 6 6
614 357 499 663 830 428 135 44 6 0 0 0 0 0 327 311 260 213 154 147 33 3 0 0 0 0 0 0 0 0 0 0 0 0 0 4 10 10 7 8 7 5 6
260 268 306 515 625 203 89 57 28 0 0 0 1 0 235 244 193 162 100 76 8 0 0 0 0 0 0 0 0 0 0 0 0 0 0 6 10 12 9 5 6 6 6
318 368 219 380 266 90 23 21 28 0 0 0 88 69 168 230 188 50 42 25 0 0 0 0 0 0 0 0 0 0 0 0 0 0 0 5 10 6 7 7 6 3 1
267 300 217 218 116 39 43 10 0 0 18 1 7 104 94 141 58 29 23 15 2 0 0 0 0 0 0 0 0 0 0 0 0 0 0 0 6 6 6 4 3 1 0
208 114 71 106 34 41 26 2 1 12 8 18 45 22 7 41 24 0 1 1 0 0 0 0 0 0 0 0 0 0 0 0 0 0 0 0 0 6 5 4 2 1 0
59 8 7 10 29 8 19 1 1 26 4 3 3 0 2 57 15 0 0 0 0 0 0 0 0 0 0 0 0 0 0 0 0 0 0 0 0 0 2 2 2 0 0
4 1 0 1 3 17 7 5 2 3 0 0 0 0 0 1 1 9 0 0 0 0 0 0 0 0 0 0 0 0 0 0 0 0 0 0 0 0 0 0 0 1 1
0 0 2 6 9 16 6 0 4 0 0 0 0 0 0 0 0 17 1 0 1 0 0 0 0 0 0 0 2 0 0 0 0 0 0 0 0 0 0 0 0 0 0
0 0 0 0 2 3 5 14 15 3 1 0 0 0 0 0 0 13 22 0 19 0 0 0 0 0 0 0 0 0 0 0 0 0 0 0 0 0 0 0 0 0 0
0 0 0 2 1 0 1 1 2 30 7 0 0 0 0 0 3 26 32 0 40 29 15 10 0 0 0 0 0 0 0 0 0 0 0 0 0 0 0 0 0 0 0
0 0 0 1 2 0 1 1 0 0 1 2 0 0 0 0 2 0 21 24 5 37 18 0 3 0 0 0 0 0 0 0 0 0 0 0 0 0 0 0 0 0 0
0 0 0 0 1 1 3 5 8 2 1 1 1 0 0 0 0 0 1 8 0 24 4 2 6 5 2 0 0 0 0 0 0 0 0 0 0 0 1 0 0 0 0
0 0 0 0 1 1 2 2 4 2 2 2 2 1 0 0 0 0 0 0 0 1 1 5 10 3 6 0 0 0 0 0 0 0 0 0 0 0 0 0 3 0 0
0 0 0 0 0 1 2 0 0 1 1 1 0 0 0 0 0 0 0 0 0 10 26 17 7 0 0 4 0 0 0 0 0 0 0 0 0 0 0 0 0 0 0
0 0 0 1 1 0 2 2 0 0 0 1 0 0 0 0 0 0 0 0 1 16 28 16 0 0 1 1 0 0 0 0 0 0 0 0 0 0 0 0 0 0 0
0 0 0 0 1 2 1 2 0 0 0 0 0 0 0 0 0 0 0 0 0 0 7 63 5 3 1 18 19 0 0 0 0 0 1 0 0 0 0 0 0 0 0

GFSSE_con_mlcape_066.txt.gz
CAPE
922 1008 1008 991 994 777 604 594 569 696 725 614 670 754 743 695 604 510 435 375 457 580 518 481 530 453 494 535 416 301 231 156 95 102 78 84 93 73 71 43 48 89 202
1013 1233 1093 1067 1128 959 745 733 696 782 848 772 703 644 588 530 465 407 367 378 592 578 452 346 358 466 413 344 220 200 111 84 68 68 43 49 54 84 68 30 65 87 86
1100 1319 1210 1131 1198 1191 955 791 861 965 1008 923 817 684 525 362 197 152 262 549 620 493 359 317 339 400 229 181 113 84 62 25 6 0 0 7 21 20 13 11 10 37 33
1053 1177 1376 1253 1255 1317 1133 918 910 1119 1113 871 753 676 540 400 641 724 671 590 559 334 128 137 309 244 208 101 34 12 9 0 4 3 4 18 19 25 10 9 6 5 6
1169 1111 1308 1392 1312 1276 1257 1145 1029 1000 1027 853 732 720 644 783 861 801 831 847 701 492 424 306 197 213 96 36 15 0 0 0 1 3 3 11 16 16 4 2 2 4 4
1185 1192 1232 1421 1504 1369 1342 1230 1214 1107 1026 840 797 873 873 977 888 880 832 761 665 588 546 310 210 88 32 32 18 0 0 0 0 1 6 7 4 3 7 4 3 3 9
1108 1256 1337 1369 1579 1567 1396 1269 1271 1195 1138 973 946 969 960 1051 932 749 619 601 495 448 313 186 153 73 20 3 0 0 0 0 0 1 1 1 7 7 7 1 4 3 3
913 1124 1342 1504 1473 1530 1369 1162 1169 1098 1065 969 968 1045 1135 885 693 599 508 457 527 280 161 109 25 10 0 0 0 0 0 0 0 0 1 5 16 7 7 2 6 2 1
1025 954 1135 1285 1305 1069 971 862 786 543 594 484 147 454 913 724 526 465 405 429 268 108 125 12 0 0 0 0 0 0 0 0 0 0 0 3 10 2 8 7 4 7 12
600 734 839 794 717 579 597 603 488 357 140 75 7 0 200 290 446 358 326 266 146 47 30 6 0 0 0 0 0 0 0 0 0 0 0 2 10 9 7 5 7 9 9
625 522 433 616 643 294 166 192 142 164 190 40 0 0 18 79 213 312 240 143 71 40 29 1 0 0 0 0 0 0 0 0 0 0 1 11 9 8 5 6 10 8 7
421 244 331 435 491 264 61 6 4 24 36 42 0 0 3 48 143 274 211 103 31 35 11 0 0 0 0 0 0 0 0 0 0 0 2 10 8 6 3 9 8 7 6
113 188 226 361 372 273 50 1 0 0 0 0 0 0 0 55 126 212 124 47 27 18 0 0 0 0 0 0 0 0 0 0 0 0 1 8 6 3 6 10 6 7 5
199 172 185 228 258 167 6 1 0 0 0 0 0 0 3 47 77 68 38 5 4 0 0 0 0 0 0 0 0 0 0 0 0 0 1 2 5 5 4 5 5 3 4
164 69 111 129 145 119 7 1 1 0 0 0 11 0 13 50 35 17 16 3 0 0 0 0 0 0 0 0 0 0 0 0 0 0 0 0 1 3 3 4 2 1 2
78 48 73 108 113 59 14 1 2 2 14 4 47 21 63 8 8 7 0 0 0 0 0 0 0 0 0 0 0 0 0 0 0 0 0 0 0 3 4 2 1 0 1
29 14 27 57 75 36 4 0 2 1 10 23 43 19 27 21 1 0 0 0 0 0 0 0 0 0 0 0 0 0 0 0 0 0 0 0 0 0 1 0 1 0 0
0 0 4 32 61 10 5 2 0 2 1 4 2 10 8 19 1 0 0 0 0 0 0 0 0 0 0 0 0 0 0 0 0 0 0 0 0 0 0 0 0 0 0
0 0 0 1 32 5 6 1 0 0 0 0 0 0 11 8 1 0 0 0 0 0 0 0 0 0 0 0 0 0 0 0 0 0 0 0 0 0 0 0 0 0 0
0 0 0 0 1 5 8 5 1 1 1 0 0 0 11 1 26 1 0 0 0 0 0 0 0 0 0 0 0 0 0 0 0 0 0 0 0 0 0 0 0 0 0
0 0 0 0 0 0 3 3 6 3 3 1 0 0 2 0 3 24 0 0 0 0 0 0 0 0 0 0 1 0 0 0 0 0 0 0 0 0 0 0 0 0 0
0 0 0 0 0 1 1 2 0 1 0 1 1 0 1 0 0 9 11 0 9 0 0 0 0 0 0 2 2 3 7 0 0 0 0 0 0 0 0 0 0 0 0
0 0 0 0 0 0 0 0 0 0 1 1 1 2 0 0 0 1 18 5 15 21 0 0 0 0 0 0 3 0 0 0 0 0 0 0 0 0 0 0 0 0 0
0 0 0 0 0 0 0 0 0 0 3 4 1 1 1 0 1 0 3 0 14 25 8 0 0 0 0 7 2 2 0 0 1 0 0 0 0 0 0 5 5 0 0
0 0 0 0 0 0 1 0 0 1 1 0 1 2 1 0 0 0 0 6 2 33 10 2 0 1 0 2 0 0 0 0 0 0 0 0 0 0 0 0 0 0 0
0 0 0 0 0 0 5 2 0 0 0 1 1 1 0 0 0 0 0 13 8 0 0 0 0 4 0 1 0 0 0 0 0 0 3 2 0 0 0 0 0 0 0

GFSSE_con_mlcape_069.txt.gz
CAPE
753 846 898 922 903 966 788 663 479 868 1046 1178 1113 1000 885 843 841 811 702 721 766 787 692 634 507 442 573 606 502 299 336 263 211 167 197 220 260 189 170 161 175 189 223
781 914 978 992 969 910 843 839 600 718 1113 1254 1205 1114 961 859 832 730 772 901 845 774 647 687 738 647 559 542 382 237 175 115 118 127 151 211 194 174 147 109 105 165 228
1015 1068 1068 1100 1058 920 904 906 930 686 912 1125 1180 1114 984 850 748 677 763 854 758 704 646 724 680 672 576 412 275 204 137 91 80 52 27 22 90 105 84 58 76 168 206
1071 1141 1091 1099 1143 1015 906 995 1116 1012 804 896 994 983 879 787 702 638 731 751 676 653 665 830 744 627 413 257 174 75 52 20 7 0 0 6 20 28 16 14 20 62 103
1096 1153 1135 1162 1132 1056 1007 994 1085 1179 1020 886 857 835 770 673 599 627 746 680 627 615 579 700 542 411 230 118 73 42 6 0 0 0 0 10 8 17 13 9 4 4 2
1033 1221 1261 1179 1176 1223 1085 996 1074 1199 978 919 883 774 720 759 728 763 707 656 471 355 508 595 337 197 110 50 13 2 0 0 0 0 0 7 10 13 3 6 10 8 4
1030 1113 1323 1271 1244 1327 1223 1076 1027 1205 961 820 853 821 889 916 914 854 816 820 673 539 468 320 148 69 62 26 4 0 0 0 0 0 0 2 4 6 3 6 5 4 4
935 1104 1122 1410 1387 1379 1331 998 831 1017 973 849 940 981 1122 979 976 889 892 672 521 395 254 145 63 43 7 0 0 0 0 0 0 0 0 0 6 7 8 5 2 5 5
911 998 1192 1324 1585 1431 1201 1142 759 612 552 752 509 134 550 691 859 796 735 536 447 298 204 112 33 1 0 0 0 0 0 0 0 0 0 8 9 17 8 4 2 2 2
726 648 911 1146 821 587 700 810 677 276 89 40 146 247 125 210 312 396 507 500 367 289 176 65 5 0 0 0 0 0 0 0 0 0 0 10 13 12 13 10 9 9 7
586 573 633 711 530 430 580 759 733 216 0 0 85 133 42 0 94 189 305 314 274 163 74 4 0 0 0 0 0 0 0 0 0 0 0 8 12 16 15 13 13 7 4
250 378 342 425 308 206 284 304 398 1 0 18 29 32 17 9 93 54 152 222 159 107 15 0 0 0 0 0 0 0 0 0 0 0 1 11 10 13 11 10 5 5 6
195 251 161 237 259 169 65 24 43 46 14 12 9 0 0 5 69 50 100 137 100 65 2 0 0 0 0 0 0 0 0 0 0 0 2 8 12 10 11 9 8 5 1
134 34 60 149 206 143 30 0 0 0 1 1 0 0 4 1 17 46 82 40 24 12 0 0 0 0 0 0 0 0 0 0 0 0 5 8 11 6 11 11 6 3 4
30 46 59 86 132 77 55 1 1 0 1 2 2 0 4 11 29 66 52 20 5 0 0 0 0 0 0 0 0 0 0 0 0 0 0 7 9 12 12 8 4 4 2
52 55 29 39 66 82 68 1 0 0 1 1 2 0 17 36 72 31 20 1 0 0 0 0 0 0 0 0 0 0 0 0 0 0 0 3 9 11 7 5 3 2 4
61 33 17 23 46 76 65 0 1 2 0 0 2 0 30 94 71 20 1 0 0 0 0 0 0 0 0 0 0 0 0 0 0 0 0 0 0 2 4 1 1 2 2
53 19 9 18 20 37 42 8 2 0 0 6 9 16 3 86 42 6 0 0 0 0 0 0 0 0 0 0 0 0 0 0 0 0 0 0 0 0 0 0 1 0 1
41 1 0 0 1 3 24 9 0 0 0 0 2 3 18 17 1 0 0 0 0 0 0 0 0 0 0 0 0 0 0 0 0 0 0 0 0 0 0 0 0 0 0
16 0 0 0 2 0 10 2 1 0 0 0 0 4 3 17 0 0 0 0 0 0 0 0 0 0 0 0 0 0 0 0 0 0 0 0 0 0 0 0 0 0 0
0 0 0 0 2 1 4 4 1 0 0 0 0 0 5 28 0 0 0 0 0 0 0 0 0 0 0 0 0 0 0 0 0 0 0 0 0 0 0 0 0 0 0
0 0 0 0 2 1 4 2 4 2 1 0 0 0 0 2 14 0 0 0 0 0 0 0 0 0 0 0 0 0 0 0 0 0 0 0 0 0 0 0 0 0 0
0 0 0 0 0 1 4 0 0 0 0 1 1 1 1 0 0 4 0 0 0 0 0 0 0 0 0 0 0 0 0 13 0 0 0 0 0 0 0 0 0 0 0
0 0 0 0 0 0 2 0 0 1 0 1 1 1 2 0 0 0 13 0 0 1 3 11 2 0 0 0 0 0 1 2 3 2 0 0 0 0 0 0 0 0 0
0 0 0 0 0 0 0 0 0 0 0 0 1 1 1 1 0 0 0 3 0 12 2 20 15 5 8 8 4 0 0 0 0 0 0 0 0 0 0 0 0 0 0
0 0 0 0 0 0 0 0 0 0 1 2 2 4 1 1 0 0 0 0 2 11 18 13 26 7 2 10 15 5 0 1 0 0 0 0 0 0 0 0 0 0 0

GFSSE_con_mlcape_072.txt.gz
CAPE
619 675 896 948 954 745 614 713 830 1062 1230 1149 1048 1019 955 991 993 920 806 707 851 866 888 856 796 843 841 754 529 485 369 347 311 319 273 412 397 331 347 287 262 290 315
669 910 948 967 1003 813 640 742 928 1151 1355 1300 1261 1176 1128 1120 1061 962 929 958 1037 990 886 935 846 763 739 644 561 467 377 272 269 280 280 360 297 367 324 230 208 228 245
671 786 988 991 1100 986 754 748 1000 1247 1459 1453 1342 1219 1230 1209 1097 1061 1094 1082 1048 957 778 873 822 862 796 592 434 353 307 277 228 216 183 160 259 334 206 138 115 130 130
793 794 962 1036 1119 1073 951 733 1144 1429 1518 1501 1374 1293 1233 1154 1106 1195 1164 1118 1002 747 823 897 943 814 658 459 332 286 181 109 61 48 32 65 170 238 244 213 175 139 119
864 786 987 1108 1185 1132 979 874 904 1522 1545 1561 1472 1344 1203 1091 1091 1234 1146 1040 925 888 995 1011 883 675 477 325 248 120 41 19 8 1 0 4 14 43 32 45 55 53 45
894 876 1025 1124 1175 1215 1036 1096 875 1035 1363 1532 1430 1342 1280 1227 1209 1190 1003 833 776 803 805 730 790 457 331 231 82 23 0 0 0 0 0 1 6 10 4 5 6 4 5
969 977 1036 1167 1252 1339 1230 1114 1153 866 992 1248 1308 1281 1196 1220 1173 1038 853 669 812 810 710 675 507 302 154 85 26 0 0 0 0 0 0 0 3 9 6 5 5 7 4
952 1117 1123 1193 1308 1332 1302 1110 760 1134 1013 906 1148 1154 1078 831 778 885 782 672 620 809 580 483 357 177 83 30 0 0 1 0 0 0 0 0 7 1 8 7 4 5 13
966 1041 1120 1179 1312 1317 1322 847 423 396 730 1002 632 620 548 437 311 333 444 632 641 495 409 292 196 109 35 2 0 0 0 0 0 0 0 0 16 14 5 5 6 2 5
893 1000 1031 1143 1330 1227 715 549 642 335 325 347 310 137 45 149 128 164 363 412 446 349 282 245 120 73 22 0 0 0 0 0 0 0 0 4 10 6 9 11 7 7 3
678 652 783 1038 1055 869 647 409 272 242 301 292 167 34 86 115 79 144 127 305 354 228 223 91 54 31 0 0 0 0 0 0 0 0 0 6 17 16 17 9 4 5 10
415 348 503 719 693 486 561 573 223 137 110 62 62 24 63 68 78 11 40 119 127 139 52 6 1 0 0 0 0 0 0 0 0 0 0 5 1 9 2 2 8 7 9
320 362 374 349 217 168 205 222 92 24 1 0 0 16 0 1 82 75 4 47 97 62 0 0 0 0 0 0 0 0 0 0 0 0 0 7 8 13 15 8 8 7 4
225 261 238 187 168 40 39 81 81 81 4 2 4 2 24 10 51 5 23 27 46 0 0 0 0 0 0 0 0 0 0 0 0 0 3 6 10 8 3 7 10 7 2
158 209 110 70 80 33 28 28 27 18 2 1 1 1 6 15 30 0 9 37 33 0 0 0 0 0 0 0 0 0 0 0 0 0 1 8 8 5 4 7 9 8 10
122 78 41 44 47 17 18 10 13 1 0 1 2 2 6 13 40 17 27 22 4 0 0 0 0 0 0 0 0 0 0 0 0 0 0 5 5 4 5 2 10 8 10
70 44 43 31 18 9 0 2 1 1 2 2 1 1 15 16 32 63 36 3 2 0 0 0 0 0 0 0 0 0 0 0 0 0 0 0 4 6 6 6 5 6 5
58 48 32 27 14 2 0 3 2 2 2 1 2 2 3 40 78 84 26 3 0 0 0 0 0 0 0 0 0 0 0 0 0 0 0 0 0 0 4 5 5 8 8
59 49 28 27 0 0 0 5 6 1 3 4 0 2 2 72 89 42 3 10 0 0 0 0 0 0 0 0 0 0 0 0 0 0 0 0 0 0 0 2 1 2 3
58 51 27 15 1 1 0 7 7 0 3 2 4 14 4 56 21 8 0 2 0 0 0 0 0 0 0 0 0 0 0 0 0 0 0 0 0 0 0 0 0 0 0
40 45 12 0 1 2 0 2 3 1 0 0 1 6 8 3 1 0 8 1 0 0 0 0 0 0 0 0 0 0 0 0 0 0 0 0 0 0 0 0 0 0 0
45 28 0 0 1 1 1 2 1 0 0 0 0 1 11 8 0 0 1 0 0 0 0 0 0 0 0 0 0 0 0 0 0 0 0 0 0 0 0 0 0 0 0
43 6 0 0 3 1 1 1 1 0 0 0 0 1 2 6 3 0 0 0 0 0 0 0 0 0 0 0 0 0 0 0 0 0 0 0 0 0 0 0 0 0 0
32 0 0 0 2 1 1 3 1 0 0 2 0 1 1 2 4 0 0 0 0 0 0 0 0 0 0 0 0 0 0 0 0 0 0 0 0 0 0 0 0 0 0
16 0 0 0 1 0 1 3 3 1 0 0 1 0 1 1 0 0 0 0 0 0 0 0 0 0 0 0 0 0 0 0 0 0 0 0 0 9 1 7 4 0 0
6 0 0 0 0 2 1 0 1 0 0 0 0 0 3 0 0 1 2 0 0 0 0 0 2 9 22 6 0 6 6 5 5 0 0 0 0 0 1 20 9 3 0

GFSSE_con_mlcape_075.txt.gz
CAPE
595 856 822 894 756 772 808 733 846 1173 1185 1126 1136 1010 1005 1117 1141 1133 1077 1016 1200 1120 956 925 881 847 814 737 675 593 455 445 419 437 475 500 538 543 491 408 398 445 368
575 985 893 860 805 832 783 793 988 1382 1414 1348 1266 1097 1176 1233 1195 1120 1016 1066 1164 1176 1122 1076 1069 1074 935 778 641 512 467 432 361 350 387 567 507 473 431 374 377 304 317
782 977 1052 880 1008 918 831 910 1213 1630 1660 1534 1384 1289 1307 1323 1209 1098 1035 1090 1198 1203 1236 1208 1189 1046 867 771 593 523 452 370 343 357 350 314 471 406 406 284 310 309 292
845 949 1117 914 1074 957 843 969 1288 1798 1824 1743 1570 1459 1452 1299 1231 1145 1147 1208 1155 1159 1101 1223 1212 1074 892 687 557 489 408 345 284 259 406 420 362 331 280 255 267 319 286
886 980 1114 931 1028 1021 871 968 1197 1615 1837 1810 1724 1597 1485 1359 1362 1282 1262 1224 1080 1013 1140 1172 1081 992 739 593 475 349 241 131 73 228 346 330 359 345 333 261 220 128 181
1026 1095 1070 1121 1112 1118 974 931 1215 1292 1545 1837 1802 1667 1565 1492 1485 1385 1270 1175 1159 1171 1177 1060 930 733 583 457 292 154 74 28 25 75 124 80 105 75 43 44 45 51 38
932 1091 1267 1299 1197 1158 1156 899 1189 1377 1183 1623 1713 1651 1605 1551 1529 1120 1101 1143 1051 1150 1181 992 805 609 430 269 114 43 1 0 18 27 9 17 8 4 5 7 7 10 8
950 1001 1173 1318 1318 1167 1126 1101 854 968 1135 1381 1575 1603 1435 1169 1162 872 808 687 932 1113 1032 843 612 452 305 129 38 0 0 0 0 0 1 3 5 8 8 5 2 1 4
1355 1328 1181 1221 1380 1246 1162 1084 823 548 409 820 932 700 530 391 444 425 354 397 756 885 855 630 437 291 187 76 4 0 0 0 0 0 0 3 7 10 10 9 9 6 7
1395 1356 1343 1244 1282 1359 1433 1022 845 594 294 285 314 319 181 110 126 155 154 296 418 709 574 421 321 214 127 24 0 0 0 0 0 0 1 5 9 5 9 17 9 9 8
1102 1207 1198 1238 1350 1138 1449 888 681 515 448 265 262 137 37 33 0 9 45 133 288 309 354 317 250 148 45 1 0 0 0 0 0 0 0 0 18 12 17 11 17 11 7
892 985 1070 1060 979 1008 1106 818 782 601 452 368 187 43 44 11 0 0 0 94 157 180 199 224 151 37 13 2 0 0 0 0 0 0 3 0 12 23 21 18 8 9 9
900 798 771 760 885 918 641 636 528 563 546 322 111 27 32 44 7 27 50 64 75 109 194 187 81 27 14 0 0 0 0 0 0 0 3 1 26 17 10 10 10 7 8
763 747 702 605 584 454 390 364 286 164 171 156 130 29 51 45 20 18 27 73 66 82 153 145 79 3 0 0 0 0 0 0 0 0 0 8 18 19 10 8 8 7 13
707 682 551 452 329 196 127 96 57 82 82 43 41 5 4 24 63 23 10 76 45 14 101 50 4 0 0 0 0 0 0 0 0 2 8 8 9 6 13 13 8 14 9
577 556 383 329 256 113 64 40 39 47 26 7 5 4 2 18 86 39 25 70 13 6 2 0 0 2 0 0 0 0 0 0 0 5 3 10 5 9 22 13 13 8 7
489 479 270 151 116 51 52 2 3 8 14 9 2 3 12 48 55 10 41 37 7 0 0 0 0 0 0 0 0 0 0 0 0 3 6 11 5 7 9 10 7 9 11
436 312 164 99 73 46 2 3 8 7 4 2 2 3 6 20 69 27 33 23 2 0 0 0 0 0 0 0 0 0 0 0 0 0 2 6 10 11 7 5 5 6 8
318 283 83 93 57 30 0 3 3 10 5 4 2 2 1 9 51 53 19 3 1 0 0 0 0 0 0 0 0 0 0 0 0 0 1 6 14 13 12 7 2 2 8
227 207 80 67 47 10 3 3 9 10 7 7 2 1 0 11 40 34 8 1 2 0 0 0 0 0 0 0 0 0 0 0 0 0 1 3 8 10 11 14 12 9 3
160 96 77 51 32 2 1 2 7 7 2 6 17 7 0 2 62 2 2 0 1 0 0 0 0 0 0 0 0 2 0 2 0 0 0 1 2 1 4 7 10 10 4
135 123 81 56 41 1 3 0 0 0 0 1 6 3 24 25 7 2 1 1 0 4 0 0 0 0 0 0 0 1 5 3 2 0 0 0 0 0 0 0 0 1 1
134 130 53 36 42 2 4 5 1 2 1 1 0 2 2 1 1 1 2 0 0 0 0 0 0 0 0 0 0 3 2 10 0 1 0 0 0 0 1 0 0 0 0
163 93 17 4 4 2 6 2 2 1 1 1 0 0 2 1 1 0 0 0 0 0 0 0 0 0 0 0 0 0 10 5 25 0 0 0 0 0 1 2 6 4 1
123 50 8 1 2 1 4 2 1 3 8 0 2 0 5 2 1 2 1 0 0 0 0 0 0 0 0 2 0 0 0 0 7 8 1 0 0 0 18 29 28 13 27
59 3 0 0 1 0 3 5 7 7 0 0 0 1 1 0 2 1 1 0 0 0 0 0 0 0 0 0 2 16 6 5 0 0 0 1 18 0 6 3 14 34 15

GFSSE_con_mlcape_078.txt.gz
CAPE
610 886 479 608 722 871 1055 798 991 1231 1078 939 964 959 993 1114 1188 1242 1221 1192 1227 1196 1213 1188 1033 942 931 872 684 700 767 720 697 696 652 702 741 667 539 488 520 592 550
976 1070 469 553 831 918 1087 976 918 1283 1221 1119 1102 1145 1190 1283 1290 1274 1261 1260 1262 1258 1235 1215 1095 1084 1060 945 862 741 635 648 666 592 589 699 716 650 517 468 519 564 537
1278 1565 1043 884 831 1013 1152 1074 1097 1313 1433 1327 1285 1286 1335 1399 1437 1340 1292 1391 1384 1235 1280 1270 1309 1303 1153 942 750 692 639 594 530 479 557 657 627 653 535 433 367 407 475
1153 1611 1561 944 907 1085 1102 1070 1219 1512 1649 1562 1471 1426 1465 1562 1503 1335 1249 1422 1446 1390 1422 1403 1332 1262 1021 795 715 648 575 547 499 443 633 579 521 581 528 466 529 481 446
1260 1509 1687 1051 1107 1214 1193 1112 1260 1619 1811 1791 1716 1627 1628 1605 1472 1366 1178 1450 1490 1433 1524 1508 1302 1167 904 744 686 593 506 458 485 644 430 398 475 525 513 545 431 326 371
1394 1490 1520 1066 1094 1203 1201 1202 1300 1743 1818 1886 1828 1766 1742 1649 1539 1311 1299 1387 1514 1467 1418 1253 1162 984 783 651 555 469 383 358 474 491 513 414 443 411 415 291 230 208 165
1592 1667 1576 986 1042 1093 1152 1194 1405 1505 1723 1898 1922 1845 1732 1612 1468 1084 1320 1265 1312 1380 1298 1170 1099 846 675 505 378 273 235 210 518 430 301 359 234 217 186 91 58 26 8
1733 1852 1833 1254 1156 1240 1141 1127 1298 1381 1348 1754 1832 1362 1532 1250 1253 925 846 1016 1095 968 975 1051 922 733 528 357 189 118 33 64 234 146 131 79 12 43 18 7 5 8 1
1886 1907 1927 1651 1498 1266 1224 1116 1006 1218 1003 583 935 588 717 533 666 415 387 419 546 671 945 939 767 580 369 184 90 27 1 12 133 77 63 14 1 5 7 3 3 5 7
2126 2212 1650 1763 1717 1739 1601 1068 996 838 675 485 579 363 279 270 220 184 184 265 238 640 853 738 594 379 198 77 13 0 0 0 80 51 38 15 8 11 5 5 1 4 5
1952 2060 1969 1728 1755 1686 1945 1730 1122 920 671 470 375 320 281 345 208 51 108 183 124 263 489 538 370 211 105 22 0 0 0 35 31 33 45 0 3 16 14 13 7 10 10
1807 1850 1926 1673 1653 1666 1642 1843 1548 1292 741 556 614 482 596 300 185 278 143 208 112 79 229 234 201 107 86 91 17 0 54 30 24 18 26 4 10 19 20 14 12 13 9
1600 1595 1761 1949 1762 1677 1523 1552 1570 1217 1010 721 725 492 431 269 138 23 51 141 137 87 163 176 167 245 180 131 44 37 33 17 19 15 4 0 16 22 20 17 16 8 10
1507 1521 1545 1467 1330 1433 1400 1256 1356 1289 1120 837 844 559 202 169 66 40 5 81 84 106 127 197 261 189 130 82 59 40 20 13 12 8 7 6 25 18 12 15 14 5 9
1450 1439 1466 1282 1042 1123 1009 879 887 1137 863 737 877 732 267 121 138 122 138 109 35 91 73 206 154 101 123 111 31 19 11 10 5 1 13 10 20 19 15 12 10 7 13
1339 1490 1522 1199 1142 1081 879 546 596 686 691 366 418 578 582 280 133 65 77 68 44 42 65 139 111 96 103 86 51 26 11 1 1 2 6 14 9 18 18 25 21 14 14
1242 1464 1460 998 866 927 810 363 236 275 314 259 248 256 171 107 88 56 48 70 43 32 48 94 77 79 96 62 54 8 1 0 0 2 9 14 11 8 21 27 18 15 14
1202 1352 1218 761 894 867 473 172 49 53 209 163 74 91 62 83 100 77 49 29 15 4 47 63 74 66 62 77 43 15 6 4 0 2 10 30 13 9 14 11 13 11 11
1252 1364 1180 817 742 551 303 78 34 38 59 39 30 13 32 68 87 54 57 23 3 1 5 63 94 87 56 71 32 22 20 12 1 0 18 38 11 9 10 5 10 9 13
1187 1406 1097 568 554 446 249 39 3 35 13 11 4 4 8 24 77 40 65 9 5 1 8 62 72 63 95 77 23 35 35 23 17 8 15 16 14 9 13 17 11 11 8
1241 1343 1034 529 469 236 78 11 2 23 12 10 5 3 3 3 4 72 31 2 2 0 1 21 97 84 64 73 17 38 20 7 12 7 13 11 3 6 9 16 11 4 0
1182 1252 926 584 351 218 94 2 3 1 6 25 18 8 15 34 27 4 5 3 1 2 0 16 47 70 50 47 26 23 15 21 10 10 14 23 2 0 4 8 8 5 3
1056 1146 840 605 467 262 203 83 95 6 11 9 12 6 1 114 21 6 2 5 2 2 0 12 36 35 30 33 34 13 27 12 9 10 8 8 3 8 0 1 1 0 0
885 1022 795 645 369 351 143 38 11 1 2 8 2 0 6 5 3 0 2 2 1 5 1 5 19 11 23 30 25 43 38 20 10 22 15 4 2 1 1 7 0 2 9
765 920 813 640 346 218 71 3 5 5 4 15 2 1 2 3 2 1 2 2 2 1 24 41 17 30 18 19 13 26 38 40 38 35 10 19 16 3 19 39 8 30 40
689 848 653 457 205 168 72 9 4 2 3 32 3 7 2 2 2 2 1 2 0 0 4 0 0 0 0 6 15 36 46 43 50 50 29 51 39 52 31 33 65 98 99

GFSSE_con_mlcape_081.txt.gz
CAPE
300 1140 614 926 1069 921 942 1266 1222 1036 961 843 882 917 1013 1141 1167 1160 1263 1236 1189 1247 1457 1372 1178 989 883 847 727 727 691 672 681 739 773 823 829 668 510 504 593 687 670
748 972 452 594 754 1116 982 986 1350 1281 1093 977 1053 1107 1082 1179 1265 1293 1360 1279 1282 1379 1513 1350 1192 997 1071 911 911 885 809 755 714 724 736 773 786 667 536 552 661 677 702
1152 1007 533 656 754 823 1235 1043 1157 1450 1301 1138 1131 1253 1183 1311 1446 1428 1423 1399 1429 1582 1570 1383 1197 1270 1162 1048 900 839 794 709 594 530 533 651 738 808 674 528 603 664 675
1112 1476 1120 669 902 1035 1143 1205 1126 1411 1527 1380 1272 1348 1045 1451 1482 1178 1482 1536 1601 1578 1383 1422 1456 1456 1171 944 849 797 720 563 472 563 645 586 696 728 573 524 693 715 650
598 1200 1586 780 870 1104 1232 1166 1205 1479 1696 1639 1467 1500 1375 1519 1548 1151 1235 1571 1511 1556 1296 1301 1568 1313 977 846 783 725 601 494 462 463 583 603 635 731 746 652 462 343 457
670 924 1481 1073 959 1115 1209 1148 1275 1556 1898 1873 1724 1643 1639 1559 1447 975 1017 1523 1467 1492 1331 1340 1317 1115 877 808 716 644 537 483 436 439 461 472 591 561 518 491 484 377 387
967 1302 1788 1106 891 1060 1258 1210 1342 1638 1738 1876 1829 1784 1665 1537 1417 853 993 1412 1480 1217 1313 1182 1262 963 839 751 645 567 470 554 479 528 474 448 540 515 517 394 291 226 178
1335 1644 2007 1146 1008 1145 1297 1291 1372 1483 1700 1812 1787 1532 1598 1148 1024 665 624 810 761 789 840 1082 1072 909 790 670 557 500 409 349 342 450 407 389 254 336 319 205 104 56 13
1722 1908 2216 1588 1318 1160 1189 1281 1322 1473 1472 1509 1495 837 955 592 468 252 375 410 482 404 665 876 914 796 677 484 430 350 167 69 224 147 227 175 84 109 49 42 15 3 0
1932 2076 2335 2014 1930 1790 1666 1263 1152 1252 1250 1000 985 664 613 526 373 325 255 133 216 287 399 653 620 590 406 255 221 103 46 32 151 60 55 24 2 15 12 14 13 9 8
1853 2129 2083 2046 2030 2009 1789 1695 1189 1109 965 850 694 568 393 622 379 221 69 36 89 210 187 324 311 322 174 154 87 0 11 31 54 58 40 0 0 1 7 5 8 6 3
1705 2019 2490 2091 2113 2027 1596 2013 1755 1692 1235 1022 663 782 630 725 403 60 0 0 55 141 190 215 184 132 124 105 21 5 77 72 50 65 10 0 0 8 7 2 5 8 9
1625 1881 2031 2144 2055 1962 1565 1894 2000 1620 1349 1216 1011 980 692 692 246 72 29 44 152 135 225 139 107 187 248 164 99 50 59 17 45 57 0 0 0 16 11 10 12 11 9
1443 1721 1853 2164 1961 1782 1520 2050 1785 1450 1365 1346 1131 945 609 599 404 211 247 208 174 157 115 122 115 244 163 111 98 32 23 26 38 40 0 0 9 23 18 13 11 14 12
1137 1598 1832 1937 1716 1605 1624 1608 1758 1587 1542 1395 1158 973 648 556 318 98 110 147 88 135 93 109 109 219 137 76 75 21 16 32 30 38 0 0 21 18 17 22 16 14 13
870 1479 1771 1933 1562 1472 1375 1306 1424 1607 1502 1371 1173 1019 731 537 344 131 60 97 202 160 68 58 79 124 127 73 58 21 28 20 2 8 5 17 13 18 13 16 17 18 16
221 1334 1851 1992 1655 1528 1400 1186 1250 1128 1079 836 928 956 674 569 325 213 197 161 72 81 46 36 77 92 134 96 48 31 32 4 0 7 11 14 15 15 11 14 31 23 25
177 1276 1868 1848 1542 1458 1210 1088 754 846 922 637 664 579 545 416 424 105 65 83 65 41 52 52 66 88 58 75 23 47 20 2 2 4 8 7 10 12 6 25 30 16 21
525 1354 1870 1723 1377 1387 1217 675 423 442 397 476 409 197 340 284 242 94 81 30 23 39 56 32 54 80 45 41 20 40 22 10 2 3 10 13 0 5 12 22 21 14 13
758 1457 1849 1649 1505 1320 986 546 574 196 93 54 78 156 211 129 62 102 42 11 18 22 47 18 40 57 64 29 21 29 25 19 9 8 12 14 5 7 6 4 4 3 5
1012 1618 1857 1629 1418 1127 768 501 304 226 253 67 34 14 21 30 124 130 40 5 3 10 6 17 34 50 47 29 19 17 23 21 26 17 13 2 10 9 20 15 0 0 0
1163 1610 1812 1531 1289 1027 724 413 225 224 277 173 109 36 8 8 29 19 37 5 3 9 10 8 30 44 69 30 15 23 26 30 25 9 3 7 10 22 17 9 4 0 0
1058 1605 1735 1459 1150 875 661 397 175 47 128 92 94 84 29 109 85 54 12 13 15 1 0 0 24 48 51 20 16 2 20 15 17 21 11 12 15 14 14 8 1 0 0
987 1448 1632 1447 1147 884 667 328 227 166 24 82 34 75 61 49 109 77 7 6 8 1 1 0 29 41 31 34 38 42 24 9 9 28 25 10 19 11 11 4 1 0 0
950 1404 1555 1381 1177 891 729 533 236 61 97 81 29 18 4 5 0 2 5 2 2 2 1 0 24 24 45 39 55 82 49 40 42 33 13 13 19 8 2 0 0 0 0
803 1348 1440 1373 1188 936 863 497 199 95 86 134 68 27 2 1 1 1 1 2 3 3 1 0 24 37 34 31 62 61 54 33 59 35 42 49 26 24 11 16 9 13 27

GFSSE_con_mlcape_084.txt.gz
CAPE
1170 698 766 794 1021 1163 1156 1065 1025 1007 963 856 924 827 809 853 956 1144 1161 1147 1172 1342 1516 1390 1202 1046 1015 930 758 677 638 709 738 726 690 677 700 534 476 580 657 686 659
1262 759 795 902 934 1070 1251 1220 1109 1054 1025 976 1010 1012 943 1015 1157 1269 1199 1173 1258 1565 1651 1487 1265 1060 1005 936 771 673 668 669 685 714 722 767 637 575 543 655 667 684 689
1207 612 674 851 1088 1081 1114 1376 1330 1200 1138 1166 1142 1072 1067 1188 1214 1248 1281 1312 1454 1591 1712 1476 1115 1126 991 830 742 774 719 682 630 592 614 652 787 765 692 569 700 705 703
1023 486 663 703 790 1008 1153 1124 1419 1491 1385 1329 1273 1249 1148 1220 1223 1258 1415 1433 1566 1459 1535 1493 1334 1351 1200 951 877 804 711 617 483 590 616 699 800 704 650 731 757 753 702
1312 889 1066 609 650 730 945 1233 1250 1507 1622 1501 1413 1417 1157 1117 1036 1182 1222 1405 1419 1455 1464 1454 1415 1405 1005 894 849 752 553 370 499 504 637 649 648 752 834 776 629 575 557
1095 1213 1034 452 681 852 939 1082 1219 1416 1695 1681 1602 1413 1514 1315 1040 1071 1083 1260 1397 1393 1209 1337 1398 1147 881 799 774 656 451 503 496 466 452 495 581 609 577 532 525 477 421
1252 1590 1373 950 763 1005 1165 1180 1238 1488 1795 1890 1779 1696 1613 1430 1034 860 991 1119 1391 1129 1211 1205 1319 939 802 740 728 552 562 521 440 493 444 459 474 629 629 513 423 369 306
1645 2215 1602 1197 1040 1091 1202 1172 1214 1530 1755 1790 1735 1664 1650 1559 1061 738 687 730 773 611 665 694 882 886 770 709 659 539 557 379 449 383 363 313 332 488 473 326 193 113 53
1784 2258 2047 1229 1089 1091 1169 1159 1231 1418 1381 1515 1602 1643 1563 1145 806 648 471 275 115 254 398 413 821 783 736 640 593 458 338 277 254 387 281 207 186 313 304 150 31 3 0
2127 2278 2541 1758 1344 1217 1114 1107 1188 1338 1424 1524 1533 1430 1197 795 727 458 314 0 82 186 220 313 584 701 586 503 467 309 142 134 149 188 177 104 210 239 140 66 14 6 0
2179 2280 2692 2269 2128 2005 1878 1378 1091 1153 1333 1182 1095 959 820 784 581 469 109 67 117 57 126 224 237 266 316 317 239 128 64 30 145 75 93 66 100 79 18 24 23 17 12
2126 2173 2514 2021 2307 2244 1837 1714 1515 1432 1244 1124 999 851 986 923 631 384 51 46 3 68 96 134 150 129 132 164 160 48 95 122 49 40 27 17 8 3 1 15 15 15 5
1812 2171 2737 2084 2408 2287 1770 2097 1816 1781 1601 1362 1129 1019 1035 999 557 26 0 1 14 63 114 100 51 109 177 160 128 91 146 91 34 26 21 7 0 1 3 8 12 10 6
1459 1968 2708 2275 2131 2170 1677 1794 1774 2065 1827 1461 1304 1053 906 849 331 40 0 0 19 110 144 133 126 145 167 215 184 166 117 69 28 24 12 0 0 0 9 10 13 9 12
1084 1710 2075 2416 2206 2268 1999 1787 2035 1862 1552 1431 1363 1197 993 895 534 406 145 20 42 151 136 134 105 71 96 128 182 154 17 63 37 20 1 0 0 0 14 16 21 6 11
181 1575 2050 2301 2271 2094 1854 1774 1747 1770 1755 1471 1282 1176 975 745 583 493 412 227 141 153 146 76 42 57 63 57 69 37 11 40 15 2 0 0 0 3 7 12 8 3 10
14 762 2022 2189 1997 1792 1534 1613 1456 1472 1753 1561 1377 1104 1019 711 484 221 166 196 84 135 103 31 39 32 68 63 41 44 34 19 3 0 0 0 1 12 8 18 23 11 10
0 266 2120 2193 1851 1674 1477 1368 1223 1200 1436 1213 1082 890 898 641 491 247 93 79 170 108 43 18 23 36 58 60 47 26 9 0 0 1 6 0 0 5 8 14 15 20 22
0 78 2077 2154 1889 1852 1581 1261 938 845 1170 958 833 907 682 577 342 247 165 133 58 42 38 35 27 36 54 41 29 23 2 0 0 9 1 0 0 1 3 12 15 14 16
0 752 2246 2090 1764 1678 1502 949 594 559 700 780 622 530 446 376 310 264 115 46 29 31 22 23 30 23 36 8 16 25 19 0 0 3 11 0 0 0 0 0 8 8 7
65 1541 2308 2002 1602 1579 1113 706 567 352 325 281 227 147 260 211 216 133 71 25 20 17 25 35 24 27 34 13 17 25 27 14 3 4 19 8 0 0 0 0 0 0 0
632 1505 2313 1987 1700 1629 1122 717 778 499 397 124 72 44 62 130 143 60 54 11 8 15 15 14 9 31 13 35 12 8 18 18 18 15 10 2 12 7 4 1 0 0 0
782 1650 2180 1930 1828 1546 1131 897 646 516 370 160 63 87 45 30 25 78 80 9 2 5 4 13 4 15 30 32 16 0 2 5 4 14 4 5 16 9 1 15 4 0 0
677 1850 2079 1935 1684 1526 1148 836 553 298 247 166 72 76 92 110 80 88 5 2 2 17 4 10 4 11 32 23 30 12 12 2 0 0 5 3 5 5 3 9 2 3 11
759 1715 2034 1890 1573 1388 1140 832 544 327 240 115 148 96 68 25 69 103 7 4 5 8 3 7 8 7 19 17 21 27 18 45 12 2 0 0 1 7 1 0 7 1 0
789 1723 1972 1820 1500 1284 1184 797 656 371 197 100 93 51 12 0 0 5 4 2 4 5 1 4 3 5 20 30 33 37 54 39 35 34 11 19 4 0 0 0 0 0 0

GFSSE_con_mlcape_087.txt.gz
CAPE
676 836 1050 1023 967 952 943 957 912 885 801 693 594 526 614 849 1079 1224 1204 1188 1206 1301 1381 1237 1104 1092 1036 752 666 690 660 554 492 460 578 723 757 692 866 736 731 719 735
755 887 1027 1111 1124 1080 1012 998 1014 1024 982 883 742 680 684 791 989 1202 1290 1420 1453 1610 1450 1287 1187 1242 1035 942 723 729 751 716 635 600 609 638 766 863 875 718 702 705 716
706 911 1027 1109 1205 1215 1172 1123 1095 1130 1128 1069 994 888 857 864 996 1144 1267 1386 1648 1777 1691 1415 1315 1271 1060 827 715 717 722 762 766 671 650 693 825 952 833 737 722 716 717
780 959 1011 1000 1066 1240 1335 1296 1240 1230 1283 1242 1156 1061 996 1029 1151 1168 1205 1342 1581 1735 1693 1453 1355 1350 933 684 653 674 680 683 745 638 631 738 914 936 817 784 768 790 746
450 813 1016 1026 995 1107 1263 1411 1394 1385 1393 1341 1270 1290 1159 1061 1025 1117 1192 1315 1532 1615 1650 1522 1509 1265 750 699 652 620 531 558 620 564 649 646 748 834 891 759 735 716 593
315 818 626 727 837 1018 1246 1273 1418 1526 1538 1503 1404 1365 1339 1126 1118 1062 1129 1226 1529 1457 1461 1440 1591 1036 728 695 607 517 417 518 472 555 555 672 728 754 768 685 614 561 519
1187 1078 544 655 794 965 1094 1270 1345 1472 1608 1628 1632 1534 1523 1200 1104 1102 1074 1040 1396 1378 967 1339 1361 824 749 697 549 405 460 466 438 476 465 516 593 706 758 668 545 510 459
1487 1370 925 842 888 1086 1172 1186 1261 1416 1635 1761 1770 1758 1710 1452 1194 955 905 720 647 557 527 636 847 769 699 672 487 461 462 470 425 418 426 420 514 624 660 582 422 329 253
1811 1508 1254 1034 957 1108 1178 1119 1180 1424 1662 1775 1718 1613 1637 1575 1330 890 721 460 294 249 212 234 557 738 662 577 463 456 382 350 321 323 313 341 469 527 500 385 245 129 41
1930 1818 1361 885 795 981 1130 1133 1174 1330 1263 1388 1472 1611 1753 1524 1094 787 591 400 154 0 8 91 327 534 592 435 388 355 291 316 255 212 151 280 364 473 418 269 110 4 1
2057 2011 1860 1103 873 836 843 1055 1178 1276 1274 1397 1612 1566 1223 1079 798 786 426 163 7 0 1 17 170 222 157 273 268 240 129 124 140 128 130 343 460 498 317 149 19 13 6
1982 2266 2127 1950 1583 1402 1485 1156 977 1096 1164 1091 1064 906 941 859 676 544 238 52 0 0 51 15 130 106 89 160 175 113 18 12 67 106 136 266 425 329 221 50 21 20 13
1993 2406 2214 2102 2263 2056 1850 1413 1160 1031 901 894 801 737 976 762 469 378 249 103 52 10 25 5 92 88 91 127 119 80 18 14 13 91 117 162 177 171 79 4 17 16 9
2075 2212 2180 2041 1979 1991 1961 1656 1473 1478 1260 991 826 917 972 679 399 233 185 75 19 55 50 46 6 106 104 129 109 84 36 7 5 29 70 46 30 9 13 14 19 19 8
685 2260 2225 2211 1991 1786 1910 1898 1515 1873 1633 1330 1099 1062 982 710 520 198 47 21 3 0 33 74 27 66 145 112 76 55 11 3 11 13 21 9 1 0 5 9 14 12 12
0 1819 2322 2328 2030 1717 1560 1704 1251 1748 1743 1491 1236 1028 956 798 550 320 43 0 4 83 120 73 38 70 131 126 77 79 0 0 1 7 6 0 0 0 0 5 4 15 9
0 43 2262 2187 2088 1739 1462 1714 1430 1568 1509 1412 1251 1133 1020 931 729 480 237 47 1 113 134 88 41 43 33 45 47 32 1 0 0 0 0 0 0 0 0 8 13 10 4
0 0 2111 2197 2128 1927 1768 1554 1259 1334 1475 1283 1126 1088 953 876 787 536 427 217 95 85 77 78 44 33 19 36 30 24 8 0 0 0 0 0 0 0 0 12 14 13 12
0 0 2089 2064 1987 1785 1588 1311 945 1148 1241 1194 1108 998 943 858 672 393 293 236 146 59 31 27 11 19 19 35 28 20 0 0 2 1 0 0 0 0 0 4 7 5 11
0 0 1824 1930 1769 1462 1271 1069 861 713 934 981 902 771 864 721 581 369 170 124 40 12 10 8 0 14 31 19 23 6 0 0 0 1 0 0 0 0 0 2 4 9 6
0 154 1696 1866 1723 1348 1114 993 773 479 556 874 674 661 617 530 463 218 108 67 11 14 22 19 28 20 20 9 0 1 0 0 0 0 0 0 0 0 0 0 0 0 0
0 801 1782 1919 1727 1231 986 822 584 319 383 447 530 429 453 374 269 141 96 35 11 8 21 22 4 16 20 18 1 3 0 1 9 0 5 0 0 0 0 0 0 0 0
35 1327 1844 1830 1604 1188 911 848 591 334 348 345 306 118 67 137 168 119 59 5 5 4 2 11 13 9 22 22 6 0 0 2 6 16 6 4 1 0 0 0 0 0 0
1035 1897 1820 1692 1556 1136 1063 854 633 506 457 308 153 122 63 61 135 141 86 22 16 10 13 6 9 1 15 9 7 0 0 1 0 4 4 4 5 3 2 0 0 0 0
1740 2022 1767 1713 1489 1155 957 739 580 546 493 298 136 121 117 65 52 43 30 26 24 28 23 24 1 7 11 0 0 0 7 20 12 0 0 0 0 0 0 0 0 0 0
1467 1854 1777 1706 1562 1236 920 722 626 535 405 301 119 115 70 49 59 31 21 20 16 28 20 28 13 0 0 8 11 3 15 17 11 13 0 0 0 0 0 0 0 0 0

GFSSE_con_mlcape_090.txt.gz
CAPE
869 1076 1215 1112 1024 1001 907 829 744 634 513 450 557 739 882 995 1107 1216 1298 1212 1074 1167 1534 1390 1174 992 882 881 839 694 700 725 656 658 762 1061 1065 995 910 855 881 918 900
708 1174 1336 1235 1156 1147 1056 991 941 850 728 612 578 737 918 1076 1153 1224 1268 1322 1397 1360 1465 1363 1157 1197 1042 858 700 621 544 520 605 711 926 967 1017 1065 919 800 803 852 837
626 1110 1394 1307 1255 1270 1233 1206 1191 1103 955 795 711 748 888 1114 1244 1284 1350 1511 1587 1590 1565 1450 1371 1482 1125 784 739 717 630 603 632 791 931 964 1065 1095 920 825 802 808 818
736 1105 1323 1365 1359 1326 1290 1295 1338 1321 1173 1002 888 851 935 1150 1235 1311 1477 1620 1753 1741 1675 1625 1574 1456 1061 796 769 805 753 732 676 672 727 711 1105 1105 974 857 869 904 879
832 1095 1215 1421 1465 1409 1334 1330 1368 1394 1284 1148 1083 1029 1122 1196 1259 1280 1364 1336 1732 1698 1751 1694 1611 1273 724 632 714 767 717 546 512 513 494 748 970 1057 989 936 906 857 776
860 1017 1126 1263 1420 1512 1447 1380 1405 1420 1366 1287 1289 1192 1218 1289 1326 1225 1248 1394 1694 1709 1641 1574 1532 742 551 561 646 660 712 490 434 479 596 754 773 925 925 867 780 665 573
487 765 1020 1222 1322 1390 1436 1466 1495 1495 1491 1433 1418 1430 1352 1362 1304 1296 1210 1186 1415 1232 1083 1066 965 548 568 529 537 495 395 463 462 486 558 620 732 911 925 771 655 614 534
159 503 696 996 1168 1272 1352 1348 1413 1499 1532 1555 1515 1510 1538 1456 1440 1268 1205 1090 928 744 741 817 513 462 480 524 354 366 353 444 414 468 515 558 754 737 788 730 624 573 536
576 463 608 915 1084 1146 1231 1235 1268 1430 1542 1610 1620 1639 1575 1558 1440 1278 1065 993 741 633 460 420 249 376 280 373 303 320 384 426 362 366 407 542 536 724 741 643 559 452 345
1273 1105 880 730 876 1172 1242 1188 1249 1422 1542 1652 1698 1676 1596 1714 1636 1250 1019 808 568 455 390 304 138 273 206 213 291 291 367 375 321 308 348 388 631 681 637 501 380 242 115
1406 1440 1280 980 722 941 1065 1159 1307 1434 1548 1564 1595 1594 1611 1711 1373 1098 808 682 447 403 333 112 27 29 117 136 176 230 283 209 228 225 227 419 547 637 541 369 226 104 41
1529 1550 1386 846 559 826 1077 1108 1204 1314 1291 1350 1469 1580 1493 1294 978 840 685 565 79 19 22 21 23 7 126 73 106 127 100 106 137 155 237 304 637 650 536 315 87 34 25
1518 1726 1804 1378 725 680 939 885 954 1086 1079 1113 1327 1196 1030 927 769 714 467 417 106 17 23 69 69 100 92 58 62 35 21 45 69 109 207 193 504 494 480 209 47 22 16
1816 1883 2041 1929 1506 1089 1259 1176 881 819 884 864 804 880 729 619 541 511 379 180 69 61 20 0 9 1 63 67 49 29 0 6 71 100 153 150 312 320 398 220 72 27 13
1761 2182 2162 2293 2053 1663 1511 1537 1230 1056 873 758 713 848 681 443 323 250 205 173 162 129 91 0 0 35 47 54 40 33 0 5 63 85 112 143 182 167 232 146 56 19 12
1009 1994 2300 2267 2329 1977 1635 1719 1523 1302 1258 984 765 821 741 547 338 236 195 251 200 158 118 7 0 8 54 82 42 17 3 0 2 24 47 60 17 29 64 103 52 26 19
0 727 1874 2295 2293 2031 1665 1744 1532 1476 1636 1331 974 894 867 637 499 294 242 243 172 146 83 79 10 12 27 65 51 3 0 2 0 0 7 1 0 0 1 8 5 13 14
0 11 1160 2118 2304 1991 1703 1705 1345 1493 1537 1502 1147 913 857 700 602 441 300 148 102 105 59 50 17 18 9 43 35 9 2 4 0 4 0 0 0 0 0 3 6 10 16
0 0 563 1657 2193 2142 1556 1526 1416 1471 1359 1332 1118 968 850 800 685 589 438 290 62 56 122 72 30 25 33 45 36 12 0 0 0 0 0 0 0 0 0 3 8 12 18
0 0 433 1196 1896 2020 1454 1325 1157 1291 1262 1088 986 958 875 769 690 592 451 348 238 92 31 30 8 14 27 32 54 35 0 0 0 0 0 0 0 0 0 0 7 7 9
0 0 351 1197 1750 1824 1436 1268 967 859 1066 1077 864 802 766 714 652 532 327 320 314 121 13 1 1 15 13 38 63 6 0 0 0 0 0 0 0 0 0 0 0 0 3
0 0 600 1131 1376 1767 1381 1162 744 420 495 418 714 599 630 638 444 469 373 237 136 31 3 2 3 0 9 39 16 0 2 0 0 0 0 0 0 0 0 0 0 0 0
0 22 587 1102 1178 1462 1215 588 376 247 279 367 509 492 460 460 460 387 326 191 38 4 2 6 5 1 18 1 2 0 1 0 0 0 0 0 0 0 0 0 0 0 0
0 69 796 1118 1353 1174 917 764 720 544 311 245 325 372 382 397 330 252 157 57 17 3 1 2 11 19 21 2 1 0 0 0 0 0 0 0 0 0 0 0 0 0 0
73 376 1112 1415 1272 967 1034 775 611 380 250 198 244 355 210 80 156 154 96 61 27 0 4 4 11 2 14 1 0 0 0 0 0 0 0 0 0 0 0 0 0 0 0
320 1626 1569 1539 1174 949 907 690 643 433 286 295 271 221 109 101 109 99 121 91 17 1 11 34 33 6 13 0 0 0 0 0 0 0 0 0 0 0 0 0 0 0 0

GFSSE_con_mlcape_093.txt.gz
CAPE
613 819 890 1148 1228 1076 776 594 523 504 594 632 737 1112 1280 1393 1241 1072 1153 1142 1286 1431 1364 1425 1368 1245 1300 1208 948 957 1001 1039 895 887 1126 1171 1113 1044 1074 1028 1022 1000 961
618 962 954 1255 1379 1144 919 755 643 613 634 692 737 943 1297 1469 1449 1467 1397 1213 1120 1486 1469 1434 1293 1227 1188 983 845 895 949 985 833 975 1157 1071 1062 1053 1060 955 972 979 965
817 1093 1043 1311 1407 1251 1095 988 866 741 694 703 794 921 1119 1315 1498 1514 1366 1277 1495 1728 1655 1535 1405 1299 1129 857 760 797 789 878 944 1029 1095 991 960 1014 1049 965 979 917 906
816 1237 1222 1294 1417 1342 1234 1220 1159 973 788 760 831 981 1160 1223 1339 1393 1400 1470 1668 1733 1547 1578 1630 1290 983 782 681 741 713 805 960 1033 938 986 1012 970 1075 997 994 1052 995
1214 1363 1385 1412 1463 1439 1373 1399 1380 1250 999 862 886 1005 1188 1334 1364 1422 1461 1510 1771 1600 1641 1369 1464 1202 785 688 756 797 726 717 773 742 854 913 727 951 988 1028 914 997 886
1130 1314 1404 1470 1427 1406 1454 1523 1517 1340 1153 1023 1013 1097 1200 1364 1384 1406 1488 1570 1756 1672 1548 1566 1436 856 670 663 814 791 701 650 556 555 685 875 863 1030 1103 1005 873 815 858
1006 1259 1428 1476 1428 1427 1457 1521 1557 1443 1314 1258 1212 1185 1237 1350 1382 1318 1348 1650 1738 1491 1303 1081 869 611 506 644 828 685 575 496 462 511 595 607 832 956 1028 915 756 692 723
705 1081 1241 1393 1429 1483 1567 1551 1525 1504 1456 1419 1430 1289 1328 1345 1354 1268 1273 1451 1201 1030 906 838 769 524 530 654 767 599 518 436 418 452 460 509 855 955 919 801 658 631 682
807 753 918 1133 1286 1402 1496 1577 1536 1540 1555 1530 1550 1547 1488 1408 1383 1339 1283 1257 1239 903 815 791 537 381 507 462 517 333 510 408 375 363 397 644 721 897 791 730 663 631 588
555 767 837 906 987 1018 1262 1390 1465 1567 1588 1611 1636 1627 1617 1518 1408 1349 1323 1296 1148 775 765 660 383 353 289 252 284 142 276 383 351 357 409 519 709 831 811 721 655 555 453
357 381 613 756 889 918 1027 1303 1405 1539 1640 1637 1676 1713 1645 1631 1512 1370 1175 1136 973 728 605 533 376 213 109 91 127 70 204 288 270 289 351 566 667 792 747 619 499 329 232
620 279 375 566 728 777 888 1051 1233 1515 1678 1657 1672 1708 1656 1566 1473 1234 1040 989 832 559 531 404 151 109 37 37 89 96 109 172 174 236 329 490 596 699 636 504 325 235 140
1329 1160 1096 940 725 694 846 958 1066 1362 1392 1444 1405 1477 1471 1429 1279 890 776 612 403 307 309 183 65 20 4 36 69 44 51 108 116 129 255 336 640 671 541 440 314 206 121
1723 1476 1413 1124 771 645 690 658 822 1038 1131 1123 1240 1319 1319 1250 919 618 563 443 98 63 28 4 36 80 17 29 72 57 33 87 82 104 197 229 313 606 514 462 295 58 58
1380 1979 1646 1315 959 748 740 618 607 743 864 929 969 1179 1111 858 658 517 491 279 119 41 0 40 106 129 42 42 82 57 28 57 67 101 142 126 135 318 352 349 220 66 36
99 1698 2087 1805 1512 1131 918 627 605 685 665 765 799 928 833 519 407 341 199 129 55 15 7 4 0 53 14 35 70 63 13 40 77 85 104 81 128 130 254 278 221 92 32
0 10 1999 2193 2072 1802 1446 1185 993 925 842 750 774 781 687 484 260 178 70 116 61 32 52 0 0 11 14 21 53 55 5 17 50 52 91 102 115 76 131 162 111 58 34
0 0 751 2173 2327 2231 1855 1645 1458 1318 1115 1000 794 784 690 496 277 160 123 106 51 58 81 12 1 0 22 36 24 41 4 1 7 19 25 29 0 0 6 62 75 35 19
0 0 69 1486 2217 2465 2170 1861 1598 1461 1331 1252 1038 911 812 668 465 321 150 105 70 70 41 61 4 0 0 8 13 12 6 10 16 10 14 0 0 0 0 0 0 2 15
0 0 0 726 1519 2349 2031 1639 1467 1367 1331 1380 1374 1189 915 810 629 450 245 123 106 87 29 7 22 2 0 0 4 1 1 0 2 3 6 0 0 0 0 0 4 9 17
0 0 0 558 1282 2020 1876 1662 1517 1515 1301 1278 1290 1261 1034 846 636 550 374 187 98 41 17 15 5 0 0 14 39 0 0 2 1 1 0 0 0 0 0 0 0 0 9
0 0 0 329 899 1553 1695 1716 1446 1491 1191 1061 1007 1081 948 791 645 561 419 262 201 148 48 5 0 2 4 7 33 0 1 0 0 1 0 0 0 0 0 0 0 0 0
0 0 2 353 884 1255 1685 1358 966 856 695 549 783 908 648 686 536 490 360 273 249 60 47 8 0 2 4 8 0 0 2 1 0 0 0 0 0 0 0 0 0 0 0
0 0 21 426 867 1564 1567 1231 1069 1022 839 821 957 818 560 538 504 451 313 328 264 138 10 0 1 2 0 6 2 0 0 0 0 0 0 0 0 0 0 0 0 0 0
0 9 71 737 1209 1564 1227 1126 1014 934 610 323 364 330 506 406 402 399 372 329 202 36 7 1 2 2 0 1 3 2 0 0 0 0 0 0 0 0 0 0 0 0 0
1 22 591 1126 1362 1323 1034 874 989 749 385 318 235 215 346 331 347 345 279 190 113 42 17 0 2 1 3 6 1 0 0 0 0 0 0 0 0 0 0 0 0 0 0

GFSSE_con_mlcape_096.txt.gz
CAPE
164 677 801 1022 1153 1107 804 597 510 711 968 1158 1263 1301 1232 1087 972 826 773 906 1110 1572 1791 1687 1376 1246 1189 1293 1161 1047 809 946 1014 847 994 1207 1210 1150 1207 1128 1071 1004 981
336 842 962 1041 1230 1086 938 731 619 637 874 1017 1201 1347 1379 1243 1112 956 964 1068 1331 1697 1828 1669 1459 1430 1442 1113 970 1068 1051 985 911 894 1066 1204 1152 1225 1198 1098 1021 930 886
597 961 1028 1148 1292 1196 1090 910 796 810 840 1009 1101 1303 1433 1418 1272 1164 1136 1149 1371 1658 1710 1563 1441 1431 1187 925 914 1000 1012 949 873 989 1158 1057 921 1053 1202 1063 1050 936 898
760 1052 1058 1229 1371 1328 1173 1053 969 979 1011 1036 1169 1271 1475 1564 1430 1440 1337 1280 1585 1685 1643 1570 1491 1460 1043 812 816 902 962 919 1013 1131 989 858 928 1082 1176 1030 1012 1082 1012
964 1103 1140 1378 1511 1470 1284 1137 1102 1077 1090 1044 1110 1336 1573 1709 1662 1591 1447 1570 1807 1731 1449 1611 1637 1294 843 714 716 770 901 967 1034 890 901 803 824 1044 1140 1046 1044 1038 1010
1064 1254 1273 1420 1571 1495 1397 1324 1230 1064 1036 1057 1166 1306 1436 1566 1670 1566 1513 1597 1882 1742 1635 1625 1306 1034 747 721 716 746 813 905 832 828 867 753 735 1016 1115 1041 980 937 930
916 1332 1360 1481 1569 1507 1511 1496 1419 1217 1102 1107 1206 1274 1382 1487 1537 1541 1608 1678 1852 1740 1587 1546 1339 945 771 800 818 754 715 757 697 791 836 655 634 917 1037 956 862 839 877
1052 1360 1462 1570 1642 1624 1607 1586 1541 1399 1307 1226 1228 1244 1395 1461 1450 1520 1594 1665 1830 1578 1330 1293 1024 786 745 828 841 735 629 655 605 673 730 604 810 816 1037 897 779 833 836
1130 1325 1474 1598 1698 1620 1555 1517 1537 1456 1427 1426 1355 1341 1437 1522 1479 1474 1572 1707 1727 1251 1136 1111 919 734 651 731 537 524 544 551 487 544 542 481 717 1043 955 832 793 751 722
1065 1275 1463 1616 1703 1599 1523 1480 1468 1475 1507 1543 1556 1498 1427 1465 1505 1492 1488 1623 1398 1073 1024 1010 768 633 661 637 435 400 415 379 344 361 386 431 596 871 884 810 768 686 618
968 1095 1259 1440 1543 1563 1600 1568 1572 1583 1549 1632 1649 1618 1613 1483 1495 1465 1460 1474 1359 973 933 885 635 487 341 354 253 191 123 135 150 200 295 366 630 870 839 734 682 616 508
702 839 992 1050 1157 1277 1295 1481 1564 1634 1665 1645 1681 1667 1608 1559 1439 1358 1342 1390 1240 844 815 695 542 319 203 171 184 32 14 51 84 146 288 372 701 825 741 634 549 451 387
764 622 727 701 772 799 1003 1336 1358 1418 1457 1516 1506 1616 1609 1523 1475 1329 1148 1075 909 757 585 492 347 147 56 130 75 21 14 23 74 103 230 339 619 758 748 552 394 315 220
1528 1255 880 683 781 728 950 1069 1282 1228 1248 1248 1375 1549 1508 1449 1373 1180 1010 723 586 421 299 268 153 50 31 44 65 27 14 4 53 61 164 265 460 540 653 531 468 366 191
58 1260 1572 1250 956 881 859 922 974 1120 1118 1245 1262 1307 1405 1368 1270 1041 763 577 349 169 144 91 37 24 11 29 66 16 14 12 27 38 157 220 262 463 578 538 455 218 118
0 1 1170 1605 1457 1129 935 901 841 988 1018 1012 1080 1242 1331 1217 1105 920 593 406 248 21 1 0 0 8 25 13 19 18 12 26 24 43 151 162 160 149 352 431 334 175 43
0 0 0 995 1610 1427 1082 864 828 783 829 790 894 1174 1101 1017 806 573 379 221 157 3 1 0 0 28 57 37 11 43 9 57 27 51 111 103 157 108 95 243 216 108 78
0 0 0 90 998 1556 1438 1149 980 822 709 690 732 934 928 761 485 341 220 163 25 0 2 0 0 6 43 11 7 36 45 49 22 20 62 117 116 122 110 124 133 53 39
0 0 0 1 373 1102 1782 1608 1261 978 909 763 710 797 738 556 361 239 163 117 17 1 2 2 2 0 7 3 2 31 9 31 23 20 24 49 50 28 0 51 56 25 22
0 0 0 0 322 1216 1925 1777 1613 1321 1170 1061 794 809 731 563 371 327 211 118 31 2 4 7 1 3 11 8 9 19 8 12 33 33 14 6 11 1 0 0 0 0 1
0 0 0 0 132 1247 1952 1916 1700 1630 1478 1302 1091 914 817 727 496 533 330 134 39 49 12 6 3 7 5 12 12 0 0 2 4 10 22 2 0 0 0 0 0 0 0
0 0 0 0 10 932 1622 1913 1779 1665 1526 1432 1197 999 986 860 649 645 470 247 101 43 21 13 4 22 6 14 6 0 0 1 0 1 0 0 0 0 0 0 0 0 0
0 0 0 0 8 641 1657 1889 1474 1430 1180 1062 1004 910 624 773 740 657 467 268 209 77 44 62 42 8 30 21 0 0 1 0 2 0 0 1 0 0 0 0 0 0 0
0 0 0 0 0 1195 1768 1709 1422 1321 1101 1025 998 669 366 412 642 674 432 339 257 144 119 91 30 1 1 2 1 0 0 0 0 0 1 0 0 0 0 0 0 0 0
0 0 0 0 7 1308 1629 1591 1323 1254 1246 1035 899 0 3 284 479 498 412 309 273 145 102 116 34 9 2 2 2 0 0 0 0 0 0 0 0 0 0 0 0 0 0
1 0 2 1 323 1441 1596 1453 1136 1128 972 1001 878 259 137 343 397 443 428 315 197 151 123 106 39 5 4 4 1 1 0 0 0 0 0 1 1 0 0 0 0 0 0

GFSSE_con_mlcape_099.txt.gz
CAPE
411 1149 1221 1178 1121 786 679 859 1097 1291 1207 1087 1079 928 901 930 895 806 766 1074 1340 1616 1615 1591 1515 1286 1326 1368 1259 944 737 984 1077 1103 1007 1137 1209 1084 1125 1140 1072 1130 1048
551 1359 1117 1205 1214 925 765 885 1073 1368 1394 1319 1369 1296 1211 1133 994 897 824 997 1230 1612 1769 1570 1228 1250 1497 1358 1294 852 890 935 916 940 1202 1332 1252 1290 1296 1132 1070 1125 1064
632 1272 1190 1168 1280 1061 867 895 1089 1300 1557 1608 1613 1510 1374 1334 1153 952 907 971 1368 1866 1938 1674 1449 1562 1465 1126 1175 839 974 932 932 1046 1161 1141 1120 1310 1274 1070 1106 1040 1097
886 1209 1311 1183 1286 1173 994 886 1077 1317 1430 1628 1727 1705 1568 1517 1307 1182 1140 1284 1810 2000 1838 1812 1695 1496 1114 1040 1101 1086 1002 924 993 1182 1171 1054 962 1183 1211 1081 1012 1007 975
942 1256 1315 1203 1317 1260 1101 1025 1049 1197 1245 1344 1652 1871 1822 1670 1527 1429 1367 1558 1961 2000 1815 1826 1845 1389 957 922 971 1016 1015 969 1065 1104 1162 1040 1047 1062 1206 1166 1069 949 911
1118 1318 1430 1267 1369 1304 1126 1095 1099 1044 1059 1255 1477 1788 1983 1837 1638 1654 1548 1730 1983 1963 1884 1883 1864 1347 924 848 880 969 986 1028 997 1219 1062 1013 1064 1068 1138 976 1067 971 970
1420 1443 1530 1397 1418 1314 1219 1188 1147 1035 1014 1063 1326 1620 1879 1904 1819 1773 1616 1731 2093 1900 1817 1838 1566 1163 912 842 835 896 945 901 1086 1208 1137 989 883 958 1105 1092 982 942 919
1395 1594 1625 1540 1531 1439 1349 1274 1201 1082 1037 1050 1119 1337 1601 1840 1931 1798 1724 1786 1961 1893 1696 1627 1456 1155 984 933 857 779 850 882 959 1173 1245 1036 771 850 1142 981 853 873 860
1381 1548 1679 1838 1781 1609 1553 1443 1334 1200 1123 1121 1185 1268 1417 1513 1628 1735 1748 1668 1745 1680 1571 1636 1473 1143 1023 1010 878 703 708 785 974 1190 1233 1100 763 817 1020 921 820 789 769
1174 1467 1564 1668 1843 1954 1904 1644 1542 1378 1274 1238 1293 1369 1391 1370 1429 1572 1728 1749 1729 1689 1438 1269 1217 1045 982 958 788 628 627 614 842 972 1061 1063 710 695 944 875 780 691 666
972 1053 1291 1490 1673 1823 1865 1937 1725 1589 1480 1444 1468 1465 1511 1725 1687 1674 1758 1780 1582 1410 1198 1058 1085 932 883 776 671 633 567 668 517 534 862 656 566 544 857 790 650 564 569
909 907 1214 1199 1254 1477 1601 1736 2013 1998 1924 1870 1896 1965 1926 1880 1854 1832 1716 1528 1495 1168 1034 855 887 813 639 938 800 480 838 485 266 318 651 358 448 459 703 625 556 542 490
784 672 901 1003 1085 1084 1228 1436 1825 1833 1866 1795 1727 1861 2044 1972 1827 1743 1793 1731 1755 1236 1208 907 936 875 844 862 724 694 282 158 86 99 244 283 305 595 707 481 544 489 373
553 1045 640 691 837 900 950 1035 1514 1560 1594 1623 1588 1817 1719 1717 1705 1613 1466 1525 1662 1317 1094 1215 953 927 660 661 683 502 179 86 14 16 136 165 167 577 702 542 531 418 330
0 13 1103 939 681 626 839 955 1166 1381 1453 1446 1523 1763 1784 1613 1607 1368 1368 1207 1324 1094 918 835 744 633 541 510 632 402 130 76 8 12 92 114 113 420 653 675 480 399 324
0 0 13 882 1016 860 705 754 962 1209 1302 1370 1445 1556 1749 1649 1548 1269 1044 1093 980 834 599 490 303 408 377 362 249 151 149 64 4 3 54 89 94 235 464 656 582 527 309
0 0 0 12 774 1450 1217 1080 1020 968 1077 1097 1246 1460 1535 1543 1353 1159 915 903 743 595 300 92 48 35 101 239 241 52 89 24 2 4 37 57 99 126 176 243 310 305 173
0 0 0 0 190 1156 1510 1486 1347 1052 917 932 1022 1213 1370 1324 1128 941 824 683 510 361 116 46 23 2 8 14 12 36 122 8 0 24 18 3 236 190 83 51 107 192 87
0 0 0 0 0 93 772 1587 1588 1268 991 891 971 1095 1252 1173 985 813 682 462 405 278 128 29 2 1 2 27 34 90 19 1 0 29 13 35 204 193 189 60 72 119 39
0 0 0 0 0 0 749 1308 1603 1397 1248 1218 1062 1014 1145 1059 804 671 481 345 290 211 105 24 0 3 7 45 42 38 26 5 7 42 21 0 35 180 140 141 129 94 33
0 0 0 0 0 0 758 895 1017 1326 1390 1325 1178 1026 1072 902 684 541 374 257 236 190 128 50 2 4 16 20 28 11 7 7 3 0 22 45 15 6 60 115 110 85 52
0 0 0 0 0 0 131 1189 1252 1243 1456 1553 1349 1127 1048 851 630 488 434 304 261 198 131 83 32 3 15 20 17 7 5 0 1 11 35 25 9 0 2 5 12 11 21
0 0 0 0 0 0 1 1167 1616 1530 1609 1469 1437 1261 1117 931 677 577 528 370 293 246 148 101 61 12 4 20 7 8 2 3 1 1 6 15 3 0 0 0 0 0 0
0 0 0 0 0 0 0 868 1528 1322 1336 1546 1502 1373 1274 847 605 439 436 412 304 224 156 124 80 32 38 22 27 14 1 0 0 0 1 1 1 4 0 0 0 0 0
0 0 0 0 1 1 3 470 1633 1425 1572 1568 1541 1243 1085 860 687 134 0 154 314 280 181 130 70 66 64 46 13 4 1 0 0 0 0 0 1 1 1 0 0 0 0
0 0 1 2 3 1 28 504 1554 1473 1464 1489 1313 1117 1272 808 126 1 2 223 257 227 226 176 109 73 73 35 10 2 1 0 0 0 0 2 1 1 1 0 0 0 2

GFSSE_con_mlcape_102.txt.gz
CAPE
969 1710 1206 1203 977 899 938 998 1187 1400 1252 1002 893 767 836 873 891 1038 1223 1477 1496 1693 1840 1647 1555 1530 1342 1252 989 647 858 1071 1159 1101 1205 1216 1225 1234 1194 963 929 1104 1059
1205 2021 1296 1207 986 892 981 1062 1244 1428 1416 1207 1082 985 1024 1101 1066 1118 1301 1529 1526 1860 1708 1815 1912 1788 1543 1390 1150 956 868 1061 1203 1172 1223 1381 1329 1363 1149 870 1117 1051 1028
1303 1958 1540 1290 1042 893 983 1100 1400 1583 1570 1356 1260 1180 1260 1341 1287 1245 1357 1588 1890 2030 1997 2029 1643 1592 1822 1542 1288 871 902 1067 1059 1128 1123 1193 1185 1369 1204 1164 1133 1066 1053
1387 1870 1934 1372 1136 929 918 1078 1424 1754 1650 1566 1533 1437 1547 1544 1459 1375 1351 1526 1834 2185 2133 1897 1784 1815 1684 1446 1231 915 1077 1039 1090 1127 1119 920 1131 1374 1267 1229 1002 1142 1027
1535 1696 1755 1370 1165 978 855 982 1319 1682 1786 1760 1780 1680 1681 1645 1520 1377 1248 1457 1861 2292 2246 2078 1994 1957 1459 1232 1234 995 1104 1082 1157 984 1129 910 1022 1320 1299 1143 1045 1060 819
1567 1602 1725 1393 1242 1049 866 888 1112 1392 1665 1910 1995 1923 1826 1817 1644 1471 1279 1645 2220 2277 2160 2170 2162 1479 1177 1191 1247 1224 1161 1135 1126 1228 990 983 1046 1286 1270 918 946 799 934
1810 1745 2016 1502 1466 1225 941 897 999 1107 1327 1612 1878 1970 1945 1926 1789 1581 1501 1792 2109 2266 2118 2076 2090 1491 1118 1113 1176 1187 1167 1109 1127 1138 883 1162 1126 1142 1295 1041 848 807 798
2148 2038 2228 1653 1602 1382 1164 1081 1021 1026 1164 1380 1563 1785 1955 2018 1868 1652 1653 1754 2061 2143 1939 1943 1869 1399 1131 1085 1097 1112 1098 1058 1148 943 763 974 1249 1179 1294 1104 765 827 939
2254 2132 2203 2231 1906 1573 1357 1245 1142 1048 1113 1217 1468 1689 1904 2018 1895 1846 1839 1821 1836 1903 1791 1928 1692 1244 1125 1090 1024 998 1030 974 1092 913 989 957 964 1088 1236 1054 829 916 889
2160 2178 2253 2366 2276 2276 2008 1458 1366 1230 1142 1149 1314 1514 1698 1931 2012 1966 1880 1917 1840 1748 1668 1656 1533 1386 1110 1124 1006 893 960 988 1118 1171 1166 952 827 836 1084 993 905 824 812
1927 2021 2092 2037 1907 2029 2419 2194 1613 1451 1313 1265 1351 1422 1571 1846 2073 2123 2049 2012 1874 1641 1732 1510 1431 1288 1119 1104 983 835 828 1162 1321 1216 1166 1025 899 699 1029 875 798 778 734
1895 1817 1904 1928 1827 1802 1754 2069 2259 2326 1990 1896 1841 1938 1878 1907 2098 1860 1930 2106 1832 1689 1642 1403 1148 1067 966 1270 1095 658 1018 862 1017 811 676 598 538 549 513 601 709 690 604
1041 1712 1715 1929 2023 2004 1808 1899 1930 2271 2310 2356 2291 2263 2119 2158 2202 2084 2160 2060 2002 1759 1623 1248 1288 1146 1041 1084 1023 878 773 831 798 599 548 273 327 346 314 489 477 413 497
0 31 1365 1736 1931 1933 1851 1668 1735 1920 1918 1929 2054 2203 2371 2421 2098 2057 1909 1985 1881 1907 1608 1581 1362 1327 1311 1149 1064 961 817 885 599 338 303 136 148 218 307 467 671 634 486
0 0 0 1199 1716 1766 1789 1532 1598 1698 1829 1891 2069 2045 2003 2251 2181 1964 1786 2001 1962 1848 1865 1685 1621 1507 1414 1193 1053 992 792 759 499 291 122 57 67 185 228 526 705 591 411
0 0 0 4 923 1602 1628 1554 1448 1417 1540 1623 1695 1703 1916 2016 2070 1964 1888 1841 1716 1768 1780 1764 1631 1481 1367 1046 849 799 804 567 504 258 83 52 17 105 144 572 685 617 487
0 0 0 0 2 866 1434 1542 1482 1311 1391 1416 1447 1599 1836 1946 2077 1749 1702 1660 1823 1744 1803 1651 1517 1363 1142 929 891 744 655 526 341 293 56 11 44 40 122 307 440 477 444
0 0 0 0 0 0 519 1083 1575 1646 1566 1446 1441 1473 1668 1847 1946 1763 1634 1566 1370 1426 1136 947 826 711 661 824 728 755 518 375 251 209 2 0 4 86 39 39 162 223 293
0 0 0 0 0 0 0 490 1037 1600 1972 1823 1568 1455 1601 1746 1804 1686 1440 1461 1278 1209 995 744 663 559 513 700 650 431 302 155 132 33 0 1 0 15 65 93 66 69 90
0 0 0 0 0 0 0 7 656 1001 1887 1890 1815 1586 1584 1754 1773 1590 1429 1160 1094 982 1063 797 554 356 277 302 110 63 93 249 98 10 5 12 20 15 99 51 3 2 60
0 0 0 0 0 0 0 0 184 778 1395 1364 1749 1832 1686 1728 1690 1512 1298 1021 915 822 817 620 373 186 143 184 120 62 45 66 13 4 1 1 9 11 43 188 121 99 86
0 0 0 0 0 0 0 0 0 565 842 1085 1462 2011 1831 1721 1713 1489 1224 995 875 816 705 611 422 130 139 133 80 43 26 1 21 10 11 10 34 4 18 112 129 82 95
0 0 0 0 0 0 0 0 0 353 982 1243 1484 1759 1870 1807 1651 1329 1086 895 797 708 725 782 403 215 179 157 97 88 7 12 1 4 6 16 6 13 8 19 24 73 54
0 0 0 0 0 0 0 0 0 10 1040 1189 1329 1699 1731 1676 1422 1183 930 795 720 659 689 665 466 346 241 168 146 158 160 19 30 0 0 20 38 13 27 16 5 10 22
0 0 0 0 0 0 0 1 6 0 1148 1357 1468 1587 1582 1526 1362 1162 810 680 128 611 674 660 577 581 332 202 153 121 122 58 134 32 0 1 8 4 10 5 3 0 0
0 0 0 1 0 0 0 1 2 177 664 1535 1483 1574 1535 1454 1286 1156 983 931 640 499 466 457 526 530 390 238 166 124 144 85 88 33 28 4 2 2 8 3 2 0 0

GFSSE_con_mlcape_105.txt.gz
CAPE
831 1678 1028 1214 1044 969 994 1154 1264 1011 975 1025 829 774 876 1040 1045 1059 1192 1393 1361 1439 1754 1641 1631 1687 1536 1473 1040 632 621 996 833 998 1113 1085 1098 1194 1101 917 832 1048 1040
1386 1971 954 1004 1161 1050 1057 1151 1284 1309 1137 1142 1048 921 1002 1107 1117 1281 1424 1609 1643 1640 1916 1847 1714 1777 1724 1658 1287 840 866 1091 1200 1203 1231 1370 1320 1288 1033 880 917 980 972
1648 2440 1276 1052 1148 1101 1099 1153 1265 1425 1437 1352 1274 1030 1154 1249 1201 1275 1486 1648 1741 2011 1894 1866 2034 1982 1801 1477 1139 938 992 1150 1285 1207 1038 1199 1231 1295 1074 1133 1089 842 1057
1711 1960 1900 1329 1171 1155 1108 1184 1387 1472 1627 1579 1395 1219 1319 1408 1328 1379 1526 1631 1800 1962 2007 2214 2175 2145 2073 1798 1372 1047 953 1166 1172 1043 1157 1311 1140 1300 1336 1167 797 933 1060
1310 1876 2279 1574 1237 1156 1094 1226 1528 1678 1825 1694 1502 1446 1458 1392 1389 1406 1484 1734 1965 2123 2169 2242 2062 2101 1886 1625 1304 1002 1108 1126 1086 998 1338 977 1130 1301 1449 1200 955 1018 816
1613 1894 1952 1779 1354 1193 1098 1266 1581 1846 1839 1776 1731 1785 1668 1570 1559 1542 1445 1644 1958 2260 2114 2113 2205 2077 1693 1377 1360 1070 1173 1113 1073 1220 1382 1010 1210 1286 1448 1140 1136 869 915
2202 1913 2084 1708 1435 1275 1055 1134 1427 1712 1894 1887 1885 1935 1962 1865 1733 1619 1417 1589 1803 2329 2323 2035 2082 1653 1255 1279 1310 1199 1154 1145 1266 1074 921 937 1231 1114 1377 863 976 708 748
2592 2190 2533 1783 1467 1363 1071 996 1210 1426 1661 1947 2073 2088 2078 2052 1932 1643 1409 1544 1725 2151 2007 2051 2114 1605 1183 1197 1250 1250 1195 1100 1113 1361 885 843 1288 1028 1430 1325 795 750 738
2565 2702 2494 2624 1753 1467 1269 1054 1044 1189 1346 1548 1851 2108 2194 2161 1998 1715 1581 1637 1891 1920 1858 1900 1911 1681 1221 1148 1182 1149 1128 1063 1110 972 708 985 1178 933 1486 1230 759 735 778
2323 2553 2742 2622 2243 2096 1896 1269 1100 1037 1096 1245 1485 1801 2058 2188 2082 1869 1771 1809 1859 1900 1859 1923 1852 1532 1172 1111 1076 1010 1007 908 1117 1283 735 642 1121 1006 1407 1166 795 658 734
2043 2329 2421 2632 2619 2499 2371 1990 1381 1230 1128 1151 1331 1555 1808 2277 2432 2345 2159 2107 1886 1873 1764 1675 1573 1562 1255 1105 1035 950 896 1079 945 1058 860 910 904 952 1084 1081 811 578 794
1530 2097 2417 2185 2216 2281 2558 2609 2099 1894 1642 1594 1517 1738 1861 1864 2163 2158 2242 2111 2051 1877 1688 1570 1572 1492 1359 1408 1301 937 1061 994 1099 1041 930 756 633 798 1011 655 551 629 562
13 1902 2123 2368 2423 2305 2273 2431 2529 2313 2219 2186 2090 2087 1996 2007 2101 2030 2106 2169 2304 1994 1955 1833 1823 1717 1456 1227 1411 1349 1130 1161 882 1055 789 536 338 697 622 380 467 653 480
0 0 1541 2043 2357 2490 2558 2328 2374 2422 2532 2288 2252 2404 2329 2193 1987 1975 1584 2058 2136 2108 1891 1886 1823 1638 1476 1417 1390 1389 1234 1032 1111 979 477 200 117 250 379 303 258 369 333
0 0 0 423 1513 2191 2364 2343 2301 2261 2232 2246 2325 2492 2180 2003 1975 1767 1642 1708 2042 1753 2020 1853 1783 1676 1448 1347 1244 1278 1289 1023 1120 579 516 93 66 93 212 274 276 294 291
0 0 0 0 6 923 1650 2183 2111 2084 1967 2079 2012 2160 2280 2409 2339 1932 1796 1715 1504 1837 2164 1856 1887 1692 1680 1480 1292 1203 1227 1102 1015 779 554 190 17 21 198 211 357 408 484
0 0 0 0 0 0 658 1355 1696 1892 1745 1582 1721 1893 1914 2071 2334 2137 2017 2027 1658 1709 1959 1960 2043 1798 1763 1520 1323 1213 1218 1182 900 721 504 348 51 23 107 148 108 50 587
0 0 0 0 0 0 0 50 953 1159 1759 1711 1507 1743 1948 2043 2214 2305 1987 1923 1934 1620 2054 1948 1933 1814 1681 1467 1228 1133 1053 1005 810 694 500 375 113 107 64 117 85 36 501
0 0 0 0 0 0 0 0 6 786 1371 1678 1761 1797 1940 1850 1931 2241 2045 1847 1870 1666 1936 1746 1806 1747 1678 1415 1238 1053 922 786 699 644 373 237 63 53 129 84 28 36 7
0 0 0 0 0 0 0 0 0 3 927 1394 1562 1964 2105 2131 2065 2288 2083 1847 1776 1481 1693 1412 1206 1275 1168 1247 1028 713 741 650 636 331 205 81 14 40 28 73 16 55 49
0 0 0 0 0 0 0 0 0 0 24 768 1234 1526 2124 2212 2255 2236 2066 1902 1724 1352 1689 1366 1100 1033 971 925 767 379 340 380 404 271 103 57 5 0 52 76 4 32 77
0 0 0 0 0 0 0 0 0 0 0 149 915 1329 1800 2220 2279 1984 1969 1911 1704 1505 1627 1377 1039 856 806 696 483 66 18 0 44 192 81 6 4 0 10 22 31 67 61
0 0 0 0 0 0 0 0 0 0 0 2 992 1216 1534 2065 2163 1908 1883 1995 1670 1484 1370 1251 1069 765 635 558 320 198 19 2 1 10 90 4 2 0 0 18 26 105 132
0 0 0 0 0 0 0 0 1 0 0 0 283 1125 1468 1682 1890 2056 2003 1732 1537 1425 1280 1201 1099 865 783 472 416 372 369 225 70 0 4 18 11 4 4 8 31 20 30
0 0 0 0 0 0 0 0 0 2 1 0 66 1082 1454 1814 1989 2023 2017 1727 1453 1203 1191 1207 1006 862 854 601 413 268 533 326 137 130 1 1 3 2 9 4 7 14 23
0 0 1 0 0 0 0 0 2 3 2 0 186 939 1550 1893 1749 1932 1753 1581 1351 1272 1124 1146 533 1053 942 729 555 435 373 224 123 181 125 48 8 2 18 15 14 3 13

GFSSE_con_mlcape_108.txt.gz
CAPE
1623 1001 904 1081 1146 1229 1235 1085 933 975 966 882 772 643 645 775 698 691 752 999 1343 1549 1760 1780 1487 1436 1558 1541 1162 609 280 660 730 864 813 898 1042 1088 927 777 1103 990 1035
2061 1106 914 1093 1068 1140 1224 1194 1026 976 1062 1013 890 777 790 864 854 993 1161 1142 1354 1564 1639 1702 1632 1525 1504 1487 1091 492 420 900 878 956 944 1107 1153 1094 917 818 1084 968 913
2303 1662 1132 1177 1063 1072 1142 1266 1277 1132 1167 1207 1119 980 970 987 949 1160 1392 1575 1490 1696 1980 1874 1681 1789 1755 1603 1246 722 693 979 1038 995 1002 1067 1015 1205 1022 977 899 854 943
1891 2445 1358 1123 1183 1159 1176 1256 1349 1426 1378 1344 1343 1270 1152 1047 1049 1229 1431 1598 1577 2044 2002 1850 2014 1978 1863 1508 1205 879 875 990 1006 929 883 1091 926 1197 1163 1163 861 822 957
885 2685 2128 1210 1121 1267 1202 1270 1333 1444 1563 1557 1540 1513 1247 1128 1093 1184 1382 1501 1521 1973 1888 2105 2258 2109 1957 1757 1403 1018 848 883 918 911 885 708 721 1304 1351 1002 831 857 862
1701 1848 2299 1713 1243 1300 1209 1266 1386 1549 1692 1710 1607 1632 1393 1297 1267 1242 1358 1497 1578 2090 2037 2100 2059 2011 1805 1635 1348 1053 902 875 836 903 760 554 163 1048 1338 1002 912 728 1001
2349 2294 2208 1889 1499 1286 1255 1259 1472 1688 1753 1762 1645 1635 1588 1469 1436 1373 1307 1460 1782 2209 2136 1976 2016 1897 1728 1395 1394 1164 955 857 824 1018 735 417 544 756 1156 1144 978 661 810
2363 2701 2017 1810 1647 1336 1220 1178 1453 1698 1826 1807 1755 1789 1837 1695 1617 1512 1347 1348 1575 1873 2100 2064 1959 1707 1296 1236 1307 1220 981 866 876 982 751 518 187 893 1137 986 883 679 756
2387 2913 2666 2108 1754 1454 1206 1170 1298 1541 1792 1919 1923 1960 1989 1924 1812 1670 1440 1359 1499 1605 2127 1864 1759 1756 1303 1149 1230 1216 1114 1004 804 1018 789 440 592 802 1166 1030 905 695 690
2278 2482 2903 2914 2146 1645 1338 1136 1168 1309 1454 1667 1932 2074 2071 2035 1972 1888 1552 1420 1473 1822 1947 1776 1745 1701 1455 1160 1150 1139 1073 977 781 677 941 575 198 1078 1324 1135 956 798 690
1756 2319 2197 2598 2489 2159 1969 1464 1106 1146 1194 1354 1571 1845 1991 2199 2113 2068 1786 1632 1618 1897 1798 1727 1684 1611 1459 1190 1105 1065 1015 1009 950 733 847 586 615 884 1110 947 835 602 660
10 2521 2223 2150 2460 2416 2487 2162 1332 1277 1182 1218 1415 1604 1970 2191 2537 2354 2150 1826 1861 1787 1801 1725 1623 1555 1442 1367 1120 1018 997 1091 907 968 980 686 737 741 802 488 395 417 420
0 1710 2635 2153 1915 1988 2172 2583 2073 1797 1545 1556 1563 1794 1727 1977 2242 2208 2262 1995 2056 1872 1891 1704 1489 1518 1608 1576 1588 1359 1180 1192 964 952 890 706 520 528 660 530 364 255 319
0 0 2343 2509 2275 1927 1911 2200 2654 2563 2162 2084 1922 2020 2220 1889 2029 2356 1955 2270 2138 2193 1962 1819 1654 1783 1685 1632 1429 1369 1413 1253 1203 898 858 518 511 400 309 431 404 324 210
0 0 0 45 1427 2209 1834 2069 2215 2220 2389 2382 2549 2390 2251 2363 2245 2210 2192 2031 2190 2107 2070 1804 1864 1849 1728 1469 1464 1321 1309 1165 1176 911 550 352 232 125 238 298 548 325 312
0 0 0 0 0 0 1644 1564 1725 1939 2107 2426 2396 2445 2616 2621 2161 2080 2117 1668 2166 1757 1834 1809 1738 1803 1710 1535 1314 1289 1211 1190 1178 769 416 219 80 25 52 302 341 317 339
0 0 0 0 0 0 0 52 1463 1605 1671 1863 2233 2364 2159 2371 2492 2337 2169 1999 1546 1989 1415 1708 1768 1809 1661 1612 1470 1405 1229 1174 1135 932 711 196 44 0 0 189 162 139 76
0 0 0 0 0 0 0 0 0 6 1725 1890 1860 2136 2347 2047 1904 2223 2153 1863 1998 1648 1849 1966 1703 1859 1619 1593 1419 1495 1317 1211 1169 817 729 469 289 153 49 0 53 111 171
0 0 0 0 0 0 0 0 0 0 0 1443 1898 1824 2028 2064 1810 2052 2175 2103 1777 1730 1663 2010 1776 1759 1665 1509 1364 1167 1117 1148 970 823 605 430 247 96 64 38 14 74 59
0 0 0 0 0 0 0 0 0 0 0 1 1102 2010 1882 2010 1967 1880 2184 2126 2010 1750 1620 2068 1771 1778 1631 1422 1336 1090 1058 987 802 605 559 384 186 52 28 83 2 1 0
0 0 0 0 0 0 0 0 0 0 0 0 26 1010 1834 1975 1972 1920 2049 2010 1866 1806 1719 1937 1621 1449 1319 1267 1010 1050 781 668 681 571 329 181 58 6 6 0 0 10 0
0 0 0 0 0 0 0 0 0 0 0 0 0 1 877 1368 1662 1907 2044 1980 1774 1518 1452 1705 1320 1208 1094 943 823 588 339 194 129 415 377 72 8 1 0 0 0 32 29
0 0 0 0 0 0 0 0 0 0 0 0 0 0 0 1259 1426 1627 2012 1986 1531 878 160 1400 1255 1092 921 951 614 425 111 59 48 82 225 113 0 1 3 0 0 36 50
0 0 0 0 0 0 0 0 0 0 1 0 0 0 0 1125 1293 1685 1705 1784 1461 1010 1030 635 1130 1097 786 769 799 623 435 288 84 21 80 125 2 2 1 0 2 3 32
0 0 0 0 0 0 0 0 0 1 1 0 0 0 0 3 1274 1425 1649 1640 1594 1209 620 1097 1079 974 709 600 711 721 573 558 547 227 15 12 10 1 0 0 0 0 19
0 0 0 0 0 0 0 0 0 1 2 3 3 0 0 1 192 1158 1331 1794 1722 1413 1273 1078 227 787 800 781 813 768 539 497 642 318 158 27 0 2 0 0 0 0 14

GFSSE_con_mlcape_111.txt.gz
CAPE
1205 919 1214 1270 1228 1213 1262 1198 1111 957 851 758 536 393 495 522 551 742 980 1329 1483 1480 1573 1662 1653 1570 1477 1422 1027 561 598 626 837 943 891 915 1085 1072 893 1172 1084 1180 851
1589 1046 1265 1193 1243 1262 1203 1080 961 916 932 841 628 471 550 521 503 566 703 1115 1421 1610 1696 1537 1396 1430 1418 1476 1055 467 484 748 940 972 928 808 1063 1132 1179 1317 1054 1193 973
1690 1104 1245 1175 1183 1318 1284 1105 1036 1043 1060 970 803 609 627 553 556 647 704 1079 1346 1479 1510 1553 1473 1383 1366 1285 967 490 349 838 1014 997 1057 794 1149 1190 1187 1278 990 1011 1125
1888 1400 1156 1178 1177 1249 1343 1347 1193 1226 1235 1135 1031 826 721 658 685 825 897 908 1080 1411 1515 1441 1374 1426 1446 1241 940 622 524 909 1033 1085 1249 908 1119 1097 1279 1173 918 989 1043
2368 1790 1327 1203 1177 1179 1205 1344 1409 1361 1323 1338 1273 1130 919 796 875 1023 1077 1156 1149 1966 1988 1624 1661 1832 1649 1356 1079 840 828 890 1021 1038 811 880 738 958 1163 1154 975 943 1045
2169 2195 1725 1311 1249 1260 1189 1254 1387 1486 1462 1455 1496 1444 1083 956 1032 1082 1103 1159 1371 1998 1879 2149 2079 1790 1674 1579 1377 1067 885 819 1005 922 587 268 96 956 1136 891 884 915 892
2355 2323 1987 1630 1088 1141 1245 1255 1343 1490 1593 1578 1642 1616 1354 1144 1119 1100 1126 1165 1263 1870 2054 2017 1791 1630 1592 1381 1305 1150 937 863 989 698 518 55 0 0 311 846 853 959 944
1904 2236 1957 1710 1456 1168 1170 1217 1346 1533 1689 1708 1656 1660 1595 1331 1183 1167 1177 1238 1359 1898 2146 2003 1759 1654 1485 1235 1150 1185 1055 897 954 747 465 240 3 43 450 771 988 1073 1010
2038 2379 1986 1813 1666 1485 1196 1135 1301 1580 1760 1763 1670 1621 1674 1508 1341 1293 1271 1309 1420 1682 1879 1988 1863 1617 1265 959 998 1088 1088 997 972 597 603 345 131 151 699 907 1013 892 793
2216 2187 2300 2105 1901 1606 1324 1146 1192 1410 1675 1784 1770 1757 1824 1792 1667 1554 1417 1399 1387 1467 1534 2020 1798 1581 1400 989 872 1007 1056 1034 986 828 680 591 192 746 739 692 916 756 702
1955 2241 2609 2516 2038 1756 1402 1185 1126 1281 1467 1732 1920 1954 1953 1995 1935 1837 1685 1468 1411 1377 1433 1862 1624 1542 1444 1165 897 917 979 945 930 842 579 653 505 77 860 823 1023 847 720
1252 1993 1873 2371 2272 1912 1726 1314 1005 1051 1158 1355 1612 1786 1953 1985 1942 1956 1823 1579 1398 1391 1597 1727 1636 1485 1363 1127 914 855 823 887 923 804 749 646 512 634 981 848 903 776 687
329 1998 2037 2039 2288 2050 2307 1883 1363 928 934 1050 1200 1393 1636 1871 2024 1952 1841 1701 1566 1558 1650 1676 1607 1465 1291 1144 1017 853 769 803 858 817 804 739 710 641 525 444 617 638 653
0 710 2313 2125 1993 1912 1661 2305 2005 1417 978 936 1007 1297 1241 1404 1762 2187 2038 1847 1613 1702 1584 1500 1416 1400 1246 1226 1177 1062 1079 973 909 842 769 679 675 631 411 316 444 322 254
0 0 42 1152 1186 1515 1717 1843 2446 2133 1774 1453 1210 1318 1577 1406 1400 1763 2078 2065 1939 1820 1662 1569 1453 1353 1176 1177 1213 1080 1183 1029 1087 933 798 639 516 578 526 453 401 406 301
0 0 0 0 0 0 154 956 1485 1716 1921 2056 1969 1692 1771 1837 1676 1672 1907 1902 2029 1983 1789 1617 1514 1466 1438 1341 1225 1211 1163 1037 1022 884 572 378 307 254 185 230 611 622 583
0 0 0 0 0 0 0 0 0 242 1352 1314 1579 1826 1980 1929 2079 1883 1792 1797 1878 1922 1831 1595 1388 1403 1573 1487 1378 1204 1092 1026 945 869 491 223 97 30 1 30 433 503 428
0 0 0 0 0 0 0 0 0 0 0 0 1054 1304 1443 1768 1941 2231 1865 1776 1488 1724 1644 1633 1432 1366 1394 1415 1348 1236 1143 1038 991 883 652 342 82 12 0 0 296 341 156
0 0 0 0 0 0 0 0 0 0 0 0 0 325 1405 1478 1658 1698 1897 2036 1738 1510 1525 1502 1343 1275 1373 1341 1220 1176 1135 1085 995 899 686 413 247 146 35 25 0 113 53
0 0 0 0 0 0 0 0 0 0 0 0 0 0 59 1480 1645 1492 1424 1671 1812 1693 1485 1534 1451 1322 1291 1354 1257 1130 897 923 964 854 669 512 341 151 36 0 0 0 40
0 0 0 0 0 0 0 0 0 0 0 0 0 0 0 38 1206 1612 1645 1493 1409 1501 1523 1347 1450 1518 1321 1304 1155 962 708 764 778 723 644 545 380 127 6 0 0 0 0
0 0 0 0 0 0 0 0 0 0 0 0 0 0 0 0 0 742 1556 1615 1682 1393 1352 1218 1090 1158 1206 1274 1100 784 681 540 546 691 539 459 298 69 3 0 0 0 0
0 0 0 0 0 0 0 0 0 0 0 0 0 0 0 0 0 0 555 1424 1709 1527 1250 1058 999 695 593 929 693 545 404 296 177 154 398 296 206 35 0 0 0 0 1
0 0 0 0 0 0 0 0 0 0 0 0 0 0 0 0 0 0 4 786 1149 1448 1118 823 437 17 0 9 437 509 155 49 58 25 94 294 199 27 9 0 0 0 1
0 0 0 0 0 0 0 0 0 0 1 1 1 1 0 0 0 0 0 31 708 957 902 627 162 0 25 273 0 167 456 218 114 41 7 123 170 50 4 0 0 0 0
0 0 0 0 0 0 0 0 0 1 1 3 2 4 3 1 0 0 0 0 521 596 674 646 449 210 326 293 257 537 481 431 476 279 90 81 86 41 2 1 1 0 0

GFSSE_con_mlcape_114.txt.gz
CAPE
825 1023 1337 1073 1098 1140 1166 1086 921 734 602 423 386 505 553 661 801 909 1019 1136 1394 1655 1850 1525 1555 1557 1665 1377 825 480 490 612 718 723 751 877 1068 1204 1296 1172 1107 1172 1112
1247 1140 1409 1264 1263 1273 1284 1207 966 855 789 557 399 470 488 564 755 933 1050 1194 1448 1644 1833 1782 1675 1584 1639 1440 853 540 629 702 783 791 779 857 1104 1312 1341 1219 974 1159 1186
1443 1109 1390 1383 1367 1366 1364 1298 1117 906 870 720 481 445 456 451 538 718 969 1225 1371 1402 1401 1416 1502 1606 1503 1417 997 516 700 867 933 956 920 811 1147 1583 1464 1108 1016 981 1220
1509 1241 1249 1365 1433 1352 1205 1180 1213 1226 1061 902 665 544 476 440 468 596 874 1151 1313 1375 1333 1330 1307 1330 1358 1216 973 597 539 858 941 1068 793 891 1152 1454 1502 1068 1073 1019 1112
1809 1384 1257 1254 1272 1414 1251 1121 1201 1313 1248 1086 896 721 644 595 644 623 700 905 1053 1174 1236 1351 1445 1426 1366 1204 887 595 609 795 1008 1062 808 738 998 1248 1413 1053 1036 1150 908
2106 1691 1305 1231 1222 1253 1336 1319 1224 1328 1278 1211 1133 929 770 820 882 835 766 800 986 1421 1833 1613 1557 1893 1700 1424 1141 917 767 721 1006 802 696 789 856 1056 1191 1010 872 971 1033
1879 1943 1446 1299 1275 1194 1215 1325 1367 1342 1334 1334 1311 1261 958 920 995 979 968 994 1150 1711 1795 2169 2117 1900 1702 1591 1365 1072 828 683 862 619 433 147 35 939 922 1037 919 977 927
1336 1996 1888 1584 1390 1242 1202 1214 1341 1398 1393 1396 1459 1545 1273 983 1013 1017 1047 1072 1146 1581 1730 1986 1883 1592 1584 1472 1288 1153 913 788 886 629 570 90 0 109 1013 1000 948 868 906
1463 1602 1903 1762 1441 1146 1122 1186 1263 1377 1456 1528 1580 1644 1581 1120 988 1045 1054 1073 1098 1282 1788 2011 1859 1592 1532 1418 1218 1153 1040 857 725 622 550 308 0 34 489 1166 907 826 940
1769 1719 1715 1749 1635 1504 1285 1213 1262 1376 1496 1578 1657 1687 1655 1367 1116 1076 1072 1160 1158 1245 1788 1933 1841 1750 1415 1142 953 1021 1047 962 765 618 617 507 271 351 668 949 1030 855 969
1987 1929 1866 1844 1798 1676 1516 1292 1299 1385 1535 1707 1727 1697 1658 1704 1505 1353 1260 1204 1239 1269 1486 1641 1836 1703 1449 1272 1013 902 957 926 872 727 533 603 473 494 1201 788 850 894 868
1389 2180 2192 2111 2027 1709 1601 1403 1233 1388 1497 1664 1829 1818 1827 1792 1751 1711 1561 1373 1315 1216 1238 1374 1735 1602 1446 1283 1094 935 830 847 821 735 591 538 524 879 385 725 801 817 658
0 1096 2330 2174 2155 1765 1690 1305 1091 1083 1165 1391 1587 1716 1782 1813 1852 1882 1756 1617 1426 1335 1267 1329 1598 1561 1389 1216 1038 918 819 767 757 749 693 657 634 649 591 1034 795 752 558
0 109 1988 2064 2097 2069 2014 1730 1331 975 914 956 1083 1358 1450 1570 1642 1757 1694 1591 1421 1348 1187 1188 1368 1457 1321 1229 1058 914 873 764 735 710 680 617 682 665 795 700 597 580 621
0 317 1739 1589 1161 1637 2031 2068 2102 1814 1149 855 834 1022 1160 1171 1211 1538 1633 1521 1429 1358 1311 1189 1236 1295 1283 1206 1118 1069 973 925 952 820 683 666 666 803 660 649 517 471 506
0 0 0 0 0 0 57 55 410 1185 1439 1170 1068 905 1143 1076 1094 1185 1553 1753 1730 1556 1382 1326 1249 1250 1248 1238 1081 1027 1089 1010 1053 921 781 631 539 520 753 582 559 404 497
0 0 0 0 0 0 0 0 0 0 0 274 1294 1505 1349 1321 1320 1266 1188 1497 1877 1811 1689 1537 1392 1273 1264 1216 1131 994 1075 1030 1003 875 769 619 485 393 461 464 494 640 647
0 0 0 0 0 0 0 0 0 0 0 0 0 0 508 1526 1574 1379 1443 1280 1315 1870 1783 1711 1584 1390 1291 1247 1142 1122 1021 1045 1003 832 653 506 329 242 141 55 104 404 574
0 0 0 0 0 0 0 0 0 0 0 0 0 0 0 0 651 1265 1216 1046 1120 1247 1605 1693 1586 1440 1175 1101 1104 1115 1148 1037 905 794 667 514 344 126 19 0 1 162 405
0 0 0 0 0 0 0 0 0 0 0 0 0 0 0 0 0 310 1090 1097 924 817 961 1199 1489 1397 1258 1057 991 1024 1140 945 843 819 720 586 375 189 127 75 3 15 114
0 0 0 0 0 0 0 0 0 0 0 0 0 0 0 0 0 0 0 912 1084 984 968 902 880 1002 1058 1073 932 852 724 763 785 689 698 635 450 302 287 148 33 0 0
0 0 0 0 0 0 0 0 0 0 0 0 0 0 0 0 0 0 0 0 398 1075 1072 808 798 714 738 671 827 834 668 603 544 620 609 615 503 342 194 77 27 0 0
0 0 0 0 0 0 0 0 0 0 0 0 0 0 0 0 0 0 0 0 0 223 1016 1154 710 659 544 416 349 190 127 312 390 317 501 440 354 247 129 49 15 0 0
0 0 0 0 0 0 0 0 0 0 0 0 0 0 0 0 0 0 0 0 0 0 71 832 818 648 484 146 0 0 0 35 94 75 128 412 307 242 109 40 4 0 0
0 0 0 0 0 0 0 0 0 0 1 0 1 2 0 0 0 0 0 0 0 0 0 520 745 372 196 11 0 0 0 0 23 13 21 80 203 143 70 41 7 0 0
0 0 0 0 0 0 0 0 1 2 3 3 2 4 3 1 0 0 1 2 2 0 0 86 587 351 35 6 0 1 39 78 25 0 11 18 35 63 61 25 22 0 0

GFSSE_con_mlcape_117.txt.gz
CAPE
651 1067 1177 1102 1169 1149 1108 735 489 382 471 599 646 798 1060 1172 1165 1174 1281 1332 1402 1458 1872 1914 1625 1766 1445 869 435 462 636 685 704 690 836 1178 1342 1482 1351 1163 1076 900 857
783 1186 1239 1205 1272 1260 1220 976 702 527 508 624 701 730 832 1048 1200 1310 1426 1531 1639 1692 1745 1905 1638 1732 1501 977 591 440 432 524 665 737 913 1186 1439 1479 1291 1092 1075 899 462
1060 1116 1370 1281 1317 1362 1353 1183 1026 792 566 611 630 691 789 865 974 1052 1192 1385 1566 1843 1848 1655 1640 1689 1566 1028 624 420 511 714 805 824 982 1091 1320 1329 1326 1026 1095 1081 872
1282 1168 1427 1361 1388 1392 1399 1264 1146 1100 825 597 633 679 718 827 897 985 1156 1406 1610 1714 1835 1914 1894 1865 1502 1159 702 397 536 870 916 834 835 1072 1258 1404 1412 1093 1034 1312 1313
1398 1301 1382 1403 1367 1372 1367 1213 1102 1145 1026 763 593 629 639 666 787 965 1123 1328 1441 1448 1483 1539 1574 1522 1291 1057 682 400 485 924 948 887 695 945 1224 1116 1104 1114 1002 1297 1275
1517 1353 1368 1387 1291 1233 1190 1165 1181 1136 1040 913 696 605 655 702 768 864 1034 1245 1328 1221 1236 1346 1373 1085 1015 903 584 454 520 824 927 1000 638 770 947 1179 1178 858 989 995 1083
1735 1537 1325 1331 1346 1347 1258 1170 1243 1276 1150 1052 943 774 699 760 831 733 825 1073 1221 1226 1506 1445 1296 1441 1404 1170 939 725 581 663 826 638 613 702 812 978 1281 973 943 1060 887
1513 1750 1435 1329 1338 1331 1313 1316 1253 1315 1303 1191 1108 1049 842 809 866 876 810 917 1132 1558 1805 1763 1845 1741 1515 1327 1166 889 659 599 806 523 367 261 179 627 977 959 837 1015 1000
1580 1625 1708 1630 1506 1380 1262 1252 1313 1361 1337 1272 1252 1310 1184 920 926 975 1012 1031 1124 1693 1726 2033 1895 1597 1311 1220 1135 960 780 688 664 509 499 155 85 247 1324 985 886 1070 1016
1182 1457 1540 1739 1645 1457 1270 1244 1292 1425 1406 1320 1311 1444 1471 1173 967 1006 1044 1122 1173 1400 1673 1932 1899 1621 1384 1266 1068 955 897 781 569 460 415 298 184 0 414 1273 1012 1017 1105
1315 1587 1632 1740 1659 1465 1288 1246 1337 1407 1471 1487 1531 1591 1606 1555 1204 1089 1136 1119 1164 1166 1418 1856 1934 1797 1496 1160 908 800 848 767 631 521 378 453 533 396 797 1009 1186 1078 1113
391 1142 1681 1749 1698 1591 1589 1452 1355 1398 1603 1684 1736 1707 1705 1669 1465 1358 1226 1146 1199 1216 1287 1738 1922 1841 1656 1192 973 808 718 738 729 682 515 384 570 768 883 1075 1111 1087 1088
12 766 1563 1910 1903 1896 1788 1493 1351 1271 1375 1611 1695 1757 1709 1566 1563 1602 1454 1332 1295 1311 1319 1493 1726 1758 1639 1293 1047 860 679 640 649 675 643 553 450 809 1054 1221 604 1179 1071
6 0 1672 2317 2331 2089 1873 1592 1268 1256 1145 1211 1422 1649 1680 1648 1603 1653 1576 1497 1406 1345 1293 1239 1327 1548 1579 1360 1133 880 739 618 574 606 589 595 525 773 1111 1011 757 814 853
0 103 1626 1413 1602 1892 1872 1688 1797 1265 993 958 1003 1260 1489 1568 1577 1763 1659 1596 1452 1411 1353 1269 1221 1222 1404 1369 1139 945 770 661 600 542 541 570 522 684 855 922 761 560 567
0 64 11 9 18 14 5 1 45 196 602 1088 946 911 1120 1234 1251 1252 1373 1454 1378 1321 1310 1296 1205 1146 1174 1287 1184 1018 860 753 660 636 612 564 533 549 687 777 863 728 627
0 0 0 0 0 0 0 0 0 0 0 0 0 12 409 885 1070 1107 1107 1270 1335 1267 1285 1308 1245 1197 1148 1135 1200 1043 923 798 777 734 701 544 482 427 505 652 703 681 477
0 0 0 0 0 0 0 0 0 0 0 0 0 0 0 0 0 834 1147 1155 1185 1167 994 1127 1204 1293 1242 1160 1104 991 944 815 752 729 725 567 449 445 378 345 587 551 519
0 0 0 0 0 0 0 0 0 0 0 0 0 0 0 0 0 0 10 968 1127 964 852 797 1017 1429 1168 1153 1172 964 864 792 781 769 728 609 429 355 250 226 215 142 241
0 0 0 0 0 0 0 0 0 0 0 0 0 0 0 0 0 0 0 0 169 618 607 286 617 695 211 699 904 993 803 747 852 825 751 602 412 320 186 94 41 10 12
0 0 0 0 0 0 0 0 0 0 0 0 0 0 0 0 0 0 0 0 0 7 518 557 524 225 87 439 601 454 351 394 485 597 615 524 430 341 261 132 35 0 17
0 0 0 0 0 0 0 0 0 0 0 0 0 0 0 0 0 0 0 0 0 0 0 424 660 724 522 523 474 390 332 151 186 361 340 349 413 408 395 235 125 55 22
0 0 0 0 0 0 0 0 0 0 0 0 0 0 0 0 0 0 0 0 0 0 0 0 205 541 735 479 580 427 98 172 67 0 228 108 342 306 383 283 232 64 12
0 0 0 0 0 0 0 0 0 0 0 0 0 0 0 0 0 0 1 2 2 0 0 0 0 88 574 391 50 142 2 0 0 0 0 91 181 254 334 265 182 96 32
0 0 0 0 0 0 0 0 0 0 2 2 1 1 1 1 0 0 0 1 1 1 0 1 0 0 213 460 118 0 1 0 0 0 0 0 1 199 244 260 110 30 8
0 0 0 0 0 0 0 0 1 0 1 3 4 4 3 1 2 2 2 2 2 3 2 1 2 4 4 136 111 81 2 0 0 0 0 0 0 14 225 168 130 41 0

GFSSE_con_mlcape_120.txt.gz
CAPE
659 995 1052 1064 1127 1081 679 621 627 538 688 862 920 947 997 869 727 856 878 1070 1478 1780 1736 1641 1472 1189 702 678 744 774 765 721 725 882 1216 1452 1533 1465 1379 1195 1066 995 876
931 1192 1154 1125 1173 1183 789 520 692 659 745 1018 1131 1204 1201 1041 1043 1045 1078 1171 1577 1821 1878 1676 1831 1616 1065 533 349 361 444 540 627 778 1270 1447 1476 1535 1346 1136 954 987 841
904 1281 1131 1061 1205 1264 1051 675 627 798 713 877 1212 1312 1340 1304 1290 1284 1308 1286 1391 1791 1966 1813 1805 1838 1183 692 462 392 440 598 618 870 1233 1320 1409 1493 1303 1145 945 734 872
990 1175 1228 1300 1375 1325 1244 917 781 818 840 750 920 1222 1358 1392 1399 1348 1316 1392 1519 1744 1911 1966 1835 1885 1225 775 507 369 444 700 694 923 1028 1159 1292 1458 1345 1169 1115 651 797
1177 1153 1295 1270 1392 1431 1349 1191 997 895 851 853 750 904 1127 1259 1299 1255 1299 1441 1653 1899 1871 1902 1954 1853 1153 812 479 285 472 790 847 718 858 1044 1166 1181 1234 1172 1222 1319 891
1342 1325 1411 1412 1437 1454 1428 1336 1187 1053 855 734 810 862 1029 1137 1144 1146 1215 1388 1533 1575 1825 1990 1959 1630 1152 811 370 208 481 806 917 664 717 909 1161 1135 1205 1010 1070 1243 1214
1430 1369 1436 1521 1482 1467 1443 1328 1175 1094 997 860 743 865 1017 1188 1229 1218 1257 1361 1429 1461 1463 1568 1544 1067 858 682 356 253 516 724 750 834 609 697 914 1188 1137 1001 863 992 1154
1666 1485 1417 1541 1499 1425 1350 1281 1214 1186 1123 1046 918 872 962 1019 1141 1183 1316 1405 1395 1238 1197 1265 1187 950 1035 880 583 548 559 610 634 543 472 539 755 955 1077 751 822 819 981
1493 1566 1581 1545 1601 1585 1496 1358 1289 1355 1320 1205 1144 1079 1011 1038 1033 1024 1160 1302 1252 1166 1485 1451 1269 1502 1417 1170 915 688 583 572 496 452 324 174 434 354 975 674 762 747 958
1559 1521 1474 1529 1652 1621 1524 1500 1406 1388 1417 1402 1359 1311 1251 1149 1175 1178 1043 1101 1173 1275 1643 1748 1769 1620 1380 1114 995 756 638 620 538 389 313 311 109 229 893 804 907 745 782
966 1334 1540 1590 1661 1611 1532 1442 1521 1548 1515 1491 1481 1509 1539 1470 1274 1363 1346 1250 1228 1307 1581 1672 1811 1630 1309 1155 1007 830 740 641 570 362 250 276 287 303 244 836 1005 989 865
122 562 1433 1584 1697 1617 1559 1423 1404 1450 1587 1599 1599 1581 1624 1681 1537 1374 1345 1314 1339 1262 1405 1554 1742 1711 1489 1189 978 809 667 619 602 476 347 248 457 759 579 761 750 1037 863
0 355 1480 1652 1659 1656 1725 1609 1499 1471 1486 1554 1623 1619 1678 1631 1530 1460 1401 1310 1256 1303 1253 1327 1669 1730 1591 1373 913 719 627 596 589 600 580 480 372 757 1134 1135 838 939 804
0 0 1274 1828 1883 1888 1839 1731 1484 1437 1357 1419 1462 1486 1479 1251 1256 1309 1400 1297 1211 1189 1178 1222 1259 1591 1491 1486 1190 791 673 602 533 529 586 624 536 566 949 1378 1228 920 821
0 0 469 1913 2118 2133 2119 1922 1587 1449 1228 1164 1248 1381 1378 1298 1271 1148 1248 1247 1223 1223 1207 1116 1131 1192 1284 1279 1318 1016 772 644 557 513 490 590 617 535 688 1218 1486 690 932
0 0 0 634 1142 885 750 865 685 546 761 905 805 869 942 848 777 809 1023 1179 1150 1140 1210 1227 1159 1143 1085 1164 1207 1116 923 715 597 535 473 460 530 526 541 957 1299 1271 1062
0 0 0 8 0 9 4 1 0 3 0 2 0 0 7 122 122 345 947 1024 1174 1103 950 1010 1078 1175 1110 1037 1084 1153 1005 827 653 541 533 445 469 454 426 599 789 931 922
0 0 0 0 0 0 0 0 0 0 0 0 0 0 0 0 0 0 0 75 854 1182 1097 935 923 944 987 906 930 1000 1009 919 803 675 626 568 534 500 449 386 523 645 794
0 0 0 0 0 0 0 0 0 0 0 0 0 0 0 0 0 0 0 0 0 91 899 887 816 807 863 779 870 866 704 754 709 664 730 555 568 518 428 384 377 444 599
0 0 0 0 0 0 0 0 0 0 0 0 0 0 0 0 0 0 0 0 0 0 74 388 518 599 394 417 503 121 429 590 512 404 491 415 433 502 452 391 384 317 342
0 0 0 0 0 0 0 0 0 0 0 0 0 0 0 0 0 0 0 0 0 0 0 0 357 182 16 85 123 51 148 133 114 301 299 283 283 229 222 200 203 188 210
0 0 0 0 0 0 0 0 0 0 0 0 0 0 0 0 0 0 0 0 0 0 0 0 0 369 282 133 23 34 0 0 0 160 148 81 233 180 220 214 200 207 151
0 0 0 0 0 0 0 0 0 0 0 0 0 0 0 0 0 0 0 1 1 1 0 0 0 0 273 295 326 267 105 43 28 13 0 10 208 128 94 214 154 236 156
1 0 0 0 0 0 0 0 0 0 0 0 0 0 0 0 0 0 1 0 1 1 1 1 1 0 0 64 196 290 154 27 81 8 0 76 69 41 120 21 5 103 120
0 0 0 0 0 0 0 0 2 1 1 2 1 2 1 0 1 0 1 2 2 2 2 1 1 2 1 0 11 4 1 10 0 0 2 1 10 27 20 0 0 76 73
0 0 0 0 0 0 1 0 1 2 2 2 3 2 3 1 1 1 1 2 2 3 3 2 3 2 2 1 5 15 3 4 0 0 0 0 0 0 0 0 0 16 49